[[{"header":{"parameterUnit":"m.s-1","parameterCategory":1,"la1":30.6,"la2":29.2853,"lo1":-89.7004,"lo2":-87.6739,"dy":0.0162,"dx":0.0183,"nx":112,"ny":82,"refTime":"2026-03-26T12:00:00:Z","depth":0,"parameterNumber":2,"parameterNumberName":"U-component_of_WINDS"},"data":[0.0,0.0,0.0,0.0,0.0,0.0,0.0,0.0,0.0,0.0,0.0,0.0,0.0,0.0,0.0,0.0,0.0,0.0,0.0,0.0,0.0,0.0,0.0,0.0,0.0,0.0,0.0,0.0,0.0,0.0,0.0,0.0,0.0,0.0,0.0,0.0,0.0,0.0,0.0,0.0,0.0,0.0,0.0,0.0,0.0,0.0,0.0,0.0,0.0,0.0,0.0,0.0,0.0,0.0,0.0,0.0,0.0,0.0,0.0,0.0,0.0,0.0,0.0,0.0,0.0,0.0,0.0,0.0,0.0,0.0,0.0,0.0,0.0,0.0,0.0,0.0,0.0,0.0,0.0,0.0,0.0,0.0,0.0,0.0,0.0,0.0,0.0,0.0,0.0,0.0,-3.4959,-3.4851,-3.5296,-3.5621,-3.5686,-3.5149,-3.3752,-3.1263,0.0,0.0,0.0,0.0,0.0,0.0,0.0,0.0,0.0,0.0,0.0,0.0,0.0,0.0,0.0,0.0,0.0,0.0,0.0,0.0,0.0,0.0,0.0,0.0,0.0,0.0,0.0,0.0,0.0,0.0,0.0,0.0,0.0,0.0,0.0,0.0,0.0,0.0,0.0,0.0,0.0,0.0,0.0,0.0,0.0,0.0,0.0,0.0,0.0,0.0,0.0,0.0,0.0,0.0,0.0,0.0,0.0,0.0,0.0,0.0,0.0,0.0,0.0,0.0,0.0,0.0,0.0,0.0,0.0,0.0,0.0,0.0,0.0,0.0,0.0,0.0,0.0,0.0,0.0,0.0,0.0,0.0,0.0,0.0,0.0,0.0,0.0,0.0,0.0,0.0,0.0,0.0,0.0,0.0,0.0,0.0,0.0,0.0,0.0,0.0,0.0,0.0,0.0,0.0,-3.4076,-3.5335,-3.5607,-3.5667,-3.5611,-3.516,-3.3805,-3.1256,0.0,0.0,0.0,0.0,0.0,0.0,0.0,0.0,0.0,0.0,0.0,0.0,0.0,0.0,0.0,0.0,0.0,0.0,0.0,0.0,0.0,0.0,0.0,0.0,0.0,0.0,0.0,0.0,0.0,0.0,0.0,0.0,0.0,0.0,0.0,0.0,0.0,0.0,0.0,0.0,0.0,0.0,0.0,0.0,0.0,0.0,0.0,0.0,0.0,0.0,0.0,0.0,0.0,0.0,0.0,0.0,0.0,0.0,0.0,0.0,0.0,0.0,0.0,0.0,0.0,0.0,0.0,0.0,0.0,0.0,0.0,0.0,0.0,0.0,0.0,0.0,0.0,0.0,0.0,0.0,0.0,0.0,0.0,0.0,0.0,0.0,0.0,0.0,0.0,0.0,0.0,0.0,0.0,0.0,0.0,0.0,0.0,0.0,0.0,0.0,0.0,0.0,0.0,-3.3589,-3.4451,-3.5494,-3.5663,-3.5676,-3.562,-3.5292,-3.3972,-3.1268,-3.1043,0.0,0.0,0.0,0.0,0.0,0.0,0.0,0.0,0.0,0.0,0.0,0.0,0.0,0.0,0.0,0.0,0.0,0.0,0.0,0.0,0.0,0.0,0.0,0.0,0.0,0.0,0.0,0.0,0.0,0.0,0.0,0.0,0.0,0.0,0.0,0.0,0.0,0.0,0.0,0.0,0.0,0.0,0.0,0.0,0.0,0.0,0.0,0.0,0.0,0.0,0.0,0.0,0.0,0.0,0.0,0.0,0.0,0.0,0.0,0.0,0.0,0.0,0.0,0.0,0.0,0.0,0.0,0.0,0.0,0.0,0.0,0.0,0.0,0.0,0.0,0.0,0.0,0.0,0.0,0.0,0.0,0.0,0.0,0.0,0.0,0.0,0.0,0.0,0.0,0.0,0.0,0.0,0.0,0.0,0.0,0.0,0.0,0.0,0.0,0.0,0.0,0.0,-3.4086,-3.4906,-3.5425,-3.5614,-3.5672,-3.5573,-3.5162,-3.382,-3.1261,-3.0623,0.0,0.0,0.0,0.0,0.0,0.0,0.0,0.0,0.0,0.0,0.0,0.0,0.0,0.0,0.0,0.0,0.0,0.0,0.0,0.0,0.0,0.0,0.0,0.0,0.0,0.0,0.0,0.0,0.0,0.0,0.0,0.0,0.0,0.0,0.0,0.0,0.0,0.0,0.0,0.0,0.0,0.0,0.0,0.0,0.0,0.0,0.0,0.0,0.0,0.0,0.0,0.0,0.0,0.0,0.0,0.0,0.0,0.0,0.0,0.0,0.0,0.0,0.0,0.0,0.0,0.0,0.0,0.0,0.0,0.0,0.0,0.0,0.0,0.0,0.0,0.0,0.0,0.0,0.0,0.0,0.0,0.0,0.0,0.0,0.0,0.0,0.0,0.0,0.0,0.0,0.0,0.0,0.0,0.0,0.0,0.0,0.0,0.0,0.0,0.0,0.0,0.0,-3.3974,-3.4813,-3.5102,-3.5463,-3.5654,-3.5527,-3.447,-3.3035,-3.1201,-2.9918,0.0,0.0,0.0,0.0,0.0,0.0,0.0,0.0,0.0,0.0,0.0,0.0,0.0,0.0,0.0,0.0,0.0,0.0,0.0,0.0,0.0,0.0,0.0,0.0,0.0,0.0,0.0,0.0,0.0,0.0,0.0,0.0,0.0,0.0,0.0,0.0,0.0,0.0,0.0,0.0,0.0,0.0,0.0,0.0,0.0,0.0,0.0,0.0,0.0,0.0,0.0,0.0,0.0,0.0,0.0,0.0,0.0,0.0,0.0,0.0,0.0,0.0,0.0,0.0,0.0,0.0,0.0,0.0,0.0,0.0,0.0,0.0,0.0,0.0,0.0,0.0,0.0,0.0,0.0,0.0,0.0,0.0,0.0,0.0,0.0,0.0,0.0,0.0,0.0,0.0,0.0,0.0,0.0,0.0,0.0,0.0,0.0,0.0,0.0,0.0,0.0,0.0,-3.3658,-3.4793,-3.5079,-3.5452,-3.5438,-3.4807,-3.4413,-3.3209,-3.0875,0.0,0.0,0.0,0.0,0.0,0.0,0.0,0.0,0.0,0.0,0.0,0.0,0.0,0.0,0.0,0.0,0.0,0.0,0.0,0.0,0.0,0.0,0.0,0.0,0.0,0.0,0.0,0.0,0.0,0.0,0.0,0.0,0.0,0.0,0.0,0.0,0.0,0.0,0.0,0.0,0.0,0.0,0.0,0.0,0.0,0.0,0.0,0.0,0.0,0.0,0.0,0.0,0.0,0.0,0.0,0.0,0.0,0.0,0.0,0.0,0.0,0.0,0.0,0.0,0.0,0.0,0.0,0.0,0.0,0.0,0.0,0.0,0.0,0.0,0.0,0.0,0.0,0.0,0.0,0.0,0.0,0.0,0.0,0.0,0.0,0.0,0.0,0.0,0.0,0.0,0.0,0.0,0.0,0.0,0.0,0.0,0.0,0.0,0.0,0.0,0.0,0.0,-3.1694,-3.3019,-3.4118,-3.4518,-3.4667,-3.4519,-3.3945,-3.3699,-3.2704,-3.0631,0.0,0.0,0.0,0.0,0.0,0.0,0.0,0.0,0.0,0.0,0.0,0.0,0.0,0.0,0.0,0.0,0.0,0.0,0.0,0.0,0.0,0.0,0.0,0.0,0.0,0.0,0.0,0.0,0.0,0.0,0.0,0.0,0.0,0.0,0.0,0.0,0.0,0.0,0.0,0.0,0.0,0.0,0.0,0.0,0.0,0.0,0.0,0.0,0.0,0.0,0.0,0.0,0.0,0.0,0.0,0.0,0.0,0.0,0.0,0.0,0.0,0.0,0.0,0.0,0.0,0.0,0.0,0.0,0.0,0.0,0.0,0.0,0.0,0.0,0.0,0.0,0.0,0.0,0.0,0.0,0.0,0.0,0.0,0.0,0.0,0.0,0.0,0.0,0.0,0.0,0.0,0.0,0.0,0.0,0.0,0.0,0.0,0.0,0.0,0.0,0.0,0.0,-3.1314,-3.1962,-3.2631,-3.3322,-3.297,-3.2779,-3.297,-3.2147,-3.128,0.0,0.0,0.0,0.0,0.0,0.0,0.0,0.0,0.0,0.0,0.0,0.0,0.0,0.0,0.0,0.0,0.0,0.0,0.0,0.0,0.0,0.0,0.0,0.0,0.0,0.0,0.0,0.0,0.0,0.0,0.0,0.0,0.0,0.0,0.0,0.0,0.0,0.0,0.0,0.0,0.0,0.0,0.0,0.0,0.0,0.0,0.0,0.0,0.0,0.0,0.0,0.0,0.0,0.0,0.0,0.0,0.0,0.0,0.0,0.0,0.0,0.0,0.0,0.0,0.0,0.0,0.0,0.0,0.0,0.0,0.0,0.0,0.0,0.0,0.0,0.0,0.0,0.0,0.0,0.0,0.0,0.0,0.0,0.0,0.0,0.0,0.0,0.0,0.0,0.0,0.0,0.0,0.0,0.0,0.0,0.0,0.0,0.0,0.0,0.0,0.0,0.0,0.0,-2.9791,-3.0857,-3.1858,-3.2486,-3.2641,-3.2543,-3.2198,-3.1936,-3.1128,-2.9537,0.0,0.0,0.0,0.0,0.0,0.0,0.0,0.0,0.0,0.0,0.0,0.0,0.0,0.0,0.0,0.0,0.0,0.0,0.0,0.0,0.0,0.0,0.0,0.0,0.0,0.0,0.0,0.0,0.0,0.0,0.0,0.0,0.0,0.0,0.0,0.0,0.0,0.0,0.0,0.0,0.0,0.0,0.0,0.0,0.0,0.0,0.0,0.0,0.0,0.0,0.0,0.0,0.0,0.0,0.0,0.0,0.0,0.0,0.0,0.0,0.0,0.0,0.0,0.0,0.0,0.0,0.0,0.0,0.0,0.0,0.0,0.0,0.0,0.0,0.0,0.0,0.0,0.0,0.0,0.0,0.0,0.0,0.0,0.0,0.0,0.0,0.0,0.0,0.0,0.0,0.0,0.0,0.0,0.0,0.0,0.0,0.0,0.0,0.0,0.0,0.0,0.0,-2.9068,-2.9858,-3.0693,-3.1481,-3.1542,-3.1405,-3.1186,-3.129,-3.07,-2.9096,0.0,0.0,0.0,0.0,0.0,0.0,0.0,0.0,0.0,0.0,0.0,0.0,0.0,0.0,0.0,0.0,0.0,0.0,0.0,0.0,0.0,0.0,0.0,0.0,0.0,0.0,0.0,0.0,0.0,0.0,0.0,0.0,0.0,0.0,0.0,0.0,0.0,0.0,0.0,0.0,0.0,0.0,0.0,0.0,0.0,0.0,0.0,0.0,0.0,0.0,0.0,0.0,0.0,0.0,0.0,0.0,0.0,0.0,0.0,0.0,0.0,0.0,0.0,0.0,0.0,0.0,0.0,0.0,0.0,0.0,0.0,0.0,0.0,0.0,0.0,0.0,0.0,0.0,0.0,0.0,0.0,0.0,0.0,0.0,0.0,0.0,0.0,0.0,0.0,0.0,0.0,0.0,0.0,0.0,0.0,0.0,0.0,0.0,0.0,0.0,0.0,0.0,-2.882,-2.8856,-2.9179,-3.0205,-2.9786,-2.9618,-3.0022,-3.0303,-3.0004,-2.8974,0.0,0.0,0.0,0.0,0.0,0.0,0.0,0.0,0.0,0.0,0.0,0.0,0.0,0.0,0.0,0.0,0.0,0.0,0.0,0.0,0.0,0.0,0.0,0.0,0.0,0.0,0.0,0.0,0.0,0.0,0.0,0.0,0.0,0.0,0.0,0.0,0.0,0.0,0.0,0.0,0.0,0.0,0.0,0.0,0.0,0.0,0.0,0.0,0.0,0.0,0.0,0.0,0.0,0.0,0.0,0.0,0.0,0.0,0.0,0.0,-3.5348,-3.5927,0.0,0.0,0.0,0.0,0.0,0.0,0.0,0.0,0.0,0.0,0.0,0.0,0.0,0.0,0.0,0.0,0.0,0.0,0.0,0.0,0.0,0.0,0.0,0.0,0.0,0.0,0.0,0.0,0.0,0.0,0.0,0.0,0.0,0.0,0.0,0.0,0.0,0.0,0.0,0.0,-2.7622,-2.74,-2.7459,-2.8151,-2.779,-2.7928,-2.9007,-2.9259,-2.9043,-2.8331,-2.8904,0.0,0.0,0.0,0.0,0.0,0.0,0.0,0.0,0.0,0.0,0.0,0.0,0.0,0.0,0.0,0.0,0.0,0.0,0.0,0.0,0.0,0.0,0.0,0.0,0.0,0.0,0.0,0.0,0.0,0.0,0.0,0.0,0.0,0.0,0.0,0.0,0.0,0.0,0.0,0.0,0.0,0.0,0.0,0.0,0.0,0.0,0.0,0.0,0.0,0.0,0.0,0.0,0.0,0.0,0.0,0.0,0.0,0.0,0.0,-3.4417,-3.529,0.0,0.0,0.0,0.0,0.0,0.0,0.0,0.0,0.0,0.0,0.0,0.0,0.0,0.0,0.0,0.0,0.0,0.0,0.0,0.0,0.0,0.0,0.0,0.0,0.0,0.0,0.0,0.0,0.0,0.0,0.0,0.0,0.0,0.0,0.0,0.0,0.0,0.0,0.0,0.0,-2.6772,-2.6583,-2.657,-2.6852,-2.678,-2.7074,-2.7964,-2.8248,-2.8106,-2.7472,-2.785,0.0,0.0,0.0,0.0,0.0,0.0,0.0,0.0,0.0,0.0,0.0,0.0,0.0,0.0,0.0,0.0,0.0,0.0,0.0,0.0,0.0,0.0,0.0,0.0,0.0,0.0,0.0,0.0,0.0,0.0,0.0,0.0,0.0,0.0,0.0,0.0,0.0,0.0,0.0,0.0,0.0,0.0,0.0,0.0,0.0,0.0,0.0,0.0,0.0,0.0,0.0,0.0,0.0,-3.399,-3.3648,-3.2684,-3.2684,-3.2364,-3.1903,-3.3713,-3.4688,-3.4938,-3.4499,0.0,0.0,0.0,0.0,0.0,0.0,0.0,0.0,0.0,0.0,0.0,0.0,0.0,0.0,0.0,0.0,0.0,0.0,0.0,0.0,0.0,0.0,-2.883,-2.8644,-2.8639,-2.8703,-2.8769,0.0,0.0,0.0,0.0,0.0,0.0,0.0,0.0,0.0,0.0,0.0,-2.6128,-2.5922,-2.5789,-2.5793,-2.5925,-2.6262,-2.6897,-2.7197,-2.7149,-2.6674,-2.6699,-2.6353,0.0,0.0,0.0,0.0,0.0,0.0,0.0,0.0,0.0,0.0,0.0,0.0,0.0,0.0,0.0,0.0,0.0,0.0,0.0,0.0,0.0,0.0,0.0,0.0,0.0,0.0,0.0,0.0,0.0,0.0,0.0,0.0,-3.7227,-3.8904,0.0,0.0,0.0,0.0,0.0,0.0,0.0,0.0,0.0,0.0,0.0,0.0,0.0,-3.3788,-3.3703,-3.3763,-3.3728,-3.3582,-3.3668,-3.362,-3.3454,-3.3454,-3.3406,-3.3335,-3.363,0.0,-3.448,-3.5318,0.0,0.0,0.0,0.0,0.0,0.0,0.0,0.0,0.0,0.0,0.0,0.0,0.0,0.0,0.0,0.0,0.0,0.0,0.0,0.0,0.0,0.0,-2.7811,-2.7164,-2.701,-2.7106,-2.7465,-2.7955,-2.8112,-2.7417,-2.7864,-2.8123,0.0,0.0,0.0,0.0,0.0,0.0,-2.5673,-2.482,-2.4286,-2.4509,-2.4262,-2.4578,-2.5777,-2.5935,-2.6105,-2.6423,-2.6449,-2.6177,-2.5529,-2.5499,0.0,0.0,0.0,0.0,0.0,0.0,0.0,0.0,0.0,0.0,0.0,0.0,0.0,0.0,0.0,0.0,0.0,0.0,0.0,0.0,0.0,0.0,0.0,0.0,0.0,0.0,0.0,0.0,0.0,-3.5256,-3.6216,-3.6645,-3.6569,-3.6067,0.0,0.0,0.0,0.0,0.0,0.0,0.0,0.0,0.0,-3.3531,-3.2811,-3.2777,-3.3532,-3.3547,-3.3347,-3.2977,-3.2977,-3.2777,-3.2407,-3.2407,-3.2407,-3.2434,-3.2853,-3.3133,-3.3371,-3.3792,-3.38,-3.3424,0.0,0.0,0.0,0.0,-3.1544,-3.1507,-3.0798,-3.0864,-3.0994,-2.9489,0.0,0.0,0.0,0.0,0.0,0.0,0.0,-2.6691,-2.7107,-2.6776,-2.6365,-2.6447,-2.6167,-2.591,-2.6091,-2.632,-2.661,-2.6953,-2.7321,-2.7352,-2.6673,-2.6182,0.0,0.0,0.0,-2.4182,-2.398,-2.3533,-2.3281,-2.3388,-2.3413,-2.3775,-2.4663,-2.4917,-2.5158,-2.5488,-2.5507,-2.5439,-2.5287,-2.5272,-2.5354,0.0,0.0,0.0,0.0,0.0,0.0,0.0,0.0,0.0,0.0,0.0,0.0,0.0,0.0,0.0,0.0,0.0,0.0,0.0,0.0,0.0,0.0,0.0,0.0,0.0,0.0,0.0,0.0,-3.4889,-3.5007,-3.4852,-3.5066,-3.4619,0.0,0.0,0.0,0.0,0.0,0.0,-3.2832,-3.1888,-3.1902,-3.3088,-3.2154,-3.2243,-3.3484,-3.3499,-3.3155,-3.2512,-3.2512,-3.2138,-3.1511,-3.1511,-3.1511,-3.1524,-3.2092,-3.2327,-3.2336,-3.2645,-3.2572,-3.2174,-3.141,-3.0908,-3.0582,-3.0423,-3.0436,-3.0459,-2.999,-3.0153,-3.0238,-2.8578,-2.7993,-2.7701,-2.6398,0.0,0.0,0.0,0.0,-2.5362,-2.6102,-2.575,-2.5301,-2.5673,-2.5333,-2.49,-2.4724,-2.4676,-2.5074,-2.6353,-2.6482,-2.6232,-2.5832,-2.4994,0.0,-2.4393,-2.3546,-2.2828,-2.2573,-2.2471,-2.2445,-2.2533,-2.2855,-2.3258,-2.3751,-2.4015,-2.4246,-2.4457,-2.4746,-2.4997,-2.5187,-2.5291,-2.5476,-2.571,0.0,0.0,0.0,0.0,0.0,0.0,0.0,0.0,0.0,0.0,0.0,0.0,0.0,0.0,0.0,0.0,0.0,0.0,0.0,0.0,0.0,0.0,0.0,0.0,0.0,0.0,0.0,0.0,0.0,-3.5291,-3.4547,0.0,0.0,0.0,0.0,-3.0044,-2.9993,-3.0211,-3.0726,-3.0707,-3.1119,-3.2147,-3.2101,-3.2526,-3.3499,-3.3499,-3.3155,-3.2512,-3.2512,-3.2138,-3.1511,-3.1511,-3.1511,-3.1511,-3.1539,-3.1553,-3.1653,-3.2992,-3.2775,-3.1542,-3.1486,-3.0653,-2.9483,-2.9457,-2.948,-2.9457,-2.9435,-2.9457,-2.9351,-2.8613,-2.7478,-2.6262,-2.5487,-2.5243,0.0,0.0,-2.5753,-2.5362,-2.6102,-2.575,-2.5042,-2.4438,-2.428,-2.4072,-2.3449,-2.3288,-2.369,-2.5043,-2.4791,-2.434,-2.4305,0.0,-2.3293,-2.3293,-2.2646,-2.2147,-2.2132,-2.184,-2.1777,-2.2096,-2.2495,-2.2855,-2.3212,-2.3259,-2.3343,-2.3547,-2.4586,-2.5272,-2.5471,-2.5844,-2.6122,-2.6269,-2.5561,0.0,0.0,0.0,0.0,0.0,0.0,0.0,0.0,0.0,0.0,0.0,0.0,0.0,0.0,0.0,0.0,0.0,0.0,0.0,0.0,0.0,0.0,0.0,0.0,0.0,0.0,0.0,0.0,-3.2897,-3.2625,0.0,-3.0862,-3.0727,-3.0576,-3.0347,-3.0313,-3.041,-3.0582,-3.0596,-3.0977,-3.1738,-3.1786,-3.2151,-3.2899,-3.2568,-3.2055,-3.1411,-3.1076,-3.0549,-2.9889,-2.9889,-2.9889,-2.9889,-2.9889,-2.9889,-2.9907,-3.0046,-3.0404,-3.0768,-2.9951,-2.9336,-2.8836,-2.84,-2.8496,-2.8756,-2.8376,-2.8225,-2.7926,-2.6439,-2.5321,-2.4506,-2.4255,-2.4178,-2.4224,-2.4491,-2.4384,-2.4224,-2.4491,-2.4076,-2.3523,-2.3277,-2.2913,-2.2528,-2.2298,-2.2236,-2.239,-2.2851,-2.2997,-2.2958,-2.2648,-2.2036,-2.159,-2.159,-2.0991,-2.0651,-2.091,-2.0841,-2.1007,-2.1698,-2.2099,-2.2464,-2.286,-2.3081,-2.323,-2.3298,-2.4128,-2.4712,-2.4905,-2.5272,-2.5564,-2.578,-2.5235,-2.4995,0.0,0.0,0.0,0.0,0.0,0.0,0.0,0.0,0.0,0.0,0.0,0.0,0.0,0.0,0.0,0.0,0.0,0.0,0.0,0.0,0.0,0.0,0.0,0.0,0.0,-3.1045,-3.0752,-3.1145,-3.107,-3.0668,-2.9832,-2.9939,-3.0024,-3.0024,-3.0024,-3.0104,-3.0317,-3.033,-3.0668,-3.1436,-3.1485,-3.1744,-3.2324,-3.1972,-3.1363,-3.0527,-3.0159,-2.9647,-2.9002,-2.9002,-2.9002,-2.9002,-2.9002,-2.9002,-2.8933,-2.8194,-2.8446,-2.9302,-2.851,-2.8244,-2.8203,-2.7764,-2.786,-2.811,-2.7479,-2.6946,-2.6313,-2.501,-2.4141,-2.3595,-2.3595,-2.3595,-2.3595,-2.3595,-2.3595,-2.3595,-2.3595,-2.3152,-2.2643,-2.2418,-2.1844,-2.1306,-2.1066,-2.1021,-2.1021,-2.1021,-2.1459,-2.1728,-2.1424,-2.0812,-2.0363,-2.0363,-1.9974,-1.98,-2.0054,-2.0227,-2.0517,-2.1102,-2.1502,-2.1884,-2.2293,-2.2534,-2.2733,-2.2895,-2.3576,-2.4102,-2.4378,-2.4573,-2.4847,-2.5216,-2.4591,-2.4282,-2.4332,0.0,0.0,0.0,0.0,0.0,0.0,0.0,0.0,0.0,0.0,0.0,0.0,0.0,0.0,0.0,0.0,0.0,0.0,0.0,0.0,0.0,0.0,0.0,-3.0574,-3.04,-3.0227,-3.0352,-3.0035,-2.9365,-2.826,-2.8599,-2.8913,-2.8913,-2.8913,-2.9202,-2.9767,-2.9792,-3.0203,-3.1143,-3.113,-3.1302,-3.1709,-3.1668,-3.106,-2.9933,-2.9919,-2.9569,-2.8907,-2.8907,-2.8907,-2.8907,-2.8907,-2.8894,-2.8815,-2.763,-2.7134,-2.714,-2.7356,-2.7471,-2.7534,-2.7534,-2.7534,-2.7415,-2.6732,-2.5634,-2.4537,-2.4507,-2.4067,-2.3551,-2.3551,-2.3551,-2.3573,-2.3573,-2.3588,-2.3595,-2.358,-2.3116,-2.2473,-2.1794,-2.1117,-2.0441,-1.9788,-1.9639,-1.9639,-1.9639,-2.0158,-2.062,-2.0658,-2.0124,-1.969,-1.969,-1.9657,0.0,-1.9639,-2.0002,-2.0263,-2.028,-2.0715,-2.1134,-2.1536,-2.1582,-2.1779,-2.2223,-2.2897,-2.3471,-2.3921,-2.3827,-2.4023,-2.4586,-2.366,-2.3163,-2.3163,0.0,0.0,0.0,0.0,0.0,0.0,0.0,0.0,0.0,0.0,0.0,0.0,0.0,0.0,0.0,0.0,0.0,0.0,0.0,0.0,0.0,-2.6956,-2.7341,-2.9996,-2.9736,-2.944,-2.991,-2.9884,-2.9679,-2.9365,-2.9465,-2.9553,-2.9553,-2.9553,-2.9628,-2.9779,-2.9792,-2.9934,-3.0177,-2.9757,-2.9613,-2.9693,-2.8915,-2.8381,-2.8036,-2.7657,-2.7385,-2.7196,-2.7196,-2.7196,-2.7196,-2.7196,-2.695,-2.6465,-2.5768,-2.5568,-2.5711,-2.5909,-2.5992,-2.6,-2.6,-2.573,-2.5261,-2.464,-2.3904,-2.314,-2.2673,-2.2366,-2.2225,-2.2225,-2.2575,-2.2957,-2.2957,-2.3253,-2.349,-2.3062,-2.2179,-2.1228,-2.0546,-1.9582,-1.8767,-1.8577,-1.8535,-1.8535,-1.8535,-1.8696,-1.9056,-1.9849,-1.9505,-1.9132,-1.9132,-1.8798,-1.8535,-1.8535,-1.8991,-1.9419,-1.9763,-2.0213,-2.0682,-2.1134,-2.1166,-2.1213,-2.1338,-2.2019,-2.2491,-2.2618,-2.2815,-2.2852,-2.266,-2.2401,-2.2263,0.0,0.0,0.0,0.0,0.0,0.0,0.0,0.0,0.0,0.0,0.0,0.0,0.0,0.0,0.0,0.0,0.0,0.0,0.0,0.0,0.0,0.0,-2.5922,-2.6325,-2.8376,-2.8217,-2.818,-2.8991,-2.9106,-2.9287,-2.9753,-2.9792,-2.9792,-2.9792,-2.9792,-2.9792,-2.9792,-2.9792,-2.9679,-2.944,-2.9063,-2.8662,-2.8247,-2.7607,-2.7203,-2.6964,-2.665,-2.6499,-2.6499,-2.6499,-2.6499,-2.6474,-2.6235,-2.59,-2.5536,-2.4795,-2.4519,-2.4659,0.0,0.0,0.0,0.0,-2.4872,-2.4071,-2.3713,-2.3009,-2.2218,-2.1821,-2.1697,-2.1697,-2.1697,-2.1969,-2.2276,-2.2276,-2.2515,-2.2722,-2.2366,-2.1384,-2.038,-2.0004,-1.8985,-1.8106,-1.8106,-1.8106,-1.8106,-1.8106,-1.8106,0.0,-1.893,-1.8765,-1.8554,-1.8554,-1.8302,-1.8106,-1.8106,-1.838,-1.8674,-1.8929,-1.9225,-1.9659,-2.0351,-2.0401,0.0,0.0,0.0,-2.1349,-2.1349,-2.1714,0.0,0.0,0.0,0.0,0.0,-2.0511,0.0,0.0,-2.1341,-2.1397,0.0,0.0,0.0,0.0,0.0,0.0,0.0,0.0,0.0,0.0,0.0,0.0,0.0,0.0,0.0,0.0,-2.5363,-2.551,-2.6044,-2.6099,-2.6554,-2.7763,-2.7936,-2.8319,-2.9326,-2.9417,-2.9417,-2.9417,-2.9417,-2.9417,-2.9417,-2.9484,0.0,0.0,0.0,-2.8273,-2.7329,-2.7218,-2.6907,-2.6349,-2.6465,-2.6452,-2.6349,-2.6465,-2.6461,-2.6361,-2.5824,-2.5523,-2.5347,-2.4393,-2.3966,-2.3915,-2.4092,-2.4553,-2.5134,-2.5065,-2.4327,-2.3342,-2.3288,0.0,0.0,-2.1482,-2.1482,-2.1482,-2.1482,-2.1544,-2.1615,-2.1615,-2.1663,-2.1669,-2.1531,-2.0657,-1.9787,-1.9649,-1.8734,-1.7927,-1.7927,-1.7927,-1.7927,-1.7927,-1.7927,-1.7927,-1.7927,-1.7967,-1.8007,-1.8007,-1.7967,-1.7927,-1.7927,-1.7967,-1.8007,-1.8007,-1.8066,0.0,-1.9353,-1.9426,-1.9783,-2.0617,-2.0282,-2.0058,-2.0058,-2.0451,-2.0667,-2.0667,-1.9854,-1.9426,-1.9426,-1.8545,-1.8106,-1.8131,-1.9689,-2.0062,0.0,0.0,0.0,0.0,0.0,0.0,0.0,0.0,0.0,0.0,0.0,0.0,0.0,0.0,0.0,-2.427,-2.3905,-2.3624,-2.3757,-2.3767,-2.452,-2.6554,-2.6801,-2.6883,-2.7139,-2.7139,-2.7139,-2.7139,-2.7139,-2.7139,-2.7139,-2.7546,-2.7741,-2.7594,-2.7594,-2.7494,-2.7281,-2.6876,-2.6206,-2.53,-2.6094,0.0,-2.5335,-2.6129,-2.6235,-2.5762,-2.5649,-2.5109,-2.4293,-2.4079,-2.3715,-2.3288,-2.3326,-2.3424,-2.3509,-2.3048,-2.2488,-2.1847,-2.1413,-2.0771,-2.0156,-2.0156,-2.0156,-2.0156,-2.0156,-2.0559,0.0,-2.0979,-2.1318,-2.1476,-2.0495,-1.9749,-1.9012,-1.8022,-1.7295,-1.6816,-1.6816,-1.6816,-1.6816,-1.6816,-1.6816,-1.6816,-1.6816,-1.7167,-1.7442,-1.7442,-1.7097,-1.6816,-1.6816,-1.7188,-1.7442,-1.7442,-1.7847,-1.8171,-1.8372,-1.8391,-1.8468,-1.8646,-1.8584,-1.8526,-1.8526,-1.8608,-1.8665,-1.8665,-1.8487,-1.8391,-1.8391,-1.819,-1.8106,-1.8125,-1.8445,-1.8522,0.0,0.0,0.0,0.0,0.0,0.0,0.0,0.0,0.0,0.0,0.0,-2.3775,-2.2889,0.0,-2.2415,-2.2629,-2.2417,-2.2403,-2.3003,-2.3091,-2.3714,-2.5473,-2.563,-2.5891,-2.6431,-2.6524,-2.6524,-2.6524,-2.6524,-2.6412,-2.6154,-2.6377,-2.6325,-2.5816,-2.5804,-2.5671,-2.5409,-2.5111,-2.4731,-2.4264,-2.4767,-2.4731,-2.4253,-2.4543,-2.4527,-2.4206,-2.3716,-2.3191,-2.267,-2.2408,-2.2103,-2.1865,-2.1865,-2.2372,-2.3045,-2.2493,-2.197,-2.1405,-2.088,-2.0314,-1.9798,-1.9798,-1.9798,-1.9798,-1.9798,-2.0029,-2.0295,-2.0295,-2.0257,-2.0075,-1.9583,-1.8541,-1.7609,-1.7399,-1.6445,-1.5678,-1.5986,-1.6051,-1.6051,-1.6051,-1.6281,-1.65,-1.65,-1.671,-1.6888,-1.6888,-1.668,-1.65,-1.65,-1.6731,-1.6888,-1.6888,-1.7126,-1.7415,-1.7686,-1.7947,-1.7973,-1.7666,-1.7652,-1.7518,-1.7214,-1.7193,-1.7193,-1.7193,-1.6938,-1.6793,-1.6793,-1.6524,-1.6409,-1.6409,-1.6409,-1.6873,0.0,0.0,0.0,0.0,0.0,0.0,0.0,0.0,-2.3413,-2.2992,-2.3094,-2.2846,-2.1429,-2.119,-2.1291,-2.1612,-2.1658,-2.1987,-2.296,-2.3091,-2.343,-2.4372,-2.4457,-2.484,-2.5766,-2.585,-2.585,-2.585,-2.585,-2.5642,-2.5201,-2.5282,-2.4897,-2.4011,-2.4089,-2.3955,-2.3489,-2.3514,-2.3404,-2.322,-2.3404,-2.336,-2.3077,-2.2941,-2.2802,-2.2566,-2.1632,-2.125,-2.1216,-2.0791,-2.059,-2.059,-2.059,-2.1416,-2.2567,-2.1984,-2.1473,-2.096,-2.0419,-1.9865,-1.9371,-1.9371,-1.9371,-1.9371,-1.9371,-1.9371,-1.9371,-1.9371,-1.8893,-1.8374,-1.8447,-1.7281,-1.6191,-1.6744,-1.5762,-1.4835,-1.532,-1.5432,-1.5432,-1.5432,-1.582,-1.6151,-1.6151,-1.6151,-1.6194,-1.6315,-1.6337,-1.6281,-1.6173,-1.6151,-1.6151,-1.6151,-1.6151,-1.6333,-1.6765,-1.7177,-1.7233,-1.6764,-1.6709,-1.6507,-1.6022,-1.5988,-1.5988,-1.5988,-1.5558,-1.5339,-1.5339,-1.4903,-1.4698,-1.4698,-1.4698,-1.5443,-2.3434,-2.1278,-1.9666,-2.0149,-1.9398,-1.8785,0.0,0.0,-2.1155,-2.1464,-2.2374,-2.3041,-2.2872,-2.2838,-2.2858,-2.2906,-2.2906,-2.296,-2.3091,-2.3091,-2.3135,-2.3266,-2.3309,-2.3343,-2.3474,-2.3474,-2.3474,-2.3474,-2.3474,-2.3285,-2.2901,-2.332,-2.3364,-2.2896,-2.3343,-2.357,-2.3514,-2.3514,-2.3036,-2.2178,-2.3073,-2.2853,-2.1649,-2.2499,-2.2396,-2.152,-2.0948,-2.0701,-2.0669,-2.0613,-2.059,-2.059,-2.059,-2.0719,-2.0821,-2.0206,-1.9739,-1.9299,-1.8742,-1.8244,-1.7852,-1.7852,-1.7852,-1.7852,-1.7852,-1.7852,-1.7852,-1.7852,-1.7534,-1.7092,-1.6618,-1.6045,-1.5464,-1.5085,-1.4857,-1.4732,-1.4789,-1.4789,-1.4789,-1.4789,-1.4869,-1.4903,-1.4903,-1.4903,-1.5085,-1.561,-1.5698,-1.5499,-1.4971,-1.4903,-1.4903,-1.4903,-1.4903,-1.4926,-1.4983,-1.505,-1.5039,-1.4971,-1.4971,-1.4949,-1.4881,-1.4881,-1.4881,-1.4881,-1.4824,-1.4778,-1.4778,-1.4721,-1.4698,-1.4698,-1.4698,-1.4789,-2.0179,-1.9422,-1.8913,0.0,-1.8539,-1.8491,-1.8978,-1.9371,-1.9937,-2.1078,-2.1702,-2.2031,-2.2031,-2.2031,-2.2031,0.0,-2.2031,-2.2306,-2.3003,-2.3091,-2.3091,-2.3091,-2.3091,-2.3091,-2.3091,-2.3091,-2.3091,-2.3091,-2.2867,-2.2598,-2.2168,-2.2118,-2.1889,-2.1485,-2.1706,-2.1821,-2.1821,-2.1821,-2.1593,-2.1193,-2.1603,-2.1357,-2.0518,-2.0731,-2.0288,-1.9414,-1.9193,-1.9077,-1.9077,-1.9077,-1.9077,-1.9077,-1.9077,-1.9077,-1.9147,-1.9549,-1.9613,-1.9406,-1.8594,-1.8181,-1.7958,-1.7695,-1.7605,-1.7605,-1.7605,-1.7605,-1.755,-1.7324,-1.6822,-1.628,-1.5903,-1.5055,-1.4405,-1.4636,-1.4154,-1.3742,-1.4107,-1.4167,-1.4167,-1.4167,-1.4468,-1.4698,-1.4698,-1.4698,-1.4675,-1.4572,-1.4846,-1.4994,-1.4721,-1.4698,-1.4698,-1.4698,-1.4698,-1.4698,-1.4698,-1.4698,-1.4537,-1.419,-1.4167,-1.4014,-1.3658,-1.3658,-1.3658,-1.3658,-1.3226,-1.3014,-1.3014,-1.2619,-1.2643,-1.3014,-1.3014,-1.3236,-1.7637,-1.7498,0.0,-1.7184,-1.7479,-1.7868,-1.7953,-1.8247,-1.886,-2.0065,-2.0845,-2.1293,-2.1293,-2.1569,-2.18,-2.18,-2.18,-2.212,-2.3003,-2.3091,-2.3091,-2.3091,-2.3091,-2.3091,-2.3091,-2.3091,-2.3091,-2.3091,-2.2711,-2.2324,-2.1904,-2.1434,-2.1025,-2.0615,-2.0605,-2.0605,-2.0605,-2.0605,-2.0605,-2.0605,-2.0605,-2.0312,-1.9727,-1.918,-1.8594,-1.8008,-1.8008,-1.8008,-1.8008,-1.8008,-1.8008,-1.7998,-1.7881,-1.791,-1.8075,-1.8659,-1.8908,-1.8853,-1.8102,-1.7712,-1.7431,-1.7104,-1.6996,-1.6996,-1.6996,-1.6996,-1.6898,-1.6515,-1.5913,-1.5336,-1.5021,-1.414,-1.3467,-1.4052,-1.3549,-1.3017,-1.3467,-1.3552,-1.3552,-1.3552,-1.3897,-1.4201,-1.4201,-1.4201,-1.4071,-1.3624,-1.3931,-1.4201,-1.4201,-1.4201,-1.4201,-1.4201,-1.4201,-1.4201,-1.4201,-1.4201,-1.3933,-1.3283,-1.326,-1.2982,-1.2353,-1.2314,-1.2314,-1.2314,-1.1807,-1.1516,-1.1516,-1.104,-1.104,-1.1516,-1.1516,-1.1798,0.0,0.0,-1.3389,-1.508,-1.5476,-1.5564,-1.5846,-1.6835,-1.777,-1.7824,-1.967,-2.1293,-2.1293,-2.2262,-2.3047,-2.3047,-2.3047,-2.3047,-2.3091,-2.3091,-2.3091,-2.3091,-2.3091,-2.3091,-2.3091,-2.3091,-2.3091,-2.3091,-2.2711,-2.2324,-2.1904,-2.1434,-2.1025,-2.0615,-2.0605,-2.0605,-2.0605,-2.0605,-2.0605,-2.0605,-2.0605,-2.0165,-1.9277,-1.8437,-1.8037,-1.8008,-1.8008,-1.8008,-1.8008,-1.8008,-1.8008,-1.7969,-1.7559,-1.7656,-1.791,-1.7093,-1.678,-1.678,-1.675,-1.6213,-1.5488,-1.5468,-1.5468,-1.5468,-1.5468,-1.5468,-1.538,-1.4987,-1.4527,-1.4053,-1.3665,-1.3228,-1.2915,-1.2954,-1.2929,-1.2905,-1.2929,-1.2929,-1.2929,-1.2929,-1.2954,-1.2954,-1.2954,-1.2954,-1.2954,-1.2929,-1.2954,-1.2954,-1.2954,-1.2954,-1.2954,-1.2954,-1.2954,-1.2954,-1.2954,-1.2954,-1.2632,-1.1913,-1.1864,-1.1566,-1.0889,-1.0864,-1.0864,-1.0864,-1.0838,-1.0838,-1.0838,-1.0813,-1.0813,-1.0838,-1.0838,-1.0838,-1.2756,0.0,-1.2295,-1.3728,-1.4243,-1.464,-1.5609,-1.6109,-1.6669,-1.7552,-1.9001,-2.035,-2.1159,-2.2306,-2.3091,-2.3091,-2.3379,-2.3467,-2.314,-2.3578,-2.3734,-2.3169,-2.3344,-2.3457,-2.312,-2.3091,-2.3091,-2.3091,-2.2711,-2.2324,-2.1904,-2.1434,-2.1025,-2.0615,-2.0605,-2.0605,-2.0605,-2.0605,-2.0605,-2.0595,-2.0028,-1.957,-1.9258,-1.8398,-1.8008,-1.8008,-1.8008,-1.8008,-1.8008,-1.8008,-1.8008,-1.7998,-1.7852,-1.7881,-1.7939,-1.7373,-1.6982,-1.6658,-1.6387,-1.6124,-1.5791,-1.5508,-1.541,-1.541,-1.541,-1.5215,-1.4912,-1.4445,-1.4016,-1.3623,-1.3203,-1.2988,-1.2905,-1.2905,-1.2905,-1.2774,-1.227,-1.2559,-1.2774,-1.227,-1.2559,-1.2905,-1.2905,-1.2905,-1.2905,-1.2905,-1.2905,-1.2905,-1.2905,-1.2905,-1.2905,-1.2905,-1.2905,-1.2905,-1.2905,-1.2452,-1.2055,-1.1814,-1.1391,-1.104,-1.0813,-1.0788,-1.0788,-1.0788,-1.0364,-1.0141,-1.0141,-0.9692,-0.9718,-1.0141,-1.0141,-1.0364,-1.0905,-1.0959,-1.119,-1.251,-1.3034,-1.3542,-1.4854,-1.5099,-1.5473,-1.6756,-1.7994,-1.9222,-2.044,-2.1623,-2.2637,-2.3252,-2.3603,-2.374,-2.3569,-2.3945,-2.3994,-2.3437,-2.3486,-2.3447,-2.312,-2.3091,-2.3091,-2.3091,-2.2711,-2.2324,-2.1904,-2.1434,-2.1025,-2.0615,-2.0605,-2.0605,-2.0605,-2.0605,-2.0527,-2.0322,-1.9619,-1.9209,-1.9033,-1.833,-1.8008,-1.8008,-1.8008,-1.8008,-1.8008,-1.8008,-1.8008,-1.7998,-1.7842,-1.7881,-1.792,-1.721,-1.6836,-1.6638,-1.6251,-1.5987,-1.5811,-1.5498,-1.541,-1.541,-1.541,-1.5225,-1.4922,-1.4492,-1.417,-1.3828,-1.3252,-1.2947,-1.27,-1.2548,-1.2329,-1.2024,-1.1541,-1.1807,-1.2024,-1.1516,-1.1832,-1.2157,-1.2157,-1.2353,-1.2501,-1.2501,-1.2501,-1.2608,-1.2881,-1.2666,-1.2618,-1.2881,-1.2437,-1.2255,-1.2476,-1.1857,-1.1341,-1.1091,-1.0686,-1.0338,-1.009,-1.009,-1.009,-1.009,-0.9666,-0.9439,-0.9439,-0.9008,-0.9008,-0.9439,-0.9439,-0.9658,-1.0714,-1.0416,-1.0045,-1.1453,-1.1804,-1.2139,-1.3488,-1.3872,-1.4214,-1.5439,-1.6756,-1.8056,0.0,0.0,-2.1769,-2.3442,-2.3728,-2.3894,-2.4365,-2.4111,-2.3867,0.0,0.0,0.0,0.0,0.0,-2.3091,-2.3091,-2.2773,-2.2353,-2.1904,-2.1494,-2.1055,-2.0615,-2.0605,-2.0605,-2.0605,-2.0605,-2.0342,-1.9912,-1.9482,-1.9053,-1.8588,-1.8169,-1.8008,-1.8008,-1.8008,-1.8008,-1.8008,-1.8008,-1.8008,-1.7969,-1.7568,-1.7656,-1.7852,-1.6604,-1.6367,-1.6638,-1.6222,-1.5762,-1.541,-1.541,-1.541,-1.541,-1.541,-1.5371,-1.5235,-1.4836,-1.4682,-1.445,-1.362,-1.2933,-1.2347,-1.1874,-1.1292,-1.0812,-1.0771,-1.0788,-1.0788,-1.0762,-1.0788,-1.0788,-1.0788,-1.1341,-1.174,-1.174,-1.174,-1.2005,-1.2749,-1.2187,-1.203,-1.2725,-1.1584,-1.1065,-1.169,-1.1141,-1.0491,-0.984,-0.9762,-0.9465,-0.8831,-0.8804,-0.8804,-0.8804,-0.8804,-0.8804,-0.8804,-0.8804,-0.8804,-0.8804,-0.8752,-0.8752,-0.8432,-0.8452,-0.8661,-1.0098,-1.0485,-1.0828,-1.2139,-1.3199,-1.3974,-1.4316,-1.617,-1.7777,0.0,0.0,0.0,-2.2236,-2.2888,0.0,-2.4305,-2.4893,0.0,-2.3906,0.0,-2.3793,-2.3159,-2.3091,-2.3091,-2.3091,-2.2994,-2.2656,-2.1924,-2.1777,-2.1367,-2.0625,-2.0605,-2.0605,-2.0605,-2.0605,-2.0342,-1.9912,-1.9482,-1.9053,-1.8588,-1.8169,-1.8008,-1.8008,-1.8008,-1.8008,-1.8008,-1.8008,-1.8008,-1.7998,-1.7891,-1.791,-1.7891,-1.6924,-1.6599,-1.659,-1.585,-1.5508,-1.541,-1.541,-1.541,-1.541,-1.541,-1.4782,-1.405,-1.392,-1.3233,-1.244,-1.2225,-1.2037,-1.1808,-1.1493,-1.1304,-1.0969,-1.0221,-1.044,-1.0636,-1.0141,-1.0466,-1.0788,-1.0788,-1.0939,-1.104,-1.104,-1.104,-1.1291,-1.1981,-1.1475,-1.1124,-1.1334,-1.1023,-1.0864,-1.104,-1.044,-0.9987,-0.9814,-0.9335,-0.8982,-0.8811,-0.8804,-0.8804,-0.8804,-0.8804,-0.8804,-0.8804,-0.8804,-0.8804,-0.8778,-0.8235,-0.799,-0.6085,-0.6042,-0.6333,-0.7137,-0.7806,-0.8749,-1.0591,-1.2065,-1.3349,-1.4513,-1.5852,0.0,-1.7598,-1.8956,-2.0504,0.0,0.0,0.0,-2.4858,-2.5254,-2.5098,0.0,-2.4111,0.0,-2.3159,-2.3091,-2.3091,-2.3091,-2.2925,-2.2578,-2.1924,-2.1699,-2.1279,-2.0625,-2.0605,-2.0605,-2.0605,-2.0605,-2.0292,-1.9639,-1.9404,-1.8965,-1.8315,-1.8081,-1.8008,-1.8008,-1.8008,-1.8008,-1.8008,-1.8008,-1.8008,-1.8008,-1.8008,-1.79,-1.7623,-1.6567,-1.6078,-1.576,-1.4701,-1.4362,-1.4392,-1.4746,-1.4628,-1.4362,-1.4362,-1.3883,-1.3333,-1.3333,-1.281,-1.2233,-1.2049,-1.1772,-1.1417,-1.0985,-1.0624,-1.019,-0.9504,-0.9666,-0.9814,-0.9439,-0.9666,-0.9917,-0.9917,-1.0167,-1.0364,-1.0364,-1.0364,-1.0491,-1.0864,-1.0585,-1.0466,-1.0771,-1.0261,-1.0038,-1.0338,-0.9736,-0.9361,-0.9361,-0.9008,-0.8804,-0.8804,-0.848,-0.8315,-0.8315,-0.7996,-0.783,-0.783,-0.783,-0.783,-0.783,-0.7396,-0.7208,-0.4089,-0.3898,-0.3954,-0.4012,-0.512,-0.691,-0.9323,-1.1206,-1.3097,-1.5507,0.0,-1.6615,-1.7731,-1.9097,-2.0619,-2.2297,0.0,-2.5024,-2.5625,-2.54,-2.4971,-2.4473,-2.4092,-2.3682,-2.314,-2.3091,-2.3071,-2.3013,-2.2666,-2.2266,-2.1904,-2.1434,-2.1025,-2.0615,-2.0605,-2.0605,-2.0605,-2.0605,-2.0175,-1.9287,-1.9287,-1.8838,-1.8008,-1.8008,-1.8008,-1.8008,-1.8008,-1.8008,-1.8008,-1.8008,-1.8008,-1.8008,-1.8008,-1.7793,-1.7304,-1.5988,-1.5273,-1.4786,-1.3456,-1.2917,-1.297,-1.3786,-1.3584,-1.3009,-1.3009,-1.2917,-1.2856,-1.2856,-1.2757,-1.2593,-1.2188,-1.1612,-1.0968,-1.0306,-0.9666,-0.9131,-0.8871,-0.8804,-0.8804,-0.8804,-0.8804,-0.8804,-0.8804,-0.929,-0.9666,-0.9666,-0.9666,-0.9666,-0.9666,-0.9666,-0.9884,-1.0466,-0.9484,-0.9035,-0.9614,-0.9133,-0.8804,-0.8804,-0.8699,-0.8646,-0.8646,-0.7937,-0.7563,-0.7563,-0.6939,-0.6588,-0.6588,-0.6588,-0.6588,-0.6588,-0.6507,-0.6453,-0.3816,-0.3823,-0.3844,-0.395,-0.5857,-0.8026,-0.9478,-1.2544,0.0,0.0,-1.8111,-1.8948,-1.9131,-1.96,-2.0525,-2.2297,-2.3035,-2.3929,-2.547,-2.5625,-2.5322,0.0,-2.4355,-2.4004,-2.3169,-2.3091,-2.2955,-2.2646,-2.2236,-2.1963,-2.1894,-2.1434,-2.1025,-2.0615,-2.0605,-2.0605,-2.0605,-2.0605,-2.0175,-1.9287,-1.9287,-1.8838,-1.8008,-1.8008,-1.8008,-1.8008,-1.8008,-1.8008,-1.8008,-1.8008,-1.8008,-1.8008,-1.8008,-1.7969,-1.7702,-1.609,-1.5478,-1.5178,-1.3571,-1.2573,-1.2143,-1.294,-1.31,-1.3009,-1.3009,-1.2543,-1.202,-1.202,-1.1531,-1.0951,-1.0583,-1.0409,-1.0139,-0.954,-0.9294,-0.9131,-0.8871,-0.8804,-0.8804,-0.8804,-0.8804,-0.8804,-0.8804,-0.891,-0.8982,-0.8982,-0.8982,-0.8982,-0.8982,-0.8982,-0.9008,-0.9133,-0.8936,-0.8857,-0.8956,-0.8857,-0.8804,-0.8804,-0.8235,-0.7883,-0.7883,-0.7182,-0.6777,-0.6777,-0.6669,-0.6588,-0.6588,-0.6588,-0.6588,-0.6588,-0.5982,-0.5678,-0.2003,-0.1813,-0.2015,-0.2752,-0.544,-0.8579,-1.1082,0.0,0.0,0.0,-1.9459,-1.9497,-1.9497,-2.0302,0.0,-2.213,-2.3111,-2.4023,-2.4915,-2.5244,0.0,-2.4199,-2.4287,-2.4082,-2.3179,-2.3091,-2.2916,-2.2549,-2.2129,-2.1787,-2.1562,-2.1133,-2.0791,-2.0615,-2.0605,-2.0605,-2.0605,-2.038,-1.9912,-1.9287,-1.9053,-1.8623,-1.8008,-1.8008,-1.8008,-1.8008,-1.8008,-1.7716,-1.7285,-1.7285,-1.7285,-1.7285,-1.7285,-1.7022,-1.6557,-1.5334,-1.4318,-1.3391,-1.2173,-1.1507,-1.1233,-1.1632,-1.1756,-1.1756,-1.1756,-1.1476,-1.1163,-1.1163,-1.0895,-1.0519,-1.0194,-1.0083,-0.9937,-0.9351,-0.9098,-0.8951,-0.8838,-0.8804,-0.8804,-0.8804,-0.8804,-0.8804,-0.8804,-0.8804,-0.8804,-0.8804,-0.8804,-0.8804,-0.8804,-0.8804,-0.8804,-0.8804,-0.8804,-0.8804,-0.8804,-0.8804,-0.8646,-0.8262,-0.7889,-0.7536,-0.7155,-0.6421,-0.6036,-0.6036,-0.5687,-0.55,-0.55,-0.55,-0.55,-0.55,-0.514,-0.4976,-0.03,0.0,-0.0396,-0.2003,-0.5278,-0.9059,-1.2852,-1.6211,0.0,0.0,-2.0989,-2.0558,-2.0305,0.0,-2.2245,0.0,-2.346,-2.4316,-2.4404,-2.4785,-2.4793,0.0,-2.416,0.0,-2.3179,-2.3013,-2.2789,-2.2412,-2.1894,-2.1455,-2.1103,-2.0752,-2.0605,-2.0605,-2.0605,-2.0605,-2.0605,-2.0127,-1.9707,-1.9277,-1.8812,-1.8383,-1.8008,-1.8008,-1.8008,-1.7974,-1.7794,-1.7285,-1.6567,-1.6384,-1.628,-1.628,-1.628,-1.5888,-1.521,-1.4345,-1.3123,-1.1807,-1.0922,-1.0593,-1.0593,-1.0593,-1.0593,-1.0593,-1.0593,-1.0593,-1.0593,-1.0593,-1.0593,-1.0512,-1.012,-1.002,-0.9873,-0.9257,-0.8944,-0.8804,-0.8804,-0.8804,-0.8804,-0.8804,-0.8804,-0.8804,-0.8804,-0.8804,-0.8804,-0.8804,-0.8804,-0.8804,-0.8804,-0.8804,-0.8804,-0.8804,-0.8804,-0.8804,-0.8804,-0.8646,-0.8315,-0.775,-0.7396,-0.6961,-0.6394,-0.5683,-0.5296,-0.5296,-0.4759,-0.4491,-0.4491,-0.4491,-0.4491,-0.4491,-0.4491,-0.4491,-0.0049,0.0,-0.0603,-0.3199,-0.6421,-1.0003,-1.3865,0.0,0.0,-2.2306,-2.3413,-2.4018,-2.2984,0.0,0.0,0.0,0.0,-2.3975,0.0,-2.4785,-2.4793,-2.3896,0.0,0.0,-2.3179,-2.275,-2.2402,-2.1982,-2.1202,-2.0703,-2.0664,-2.0625,-2.0605,-2.0605,-2.0605,-2.0605,-2.0605,-2.0127,-1.9707,-1.9277,-1.8812,-1.8383,-1.8008,-1.8008,-1.8008,-1.794,-1.7104,-1.6671,-1.6523,-1.5685,-1.534,-1.534,-1.534,-1.509,-1.4629,-1.3445,-1.2747,-1.2191,-1.0991,-1.0593,-1.0593,-1.0593,-1.0593,-1.0593,-1.0593,-1.0593,-1.0593,-1.0593,-1.0593,-1.0466,-0.9896,-0.9726,-0.9573,-0.8985,-0.8824,-0.8804,-0.8804,-0.8804,-0.8804,-0.8804,-0.8804,-0.8804,-0.8804,-0.8804,-0.8804,-0.8804,-0.8804,-0.8804,-0.8804,-0.8804,-0.8804,-0.8804,-0.8804,-0.8804,-0.8804,-0.8182,-0.7777,-0.7696,-0.6438,-0.5678,-0.5597,-0.4948,-0.4598,-0.4598,-0.4543,-0.4491,-0.4491,-0.4491,-0.4491,-0.4491,-0.4491,-0.4491,-0.1191,-0.1192,-0.2226,-0.6418,-0.9472,-1.2614,-1.7161,0.0,-2.366,-2.4352,-2.464,-2.466,-2.4211,-2.3551,0.0,0.0,0.0,0.0,-2.3578,0.0,-2.4072,-2.3467,-2.3779,-2.3799,-2.3149,-2.2754,-2.2227,-2.1543,-2.0918,-2.0605,-2.0605,-2.0605,-2.0605,-2.0605,-2.0605,-2.0478,-2.0176,-1.9746,-1.9326,-1.8851,-1.8432,-1.813,-1.8008,-1.8008,-1.8008,-1.794,-1.7001,-1.6602,-1.6498,-1.4942,-1.4665,-1.5103,-1.4371,-1.396,-1.3773,-1.2902,-1.2171,-1.1465,-1.0814,-1.0593,-1.0593,-1.0593,-1.0593,-1.0593,-1.0593,-1.0593,-1.0593,-1.0593,-1.0593,-1.0459,-0.9869,-0.9419,-0.9098,-0.8864,-0.8804,-0.8804,-0.8804,-0.8804,-0.8804,-0.8804,-0.8804,-0.8804,-0.8804,-0.8804,-0.8804,-0.8804,-0.8804,-0.8804,-0.8804,-0.8804,-0.8619,-0.8182,-0.8129,-0.8129,-0.8129,-0.745,-0.6853,-0.6411,-0.5814,-0.5324,-0.4924,-0.4653,-0.4491,-0.4491,-0.4491,-0.4491,-0.4491,-0.4491,-0.4491,-0.4491,-0.4491,-0.4491,-0.3159,-0.3697,-0.5409,-1.0236,-1.2888,-1.5482,0.0,-2.3145,-2.5018,-2.5469,-2.5687,-2.5577,-2.4914,-2.4125,-2.3467,0.0,0.0,-2.3052,-2.2925,-2.3437,-2.3633,-2.3149,0.0,-2.3623,-2.314,-2.2646,-2.1963,-2.1103,-2.0742,-2.044,-2.0118,-2.045,-2.044,-2.0118,-2.0314,-2.0062,-1.9411,-1.9219,-1.8936,-1.8598,-1.7918,-1.7579,-1.7579,-1.7579,-1.7579,-1.7535,-1.6602,-1.6349,-1.6419,-1.4199,-1.3882,-1.4641,-1.3456,-1.2903,-1.2686,-1.2262,-1.1593,-1.0835,-1.0667,-1.0593,-1.0593,-1.0593,-1.0593,-1.0593,-1.0593,-1.0593,-1.0573,-1.0486,-1.0332,-1.0104,-0.9659,-0.9185,-0.8804,-0.8804,-0.8804,-0.8725,-0.8507,-0.8646,-0.8725,-0.8507,-0.8646,-0.8804,-0.8804,-0.8804,-0.8804,-0.8804,-0.8804,-0.8804,-0.8804,-0.8619,-0.8262,-0.775,-0.731,-0.7149,-0.7343,-0.6691,-0.6064,-0.5538,-0.5328,-0.5003,-0.4515,-0.4491,-0.4491,-0.4491,-0.4491,-0.4491,-0.4491,-0.4491,-0.4491,-0.4491,-0.4491,-0.4491,-0.6005,-0.7588,-1.0519,-1.4387,-1.6389,-1.8471,0.0,-2.4959,-2.6262,-2.5237,-2.6653,-2.7389,-2.5199,-2.4787,-2.427,-2.2748,0.0,0.0,-2.2578,-2.3252,-2.3633,0.0,-2.3525,-2.3623,-2.314,-2.2383,-2.1523,-2.0674,-2.0605,-2.0118,-1.9076,-2.0001,-2.0118,-1.9036,-1.9592,-1.9411,-1.8323,-1.851,-1.8607,-1.8598,-1.7255,-1.6593,-1.6593,-1.6593,-1.6593,-1.6567,-1.5623,-1.572,-1.6384,-1.3513,-1.2879,-1.3637,-1.2696,-1.1944,-1.143,-1.1423,-1.1062,-1.0593,-1.0593,-1.0593,-1.0593,-1.0593,-1.0593,-1.0593,-1.0593,-1.0593,-1.0526,-1.0207,-0.9677,-0.9224,-0.9217,-0.8998,-0.8804,-0.8804,-0.8804,-0.8586,-0.7857,-0.8289,-0.8593,-0.7857,-0.8295,-0.8804,-0.8804,-0.8804,-0.8804,-0.8804,-0.8804,-0.8804,-0.8804,-0.8156,-0.7696,-0.7696,-0.6384,-0.5814,-0.6561,-0.5928,-0.5515,-0.5515,-0.4869,-0.4519,-0.4491,-0.4491,-0.4491,-0.4491,-0.4491,-0.4491,-0.4491,-0.4491,-0.4491,-0.4491,-0.4491,-0.4491,-1.1318,-1.1856,-1.3596,-1.8114,-1.9359,-2.0254,-2.3221,-2.5276,-2.6514,-2.6174,-2.7164,-2.7884,-2.7186,-2.5817,-2.466,-2.4154,0.0,0.0,0.0,0.0,0.0,-2.311,-2.3008,-2.2754,-2.2324,-2.1777,-2.1201,-2.0644,-1.9923,-1.9362,-1.9036,-1.9323,-1.9194,-1.856,-1.9402,-1.9135,-1.7559,-1.7605,-1.7179,-1.6263,-1.5859,-1.5658,-1.5658,-1.5658,-1.6,-1.6523,-1.4879,-1.5446,-1.7285,-1.3766,-1.3266,-1.451,-1.248,-1.171,-1.1657,-1.1056,-1.0842,-1.0861,-1.066,-1.0593,-1.0593,-1.0593,-1.0452,-1.0254,-1.0254,-1.0254,-1.0194,-0.9907,-0.9511,-0.9211,-0.9211,-0.8998,-0.8804,-0.8804,-0.8804,-0.8593,-0.7857,-0.7883,-0.799,-0.775,-0.7883,-0.8209,-0.8725,-0.8804,-0.8619,-0.8129,-0.8049,-0.7857,-0.7369,-0.7101,-0.6745,-0.6249,-0.5787,-0.5597,-0.5814,-0.5222,-0.4814,-0.4814,-0.4625,-0.4491,-0.4491,-0.4491,-0.4491,-0.4491,-0.4491,-0.4491,-0.4491,-0.4491,-0.4491,-0.4491,-0.4491,-0.4491,0.0,-1.6943,-1.8607,-2.2412,-2.3105,-2.336,-2.5367,-2.6347,-2.6907,-2.7113,-2.7843,-2.8282,-2.7877,-2.6531,-2.5176,-2.4367,-2.3579,0.0,0.0,0.0,0.0,-2.2877,-2.2676,-2.2285,-2.1699,-2.1356,-2.0886,-2.0078,-1.9362,-1.8638,-1.7819,-1.8149,-1.7968,-1.7111,-1.8446,-1.8201,-1.6248,-1.637,-1.6039,-1.5199,-1.4807,-1.4629,-1.4629,-1.4629,-1.4942,-1.5438,-1.4243,-1.4914,0.0,-1.3585,-1.3165,-1.4285,-1.2354,-1.157,-1.1504,-1.0961,-1.0801,-1.0841,-1.0653,-1.0593,-1.0593,-1.0593,-1.0361,-1.0043,-0.9824,-0.9757,-0.9717,-0.9566,-0.9277,-0.9051,-0.9051,-0.8918,-0.8804,-0.8804,-0.8804,-0.8507,-0.7503,-0.7503,-0.753,-0.6983,-0.7095,-0.7423,-0.7883,-0.7969,-0.7803,-0.7343,-0.7289,-0.7128,-0.6669,-0.6367,-0.6009,-0.5542,-0.5273,-0.5136,-0.5136,-0.4732,-0.4491,-0.4491,-0.4491,-0.4491,-0.4491,-0.4491,-0.4491,-0.4491,-0.4491,-0.4491,-0.4491,-0.4491,-0.4491,-0.4491,-0.4491,-0.4491,0.0,-2.2558,-2.4895,-2.6856,-2.7135,-2.7205,-2.8203,-2.7859,0.0,-2.7946,-2.8412,-2.8435,-2.7466,-2.6754,-2.5631,-2.3661,-2.3207,0.0,0.0,-2.2828,-2.2945,-2.2568,-2.248,-2.2139,-2.1278,-2.1121,-2.0478,-1.9112,-1.8838,-1.7859,-1.582,-1.6642,-1.654,-1.5069,-1.6766,-1.6699,-1.4578,-1.4927,-1.5057,-1.4985,-1.4063,-1.36,-1.36,-1.36,-1.3637,-1.3709,-1.3637,-1.4207,-1.5057,-1.3091,-1.2704,-1.3189,-1.2226,-1.149,-1.0989,-1.0969,-1.0821,-1.0593,-1.0593,-1.0593,-1.0586,-1.0546,-1.0294,-0.9917,-0.9351,-0.9191,-0.9211,-0.9184,-0.8991,-0.8804,-0.8804,-0.8804,-0.8804,-0.8804,-0.8752,-0.8321,-0.6912,-0.7101,-0.7149,-0.576,-0.6064,-0.6534,-0.6588,-0.6588,-0.6588,-0.6534,-0.6529,-0.6507,-0.6453,-0.5846,-0.5433,-0.5433,-0.4869,-0.4491,-0.4491,-0.4491,-0.4491,-0.4491,-0.4491,-0.4491,-0.4491,-0.4491,-0.4491,-0.4491,-0.4491,-0.4491,-0.4491,-0.4491,-0.4491,-0.4491,-0.4491,-0.4494,-2.6443,0.0,-2.7011,-2.8252,-2.802,-2.7574,0.0,-2.7589,-2.7354,0.0,0.0,0.0,-2.7278,-2.5616,-2.4145,-2.4008,-2.3209,-2.2627,-2.2519,-2.2828,-2.2945,-2.2568,-2.2227,-2.1826,-2.1249,-2.0184,-1.9384,-1.9045,-1.7447,-1.6273,-1.5745,-1.5944,-1.555,-1.4393,-1.511,-1.5134,-1.4282,-1.413,-1.3702,-1.2981,-1.2732,-1.2629,-1.2629,-1.2629,-1.3025,-1.3673,-1.2952,-1.3593,-1.5057,-1.3091,-1.2704,-1.3167,-1.1992,-1.1309,-1.0969,-1.0774,-1.0646,-1.0593,-1.0593,-1.0593,-1.0519,-1.0064,-0.9686,-0.9351,-0.8991,-0.9038,-0.9164,-0.8944,-0.8858,-0.8804,-0.8804,-0.8804,-0.8804,-0.8804,-0.8374,-0.7696,-0.6804,-0.6281,-0.5923,-0.5565,-0.5651,-0.5928,-0.6507,-0.6588,-0.6421,-0.5846,-0.576,-0.5574,-0.5062,-0.4842,-0.4732,-0.4732,-0.4598,-0.4491,-0.4491,-0.4491,-0.4491,-0.4491,-0.4491,-0.4491,-0.4491,-0.4491,-0.4491,-0.4491,-0.4491,-0.4491,-0.4491,-0.4491,-0.4491,-0.4491,-0.4491,-0.4552,-2.8524,-2.8139,-2.8199,-2.9131,-2.8689,-2.8072,-2.8072,0.0,0.0,0.0,0.0,0.0,0.0,0.0,0.0,-2.3748,-2.3057,-2.2355,-2.2,-2.2467,-2.2461,-2.1466,-2.1495,-2.1204,-2.0271,-1.9461,-1.859,-1.7568,-1.6388,-1.5504,-1.497,-1.4842,-1.4482,-1.3881,-1.3882,-1.3848,-1.3757,-1.3296,-1.2806,-1.2305,-1.2305,-1.2305,-1.2305,-1.2305,-1.2592,-1.3025,-1.2519,-1.2908,-1.3803,-1.2732,-1.2332,-1.2366,-1.1655,-1.1169,-1.0807,-1.0646,-1.0593,-1.0593,-1.0593,-1.0506,-1.0318,-0.9856,-0.9486,-0.9158,-0.8891,-0.8891,-0.8984,-0.8851,-0.8804,-0.8804,-0.8804,-0.8804,-0.8725,-0.8374,-0.7996,-0.7396,-0.6335,-0.5787,-0.5406,-0.5109,-0.503,-0.5167,-0.5578,-0.5637,-0.5496,-0.5113,-0.503,-0.4921,-0.4546,-0.4491,-0.4491,-0.4491,-0.4491,-0.4491,-0.4491,-0.4491,-0.4491,-0.4491,-0.4491,-0.4491,-0.4491,-0.4491,-0.4491,-0.4491,-0.4491,-0.4491,-0.4491,-0.4491,-0.4491,-0.4491,-0.4563,-0.4641,-2.8689,-2.8292,-2.8428,-2.9444,-2.9026,-2.8388,-2.8388,0.0,0.0,0.0,0.0,0.0,0.0,-2.3556,0.0,0.0,-2.2605,-2.1939,-2.115,-2.1599,-2.1423,-1.9911,-2.0333,-2.0195,-1.8873,-1.859,-1.7738,-1.582,-1.5538,-1.5039,-1.4063,-1.374,-1.358,-1.354,-1.3079,-1.2911,-1.3133,-1.2585,-1.2305,-1.2305,-1.2305,-1.2305,-1.2305,-1.2305,-1.2305,-1.2305,-1.2305,-1.2305,-1.2305,-1.2305,-1.1957,-1.1389,-1.1389,-1.1069,-1.0593,-1.0593,-1.0593,-1.0593,-1.0593,-1.0399,-1.0067,-0.978,-0.9486,-0.9158,-0.8891,-0.8804,-0.8804,-0.8804,-0.8804,-0.8804,-0.8804,-0.8804,-0.8619,-0.7883,-0.7616,-0.7149,-0.5783,-0.5433,-0.5191,-0.4598,-0.4491,-0.4491,-0.4491,-0.4491,-0.4491,-0.4491,-0.4491,-0.4491,-0.4491,-0.4491,-0.4491,-0.4491,-0.4491,-0.4491,-0.4491,-0.4491,-0.4491,-0.4491,-0.4491,-0.4491,-0.4491,-0.4491,-0.4491,-0.4491,-0.4491,-0.4491,-0.4491,-0.4491,-0.4491,-0.4494,-0.4648,-0.4704,-2.6271,-2.6202,-2.7187,-2.8714,-2.8465,-2.7822,-2.7822,0.0,0.0,0.0,0.0,0.0,0.0,-2.2196,-2.1678,0.0,-2.1471,-2.0676,-1.9892,-1.9684,-1.9399,-1.8715,-1.8566,-1.8243,-1.7619,-1.6723,-1.6067,-1.5745,-1.4852,-1.4135,-1.3686,-1.3626,-1.3493,-1.3287,-1.2971,-1.2804,-1.2857,-1.2478,-1.2305,-1.2305,-1.2305,-1.2305,-1.2305,-1.2305,-1.2305,-1.2305,-1.2305,-1.2305,-1.2305,-1.2305,-1.1957,-1.1389,-1.1389,-1.1069,-1.0593,-1.0593,-1.0593,-1.0593,-1.0593,-1.0399,-1.0067,-0.978,-0.9486,-0.9158,-0.8891,-0.8804,-0.8804,-0.8804,-0.8804,-0.8804,-0.8804,-0.8804,-0.8619,-0.7883,-0.7235,-0.6529,-0.5678,-0.5054,-0.4625,-0.4515,-0.4491,-0.4491,-0.4491,-0.4491,-0.4491,-0.4491,-0.4491,-0.4491,-0.4491,-0.4491,-0.4491,-0.4491,-0.4491,-0.4491,-0.4491,-0.4491,-0.4491,-0.4491,-0.4491,-0.4491,-0.4491,-0.4491,-0.4491,-0.4491,-0.4491,-0.4491,-0.4491,-0.4491,-0.4491,-0.4494,-0.4648,-0.4762,-2.5188,-2.5111,-2.5732,-2.5953,-2.6145,-2.6166,-2.5911,0.0,0.0,0.0,0.0,0.0,0.0,0.0,-2.0214,-2.0236,-2.0123,-1.9636,-1.8433,-1.8532,-1.8314,-1.7263,-1.7429,-1.7319,-1.6494,-1.5985,-1.5455,-1.4894,-1.437,-1.3955,-1.362,-1.3453,-1.3273,-1.3005,-1.2703,-1.2543,-1.2543,-1.2371,-1.2305,-1.2305,-1.2305,-1.2305,-1.2305,-1.2305,-1.2305,-1.2305,-1.2305,-1.2305,-1.2291,-1.2131,-1.1817,-1.1375,-1.1249,-1.0929,-1.0593,-1.0593,-1.0593,-1.0593,-1.0593,-1.0399,-1.0094,-0.996,-0.9584,-0.9184,-0.9051,-0.8904,-0.8804,-0.8804,-0.8804,-0.8804,-0.8804,-0.8804,-0.8619,-0.7883,-0.7128,-0.6394,-0.5651,-0.4976,-0.4491,-0.4491,-0.4491,-0.4491,-0.4491,-0.4491,-0.4491,-0.4491,-0.4491,-0.4491,-0.4491,-0.4491,-0.4491,-0.4491,-0.4491,-0.4491,-0.4491,-0.4491,-0.4491,-0.4491,-0.4491,-0.4491,-0.4491,-0.4491,-0.4491,-0.4491,-0.4491,-0.4491,-0.4491,-0.4491,-0.4491,-0.4494,-0.4704,-0.4853,-2.4366,-2.4214,-2.4302,-2.2967,0.0,-2.4545,-2.4202,-2.3598,0.0,0.0,0.0,0.0,0.0,-2.0372,-1.9388,-1.8474,-1.8677,-1.8427,-1.6921,-1.7169,-1.7036,-1.5884,-1.619,-1.6239,-1.5421,-1.5338,-1.4977,-1.4166,-1.4021,-1.3854,-1.3513,-1.326,-1.2998,-1.269,-1.2418,-1.2305,-1.2305,-1.2305,-1.2305,-1.2305,-1.2305,-1.2305,-1.2305,-1.2305,-1.2305,-1.2298,-1.2231,-1.2238,-1.2271,-1.1917,-1.163,-1.1362,-1.1102,-1.0847,-1.0593,-1.0593,-1.0593,-1.0593,-1.0593,-1.0445,-1.0207,-1.014,-0.9737,-0.9304,-0.9231,-0.9011,-0.8804,-0.8804,-0.8804,-0.8804,-0.8804,-0.8804,-0.8619,-0.7883,-0.7262,-0.661,-0.5706,-0.5109,-0.4677,-0.4515,-0.4491,-0.4491,-0.4491,-0.4491,-0.4491,-0.4491,-0.4491,-0.4491,-0.4491,-0.4491,-0.4491,-0.4491,-0.4491,-0.4491,-0.4491,-0.4491,-0.4491,-0.4491,-0.4491,-0.4491,-0.4491,-0.4491,-0.4491,-0.4491,-0.4491,-0.4405,-0.4236,-0.4236,-0.4208,-0.4218,-0.4506,-0.4735,-2.341,-2.3097,-2.2915,-2.0707,-2.1887,0.0,-2.3582,-2.2798,0.0,-2.2027,0.0,0.0,0.0,-2.088,-1.9783,-1.7358,-1.716,-1.6868,-1.5383,-1.495,-1.4753,-1.4646,-1.4469,-1.4292,-1.4208,-1.4208,-1.4166,-1.413,-1.3793,-1.3507,-1.326,-1.2985,-1.2683,-1.2345,-1.2311,-1.2305,-1.2305,-1.2305,-1.2305,-1.2305,-1.2305,-1.2305,-1.2305,-1.2305,-1.2305,-1.2285,-1.2053,-1.2051,-1.2258,-1.1655,-1.1409,-1.1362,-1.1102,-1.0847,-1.0593,-1.0593,-1.0593,-1.0593,-1.0593,-1.0579,-1.0512,-1.0207,-0.9907,-0.9599,-0.9297,-0.9011,-0.8804,-0.8804,-0.8804,-0.8804,-0.8804,-0.8804,-0.8619,-0.7883,-0.767,-0.723,-0.5814,-0.546,-0.5246,-0.4625,-0.4491,-0.4491,-0.4491,-0.4491,-0.4491,-0.4491,-0.4491,-0.4491,-0.4491,-0.4491,-0.4491,-0.4491,-0.4491,-0.4491,-0.4491,-0.4491,-0.4491,-0.4491,-0.4491,-0.4491,-0.4491,-0.4491,-0.4491,-0.4491,-0.4491,-0.4153,-0.3483,-0.3428,-0.3398,-0.3405,-0.373,-0.4241,-2.2172,-2.1958,-2.175,-2.0279,-2.0823,0.0,0.0,-2.1171,-2.1116,-2.1116,-2.0857,0.0,0.0,-1.8625,-1.7691,-1.5969,-1.5793,-1.5542,-1.4811,-1.4589,-1.4449,-1.4269,-1.4155,-1.4088,-1.4088,-1.4088,-1.4088,-1.4088,-1.3808,-1.3473,-1.3227,-1.2951,-1.265,-1.2311,-1.2305,-1.2305,-1.2305,-1.2305,-1.2305,-1.2305,-1.2305,-1.2305,-1.2305,-1.2305,-1.2305,-1.2291,-1.2184,-1.2098,-1.2004,-1.1597,-1.1289,-1.1129,-1.0868,-1.0687,-1.0593,-1.0593,-1.0593,-1.0593,-1.0593,-1.0593,-1.0573,-1.0459,-1.0097,-0.9659,-0.9552,-0.9185,-0.8804,-0.8804,-0.8804,-0.8804,-0.8804,-0.8804,-0.8725,-0.8454,-0.8023,-0.7557,-0.6983,-0.614,-0.5433,-0.5164,-0.4787,-0.4491,-0.4491,-0.4491,-0.4491,-0.4491,-0.4491,-0.4491,-0.4491,-0.4491,-0.4491,-0.4491,-0.4491,-0.4491,-0.4491,-0.4491,-0.4491,-0.4491,-0.4491,-0.4491,-0.4491,-0.4491,-0.4491,-0.4491,-0.4042,-0.3649,-0.3345,-0.2843,-0.2843,-0.332,-0.3641,-0.4211,-2.1296,-2.1075,-2.0969,-2.0098,0.0,0.0,-1.9478,-1.9774,-2.0001,-1.9638,-1.9701,-1.9223,-1.7474,-1.6943,-1.6352,-1.493,-1.4807,-1.4723,-1.4422,-1.4382,-1.4309,-1.4115,-1.4088,-1.4088,-1.4088,-1.4001,-1.3948,-1.3948,-1.3581,-1.3273,-1.3073,-1.2811,-1.2549,-1.2311,-1.2305,-1.2305,-1.2305,-1.2305,-1.2305,-1.2305,-1.2305,-1.2305,-1.2305,-1.2305,-1.2251,-1.2164,-1.2164,-1.1997,-1.171,-1.141,-1.1122,-1.0868,-1.0673,-1.0593,-1.0593,-1.0593,-1.0593,-1.0593,-1.0593,-1.0593,-1.0579,-1.0479,-1.0117,-0.9695,-0.9573,-0.9198,-0.8804,-0.8804,-0.8871,-0.8898,-0.8831,-0.8804,-0.8804,-0.8804,-0.8401,-0.799,-0.775,-0.6902,-0.6113,-0.5896,-0.53,-0.4814,-0.4814,-0.4653,-0.4491,-0.4491,-0.4491,-0.4491,-0.4491,-0.4491,-0.4491,-0.4491,-0.4491,-0.4491,-0.4491,-0.4491,-0.4491,-0.4491,-0.4491,-0.4491,-0.4491,-0.4491,-0.4491,-0.4491,-0.3763,-0.3262,-0.2954,-0.2204,-0.2232,-0.2959,-0.3247,-0.3906,-2.0946,-2.0592,-2.0467,0.0,0.0,0.0,-1.8285,-1.8638,-1.8678,-1.7536,-1.7664,-1.7513,-1.5963,-1.6269,-1.6205,-1.4387,-1.4329,-1.4416,-1.4122,-1.4082,-1.4082,-1.4082,-1.4082,-1.4082,-1.4082,-1.3773,-1.36,-1.36,-1.3086,-1.2784,-1.2784,-1.2465,-1.2305,-1.2305,-1.2305,-1.2305,-1.2305,-1.2305,-1.2305,-1.2305,-1.2305,-1.2305,-1.2305,-1.2305,-1.2144,-1.1906,-1.1906,-1.1697,-1.1369,-1.1109,-1.0854,-1.0593,-1.0593,-1.0593,-1.0593,-1.0593,-1.0593,-1.0593,-1.0593,-1.0586,-1.0539,-1.0214,-0.992,-0.9626,-0.9297,-0.9011,-0.8811,-0.8804,-0.8984,-0.9144,-0.8858,-0.8804,-0.8804,-0.8804,-0.8804,-0.8586,-0.7857,-0.7696,-0.7482,-0.675,-0.6009,-0.5487,-0.5487,-0.4948,-0.4491,-0.4491,-0.4491,-0.4491,-0.4491,-0.4491,-0.4491,-0.4491,-0.4491,-0.4491,-0.4491,-0.4491,-0.4491,-0.4491,-0.4491,-0.4491,-0.4491,-0.4491,-0.4491,-0.4491,-0.3763,-0.301,-0.2202,-0.1452,-0.148,-0.2204,-0.2396,-0.3282,-1.98,-1.8964,0.0,-1.8341,0.0,0.0,0.0,-1.7171,0.0,0.0,-1.6811,-1.6223,-1.5794,-1.5246,-1.4745,-1.42,-1.4162,-1.4108,-1.3773,-1.3733,-1.366,-1.3494,-1.3474,-1.3474,-1.3474,-1.3394,-1.33,-1.33,-1.3012,-1.2784,-1.2784,-1.2465,-1.2305,-1.2305,-1.2305,-1.2305,-1.2305,-1.2305,-1.2305,-1.2305,-1.2305,-1.2305,-1.2305,-1.2305,-1.2144,-1.1906,-1.1906,-1.1583,-1.1096,-1.0841,-1.0673,-1.0593,-1.0593,-1.0593,-1.0593,-1.0593,-1.0593,-1.0593,-1.0593,-1.0452,-1.0234,-1.0117,-0.992,-0.9626,-0.9297,-0.9151,-0.9044,-0.8864,-0.8871,-0.8891,-0.8831,-0.8804,-0.8804,-0.8804,-0.8804,-0.8725,-0.8507,-0.8076,-0.7482,-0.675,-0.6009,-0.5351,-0.4869,-0.4625,-0.4491,-0.4491,-0.4491,-0.4491,-0.4491,-0.4491,-0.4491,-0.4491,-0.4491,-0.4491,-0.4491,-0.4491,-0.4491,-0.4491,-0.4491,-0.4491,-0.4491,-0.4491,-0.4491,-0.4491,-0.3231,-0.2426,-0.2202,-0.095,-0.0699,-0.1425,-0.1589,-0.2199,-1.872,-1.7746,0.0,-1.7414,-1.6849,-1.6006,-1.5223,0.0,0.0,0.0,-1.5504,-1.5054,-1.5054,-1.4531,-1.4048,-1.3928,-1.3908,-1.3808,-1.3473,-1.3427,-1.3367,-1.3233,-1.3213,-1.3213,-1.3213,-1.31,-1.3026,-1.3026,-1.2784,-1.2603,-1.2603,-1.2398,-1.2305,-1.2305,-1.2305,-1.2305,-1.2305,-1.2305,-1.2305,-1.2305,-1.2305,-1.2305,-1.2305,-1.2305,-1.2078,-1.1683,-1.1484,-1.1249,-1.0969,-1.0713,-1.0593,-1.0593,-1.0593,-1.0593,-1.0593,-1.0593,-1.0593,-1.0593,-1.0593,-1.0472,-1.0274,-1.0154,-0.992,-0.9626,-0.9297,-0.9131,-0.9004,-0.8858,-0.8891,-0.8924,-0.8838,-0.8865,-0.8924,-0.8838,-0.8804,-0.8804,-0.8804,-0.8454,-0.791,-0.7182,-0.6443,-0.571,-0.503,-0.468,-0.4491,-0.4491,-0.4491,-0.4491,-0.4491,-0.4491,-0.4491,-0.4491,-0.4491,-0.4491,-0.4491,-0.4491,-0.4491,-0.4491,-0.4491,-0.4349,-0.4042,-0.4015,-0.4042,-0.407,-0.2538,-0.1758,-0.1758,-0.0588,-0.0392,-0.109,-0.117,-0.1641,-1.7678,-1.6798,0.0,-1.6902,-1.6065,0.0,-1.4231,-1.4088,-1.4088,-1.4088,-1.4088,-1.4082,-1.4048,-1.4048,-1.3948,-1.3613,-1.356,-1.346,-1.3213,-1.3166,-1.316,-1.3133,-1.3126,-1.3126,-1.3126,-1.2911,-1.2744,-1.2744,-1.2452,-1.2305,-1.2305,-1.2305,-1.2305,-1.2305,-1.2305,-1.2305,-1.2305,-1.2305,-1.2305,-1.2305,-1.2305,-1.2305,-1.2305,-1.2305,-1.1977,-1.1362,-1.0847,-1.074,-1.0929,-1.07,-1.0593,-1.0593,-1.0593,-1.0593,-1.0593,-1.0593,-1.0593,-1.0593,-1.0593,-1.0573,-1.0506,-1.0207,-0.992,-0.9626,-0.9297,-0.9031,-0.8838,-0.8818,-0.8971,-0.9111,-0.8878,-0.8978,-0.9104,-0.8871,-0.8804,-0.8804,-0.8804,-0.8752,-0.848,-0.775,-0.6993,-0.6258,-0.5542,-0.4893,-0.4491,-0.4491,-0.4491,-0.4491,-0.4491,-0.4491,-0.4491,-0.4491,-0.4491,-0.4491,-0.4491,-0.4491,-0.4491,-0.4491,-0.4491,-0.4153,-0.3345,-0.3314,-0.3314,-0.3289,-0.1842,-0.109,-0.109,-0.0364,-0.0336,-0.1006,-0.1006,-0.1369,-1.6229,-1.5378,0.0,0.0,-1.4948,-1.4295,-1.411,-1.4088,-1.4088,-1.4088,-1.4088,-1.4015,-1.374,-1.37,-1.36,-1.3313,-1.3307,-1.32,-1.2924,-1.2884,-1.2797,-1.2525,-1.2498,-1.2498,-1.2498,-1.2438,-1.2398,-1.2398,-1.2338,-1.2305,-1.2305,-1.2305,-1.2305,-1.2305,-1.2305,-1.2305,-1.2305,-1.2305,-1.2305,-1.2305,-1.2305,-1.2305,-1.2305,-1.2305,-1.1977,-1.1362,-1.0847,-1.0626,-1.068,-1.062,-1.0593,-1.0593,-1.0593,-1.0593,-1.0593,-1.0593,-1.0593,-1.0593,-1.0593,-1.0439,-1.02,-1.011,-0.992,-0.9626,-0.9297,-0.9171,-0.9071,-0.8871,-0.8851,-0.8858,-0.8824,-0.8851,-0.8884,-0.8824,-0.8804,-0.8804,-0.8804,-0.8342,-0.7723,-0.6966,-0.6226,-0.5519,-0.4842,-0.4598,-0.4491,-0.4491,-0.4491,-0.4491,-0.4491,-0.4491,-0.4491,-0.4491,-0.4491,-0.4491,-0.4491,-0.4491,-0.4491,-0.4491,-0.4491,-0.4153,-0.34,-0.3372,-0.3093,-0.2482,-0.1563,-0.109,-0.109,-0.0364,-0.0084,-0.0224,-0.0224,-0.0308,-1.5766,0.0,0.0,-1.4464,0.0,-1.4088,-1.4088,-1.4088,-1.4048,-1.3901,-1.3874,-1.3788,-1.3447,-1.34,-1.334,-1.3033,-1.3025,-1.2918,-1.261,-1.2569,-1.2516,-1.2318,-1.2305,-1.2305,-1.2305,-1.2305,-1.2305,-1.2305,-1.2305,-1.2305,-1.2305,-1.2305,-1.2305,-1.2305,-1.2305,-1.2305,-1.2305,-1.2305,-1.2305,-1.2305,-1.2305,-1.2305,-1.2298,-1.2158,-1.185,-1.1369,-1.0962,-1.072,-1.0593,-1.0593,-1.0593,-1.0593,-1.0593,-1.0593,-1.0593,-1.0593,-1.0593,-1.0593,-1.0593,-1.0492,-1.0327,-1.0327,-1.0134,-0.9833,-0.9539,-0.9324,-0.9151,-0.8865,-0.8804,-0.8804,-0.8804,-0.8804,-0.8804,-0.8804,-0.8804,-0.8804,-0.8804,-0.8209,-0.7482,-0.675,-0.6009,-0.5296,-0.4625,-0.4491,-0.4491,-0.4491,-0.4491,-0.4491,-0.4491,-0.4491,-0.4491,-0.4491,-0.4491,-0.4491,-0.4491,-0.4491,-0.4491,-0.4491,-0.4491,-0.4181,-0.3428,-0.3037,-0.2454,-0.1675,-0.095,-0.056,-0.056,-0.0532,-0.0532,-0.0532,-0.0895,-0.0866,-1.5777,0.0,-1.334,-1.3881,-1.4008,0.0,-1.4075,-1.4088,-1.3988,-1.36,-1.3567,-1.35,-1.3193,-1.3133,-1.3026,-1.2757,-1.2703,-1.2623,-1.2338,-1.2305,-1.2305,-1.2305,-1.2305,-1.2305,-1.2305,-1.2305,-1.2305,-1.2305,-1.2305,-1.2305,-1.2305,-1.2305,-1.2305,-1.2305,-1.2305,-1.2305,-1.2305,-1.2305,-1.2305,-1.2305,-1.2305,-1.2305,-1.2291,-1.2004,-1.171,-1.1375,-1.1122,-1.0861,-1.0593,-1.0593,-1.0593,-1.0593,-1.0593,-1.0593,-1.0593,-1.0593,-1.0593,-1.0593,-1.0593,-1.0593,-1.0593,-1.0593,-1.0361,-1.0074,-0.9833,-0.9519,-0.9171,-0.9011,-0.8918,-0.8858,-0.8858,-0.8858,-0.8871,-0.8818,-0.8804,-0.8804,-0.8804,-0.8129,-0.7316,-0.6723,-0.59,-0.5164,-0.4598,-0.4491,-0.4491,-0.4491,-0.4491,-0.4491,-0.4491,-0.4491,-0.4491,-0.4491,-0.4491,-0.4491,-0.4491,-0.4491,-0.4491,-0.4491,-0.4491,-0.4153,-0.34,-0.2619,-0.1842,-0.1118,-0.0364,0.0,0.0,-0.0727,-0.109,-0.1118,-0.187,-0.1814,0.0,0.0,-1.3293,0.0,-1.366,-1.3726,0.0,0.0,-1.3928,-1.338,-1.3427,-1.3433,-1.2951,-1.2844,-1.275,-1.2412,-1.2365,-1.2345,-1.2311,-1.2305,-1.2305,-1.2305,-1.2305,-1.2305,-1.2305,-1.2305,-1.2305,-1.2305,-1.2305,-1.2305,-1.2305,-1.2305,-1.2305,-1.2305,-1.2305,-1.2305,-1.2305,-1.2305,-1.2305,-1.2305,-1.2305,-1.2305,-1.2291,-1.2004,-1.171,-1.1375,-1.1122,-1.0861,-1.0593,-1.0593,-1.0593,-1.0593,-1.0593,-1.0593,-1.0593,-1.0593,-1.0593,-1.0593,-1.0593,-1.0593,-1.0593,-1.0593,-1.0361,-1.0077,-1.0067,-0.9644,-0.9257,-0.9506,-0.9379,-0.9158,-0.9158,-0.9158,-0.9091,-0.8871,-0.8804,-0.8804,-0.8804,-0.7723,-0.6723,-0.6615,-0.5523,-0.4598,-0.4519,-0.4491,-0.4491,-0.4491,-0.4491,-0.4491,-0.4491,-0.4491,-0.4491,-0.4491,-0.4491,-0.4491,-0.4491,-0.4491,-0.4491,-0.4491,-0.4491,-0.4153,-0.3345,-0.2591,-0.1842,-0.1118,-0.0364,0.0,0.0,-0.0727,-0.109,-0.1118,-0.187,-0.1814,-1.6191,-1.4454,-1.3422,0.0,-1.36,-1.368,-1.4021,-1.4088,-1.3748,-1.2593,-1.2453,-1.2359,-1.179,-1.2148,-1.2302,-1.1564,-1.1922,-1.2305,-1.2305,-1.2305,-1.2305,-1.2305,-1.2305,-1.2305,-1.2305,-1.2305,-1.2305,-1.2305,-1.2305,-1.2305,-1.2305,-1.2305,-1.2305,-1.2305,-1.2305,-1.2305,-1.2305,-1.2305,-1.2305,-1.2305,-1.2305,-1.2218,-1.2058,-1.196,-1.171,-1.1375,-1.1122,-1.0861,-1.0593,-1.0593,-1.0593,-1.0593,-1.0593,-1.0593,-1.0593,-1.0593,-1.0593,-1.0593,-1.0593,-1.0593,-1.0593,-1.0593,-1.0506,-1.0334,-1.0167,-0.991,-0.969,-0.9693,-0.9593,-0.9486,-0.9486,-0.9337,-0.9178,-0.9051,-0.8898,-0.8804,-0.8804,-0.7643,-0.6372,-0.5578,-0.4928,-0.4491,-0.4491,-0.4491,-0.4491,-0.4491,-0.4491,-0.4491,-0.4491,-0.4491,-0.4491,-0.4491,-0.4491,-0.4491,-0.4491,-0.4491,-0.4491,-0.4491,-0.4491,-0.4349,-0.3984,-0.3231,-0.2676,-0.2343,-0.0783,-0.0196,-0.0615,-0.1369,-0.1952,-0.2399,-0.2732,-0.2454,0.0,0.0,-1.3659,-1.3577,-1.3541,-1.3573,0.0,-1.4035,-1.3726,-1.2432,-1.191,-1.1441,-1.0667,-1.1067,-1.1397,-1.0901,-1.1428,-1.1996,-1.2261,-1.2305,-1.2305,-1.2305,-1.2305,-1.2305,-1.2305,-1.2305,-1.2305,-1.2305,-1.2305,-1.2305,-1.2305,-1.2305,-1.2305,-1.2305,-1.2305,-1.2305,-1.2305,-1.2305,-1.2305,-1.2305,-1.2305,-1.2191,-1.2013,-1.1824,-1.1637,-1.1375,-1.1122,-1.0861,-1.0593,-1.0593,-1.0593,-1.0593,-1.0593,-1.0593,-1.0593,-1.0593,-1.0593,-1.0593,-1.0593,-1.0593,-1.0593,-1.0593,-1.0593,-1.0553,-1.0294,-1.0174,-1.0087,-0.9976,-0.9883,-0.9793,-0.9793,-0.9626,-0.9417,-0.9344,-0.9104,-0.8838,-0.8579,-0.7503,-0.6231,-0.5007,-0.4625,-0.4491,-0.4491,-0.4491,-0.4491,-0.4491,-0.4491,-0.4491,-0.4491,-0.4491,-0.4491,-0.4491,-0.4491,-0.4491,-0.4491,-0.4491,-0.4491,-0.4491,-0.4491,-0.4491,-0.4491,-0.3732,-0.3314,-0.3317,-0.1507,-0.0838,-0.1368,-0.212,-0.2704,-0.3095,-0.3317,-0.2871,0.0,-1.5285,0.0,-1.3607,-1.3373,-1.3307,-1.356,-1.3881,-1.3995,-1.3558,-1.2535,-1.1295,-1.0003,-0.9591,-0.9744,-1.0634,-1.082,-1.1199,-1.215,-1.2305,-1.2305,-1.2305,-1.2305,-1.2305,-1.2305,-1.2305,-1.2305,-1.2305,-1.2305,-1.2305,-1.2305,-1.2305,-1.2305,-1.2305,-1.2305,-1.2305,-1.2305,-1.2305,-1.2305,-1.2305,-1.2305,-1.2291,-1.2265,-1.1703,-1.1409,-1.1375,-1.1122,-1.0861,-1.0593,-1.0593,-1.0593,-1.0593,-1.0593,-1.0593,-1.0593,-1.0593,-1.0593,-1.0593,-1.0593,-1.0593,-1.0593,-1.0593,-1.0593,-1.0586,-1.0573,-1.0341,-1.0174,-1.0472,-1.0314,-1.0094,-1.0094,-1.0087,-1.0,-0.9726,-0.9432,-0.8919,-0.7964,-0.7155,-0.6367,-0.5597,-0.4921,-0.4491,-0.4491,-0.4491,-0.4491,-0.4491,-0.4491,-0.4491,-0.4491,-0.4491,-0.4491,-0.4491,-0.4491,-0.4491,-0.4491,-0.4491,-0.4491,-0.4491,-0.4491,-0.4491,-0.4491,-0.3732,-0.3345,-0.34,-0.2536,-0.2093,-0.2148,-0.2871,-0.2899,-0.2286,-0.3037,-0.2593,0.0,0.0,0.0,-1.4449,-1.3948,-1.3487,-1.2682,-1.2745,-1.2481,-1.0789,-0.9982,-0.9192,-0.7884,-0.8556,-0.9221,-0.8912,-0.9959,-1.0938,-1.1279,-1.1885,-1.2305,-1.2305,-1.2305,-1.2305,-1.2305,-1.2305,-1.2305,-1.2305,-1.2305,-1.2305,-1.2305,-1.2305,-1.2305,-1.2305,-1.2305,-1.2305,-1.2305,-1.2305,-1.2305,-1.2305,-1.2305,-1.2204,-1.2047,-1.161,-1.1323,-1.1129,-1.0874,-1.0687,-1.0593,-1.0593,-1.0593,-1.0593,-1.0593,-1.0593,-1.0593,-1.0593,-1.0593,-1.0593,-1.0593,-1.0593,-1.0593,-1.0593,-1.0593,-1.0593,-1.0593,-1.0519,-1.0452,-1.0566,-1.0512,-1.0432,-1.0432,-0.9841,-0.9041,-0.822,-0.7885,-0.7622,-0.7255,-0.6514,-0.5683,-0.5003,-0.4653,-0.4491,-0.4491,-0.4491,-0.4491,-0.4491,-0.4491,-0.4491,-0.4491,-0.4491,-0.4491,-0.4491,-0.4491,-0.4491,-0.4491,-0.4491,-0.4491,-0.4491,-0.4491,-0.4491,-0.4491,-0.4236,-0.407,-0.4098,-0.3818,-0.3176,-0.2202,-0.2454,-0.2454,-0.2202,-0.2009,-0.1619,-1.944,0.0,0.0,0.0,-1.4627,-1.3829,-1.287,-1.2333,-1.1581,-1.0082,-0.9027,-0.8159,-0.7281,-0.7787,-0.8199,-0.7859,-0.8908,-0.9922,-1.0265,-1.1168,-1.1805,-1.1805,-1.207,-1.2305,-1.2305,-1.2305,-1.2305,-1.2305,-1.2305,-1.2305,-1.2305,-1.2305,-1.2305,-1.2305,-1.2305,-1.2305,-1.2305,-1.2305,-1.2305,-1.2305,-1.2305,-1.2151,-1.1893,-1.1563,-1.1269,-1.0982,-1.072,-1.0593,-1.0593,-1.0593,-1.0593,-1.0593,-1.0593,-1.0593,-1.0593,-1.0593,-1.0593,-1.0593,-1.0593,-1.0593,-1.0593,-1.0593,-1.0593,-1.0593,-1.0593,-1.0593,-1.0593,-1.0593,-1.0593,-1.0593,-1.0593,-0.98,-0.868,-0.7522,-0.6967,-0.67,-0.6629,-0.6029,-0.5378,-0.4921,-0.4653,-0.4491,-0.4491,-0.4491,-0.4491,-0.4491,-0.4491,-0.4491,-0.4491,-0.4491,-0.4491,-0.4491,-0.4491,-0.4491,-0.4491,-0.4491,-0.4491,-0.4491,-0.4491,-0.4491,-0.4491,-0.4491,-0.4377,-0.4125,-0.4125,-0.3372,-0.184,-0.2343,-0.2343,-0.1813,-0.134,-0.0978,0.0,0.0,0.0,0.0,-1.5346,-1.4234,-1.4163,-1.2758,-1.1531,-1.1758,-0.9957,-0.8343,-0.8348,-0.7243,-0.6609,-0.7595,-0.7783,-0.8122,-0.9107,-1.0115,-1.0746,-1.0746,-1.1657,-1.2261,-1.2261,-1.2261,-1.2305,-1.2305,-1.2305,-1.2305,-1.2305,-1.2305,-1.2305,-1.2305,-1.2305,-1.2305,-1.2305,-1.2305,-1.2305,-1.2305,-1.2305,-1.2151,-1.1893,-1.1563,-1.1269,-1.0982,-1.072,-1.0593,-1.0593,-1.0593,-1.0593,-1.0593,-1.0593,-1.0593,-1.0593,-1.0593,-1.0593,-1.0593,-1.0593,-1.0593,-1.0593,-1.0593,-1.0593,-1.0593,-1.0593,-1.0593,-1.0593,-1.0593,-1.0593,-1.0593,-1.0561,-0.9913,-0.8948,-0.7751,-0.6916,-0.6274,-0.603,-0.5702,-0.5469,-0.5469,-0.4952,-0.4491,-0.4491,-0.4491,-0.4491,-0.4491,-0.4491,-0.4491,-0.4491,-0.4491,-0.4491,-0.4491,-0.4491,-0.4491,-0.4491,-0.4491,-0.4491,-0.4491,-0.4491,-0.4491,-0.4491,-0.4487,-0.4125,-0.34,-0.3372,-0.2621,-0.109,-0.2593,-0.2565,-0.1062,-0.1062,-0.0671,-2.0825,0.0,0.0,0.0,0.0,0.0,-1.3624,-1.1963,-1.0473,-0.9426,-0.799,-0.6918,-0.6991,-0.6704,-0.6498,-0.6701,-0.7326,-0.7897,-0.8161,-0.9064,-0.9707,-0.9707,-1.0602,-1.1199,-1.1199,-1.1879,-1.2305,-1.2305,-1.2305,-1.2305,-1.2305,-1.2305,-1.2305,-1.2305,-1.2305,-1.2305,-1.2305,-1.2305,-1.2305,-1.2305,-1.2305,-1.2151,-1.1893,-1.1563,-1.1269,-1.0982,-1.072,-1.0593,-1.0593,-1.0593,-1.0593,-1.0593,-1.0593,-1.0593,-1.0593,-1.0593,-1.0593,-1.0593,-1.0593,-1.0593,-1.0593,-1.0593,-1.0593,-1.0593,-1.0593,-1.0593,-1.0593,-1.0593,-1.0593,-1.046,-0.9817,-0.9005,-0.8108,-0.7141,-0.6161,-0.5402,-0.5251,-0.5052,-0.4908,-0.4908,-0.4703,-0.4491,-0.4491,-0.4491,-0.4491,-0.4491,-0.4491,-0.4491,-0.4491,-0.4491,-0.4491,-0.4491,-0.4491,-0.4491,-0.4491,-0.4491,-0.4491,-0.4491,-0.4491,-0.4491,-0.4491,-0.3932,-0.3566,-0.34,-0.2815,-0.2063,-0.109,-0.1535,-0.1229,-0.0308,-0.0308,-0.0196,0.0,0.0,0.0,0.0,0.0,0.0,-1.4364,-1.24,-1.0464,-0.9037,-0.7807,-0.6917,-0.6574,-0.6463,-0.6416,-0.6392,-0.6835,-0.7176,-0.7176,-0.805,-0.8694,-0.8694,-0.9556,-1.034,-1.0746,-1.1316,-1.1848,-1.2268,-1.2305,-1.2245,-1.2131,-1.2004,-1.1937,-1.1937,-1.1937,-1.1997,-1.2124,-1.2124,-1.2184,-1.2305,-1.2178,-1.1971,-1.167,-1.1383,-1.1089,-1.0834,-1.0667,-1.0593,-1.0593,-1.0593,-1.0593,-1.0593,-1.0593,-1.0593,-1.0593,-1.0593,-1.0593,-1.0593,-1.0593,-1.0593,-1.0593,-1.0593,-1.0593,-1.0593,-1.0593,-1.0593,-1.0593,-1.0593,-1.0593,-1.0396,-0.953,-0.8646,-0.7762,-0.6915,-0.5933,-0.5203,-0.5121,-0.4982,-0.4819,-0.4658,-0.4552,-0.4491,-0.4491,-0.4491,-0.4491,-0.4491,-0.4491,-0.4491,-0.4491,-0.4491,-0.4491,-0.4491,-0.4491,-0.4491,-0.4491,-0.4491,-0.4491,-0.4491,-0.4491,-0.4491,-0.4491,-0.3732,-0.3176,-0.2899,-0.2148,-0.1368,-0.0643,-0.095,-0.0727,0.0,0.0,0.0,-2.1875,-2.1245,0.0,0.0,-1.8041,0.0,-1.5886,-1.363,-1.1323,-1.0073,-0.8932,-0.7883,-0.7014,-0.6631,-0.6443,-0.6419,-0.6267,-0.6191,-0.6308,-0.7084,-0.7646,-0.7687,-0.855,-0.9516,-1.0412,-1.0674,-1.1198,-1.2077,-1.2224,-1.2178,-1.1919,-1.1617,-1.1422,-1.1389,-1.1389,-1.155,-1.1852,-1.1893,-1.202,-1.2204,-1.2013,-1.1697,-1.1335,-1.1109,-1.0835,-1.0593,-1.0593,-1.0593,-1.0593,-1.0593,-1.0593,-1.0593,-1.0593,-1.0593,-1.0593,-1.0593,-1.0593,-1.0593,-1.0593,-1.0593,-1.0593,-1.0593,-1.0593,-1.0593,-1.0593,-1.0593,-1.0593,-1.0593,-1.0593,-1.0428,-0.9658,-0.8716,-0.78,-0.7046,-0.6108,-0.5388,-0.5375,-0.5226,-0.4975,-0.4624,-0.4528,-0.4515,-0.4515,-0.4515,-0.4508,-0.4491,-0.4505,-0.4508,-0.4491,-0.4491,-0.4491,-0.4491,-0.4491,-0.4491,-0.4491,-0.4491,-0.4491,-0.4491,-0.4491,-0.4491,-0.4491,-0.3732,-0.2954,-0.2204,-0.1396,-0.0643,0.0,-0.0671,-0.0643,0.0,0.0,0.0,-2.1875,-2.1245,-2.0623,-1.9898,-1.8999,0.0,-1.6895,-1.5006,-1.3191,-1.2058,-1.0394,-0.9114,-0.9024,-0.8096,-0.7041,-0.6089,-0.5517,-0.5501,-0.6491,-0.6608,-0.6659,-0.6909,-0.7693,-0.8343,-0.8535,-1.0009,-1.1012,-1.1105,-1.1842,-1.2178,-1.1919,-1.1852,-1.167,-1.1395,-1.1389,-1.1422,-1.151,-1.1785,-1.1777,-1.1562,-1.1784,-1.1625,-1.1076,-1.1015,-1.0835,-1.0593,-1.0593,-1.0593,-1.0593,-1.0593,-1.0593,-1.0593,-1.0593,-1.0593,-1.0593,-1.0593,-1.0593,-1.0593,-1.0593,-1.0593,-1.0593,-1.0593,-1.0593,-1.0593,-1.0593,-1.0593,-1.0593,-1.0593,-1.0593,-1.0561,-1.0396,-0.9192,-0.7962,-0.78,-0.6535,-0.5361,-0.5203,-0.512,-0.5039,-0.4867,-0.4731,-0.4646,-0.4646,-0.4646,-0.4634,-0.4508,-0.4597,-0.4631,-0.4505,-0.4491,-0.4491,-0.4491,-0.4491,-0.4491,-0.4491,-0.4491,-0.4491,-0.4491,-0.4491,-0.4491,-0.4491,-0.3732,-0.2954,-0.2204,-0.0895,-0.014,0.0,-0.014,-0.014,0.0,0.0,0.0,-2.1792,-2.1245,-2.0646,-1.9978,-1.9254,0.0,0.0,-1.641,-1.4976,-1.3282,-1.2138,-1.1056,-0.9823,-0.9051,-0.8162,-0.6921,-0.5921,-0.5465,-0.5871,-0.5708,-0.5882,-0.6599,-0.7046,-0.7493,-0.8059,-0.8969,-0.9875,-1.0836,-1.1649,-1.2024,-1.1913,-1.1625,-1.1363,-1.1216,-1.1069,-1.1062,-1.1209,-1.1503,-1.165,-1.165,-1.165,-1.1496,-1.1196,-1.0909,-1.0727,-1.0593,-1.0593,-1.0593,-1.0593,-1.0593,-1.0593,-1.0593,-1.0593,-1.0593,-1.0593,-1.0593,-1.0593,-1.0593,-1.0593,-1.0593,-1.0593,-1.0593,-1.0593,-1.0593,-1.0593,-1.0593,-1.0593,-1.0593,-1.0593,-1.0593,-1.0593,-0.932,-0.7994,-0.7994,-0.6662,-0.5375,-0.526,-0.5247,-0.5226,-0.5155,-0.5016,-0.4887,-0.4816,-0.4806,-0.4752,-0.4627,-0.4672,-0.4665,-0.4508,-0.4491,-0.4491,-0.4491,-0.4491,-0.4491,-0.4491,-0.4491,-0.4491,-0.4491,-0.4491,-0.4491,-0.4491,-0.3732,-0.2788,-0.1675,-0.0923,-0.0364,0.0,0.0,0.0,0.0,0.0,0.0,-2.1708,-2.1188,-2.0515,-1.9953,-1.9259,-1.8638,0.0,0.0,0.0,-1.4684,-1.3933,-1.3018,-1.1076,-1.0341,-0.9586,-0.8112,-0.6818,-0.5881,-0.56,-0.5325,-0.5455,-0.6277,-0.6491,-0.6919,-0.7831,-0.7958,-0.8751,-1.059,-1.131,-1.1667,-1.1615,-1.1314,-1.1109,-1.0995,-1.0801,-1.076,-1.0909,-1.1249,-1.1516,-1.1732,-1.1516,-1.1362,-1.1323,-1.0827,-1.0593,-1.0593,-1.0593,-1.0593,-1.0593,-1.0593,-1.0593,-1.0593,-1.0593,-1.0593,-1.0593,-1.0593,-1.0593,-1.0593,-1.0593,-1.0593,-1.0593,-1.0593,-1.0593,-1.0593,-1.0593,-1.0593,-1.0593,-1.0593,-1.0593,-1.0593,-1.0593,-0.932,-0.7994,-0.7994,-0.6662,-0.5395,-0.5395,-0.5395,-0.5395,-0.5395,-0.526,-0.5096,-0.4955,-0.4908,-0.4877,-0.4755,-0.4711,-0.4646,-0.4549,-0.4508,-0.4491,-0.4491,-0.4491,-0.4491,-0.4491,-0.4491,-0.4491,-0.4491,-0.4491,-0.4491,-0.4491,-0.3732,-0.2732,-0.1535,-0.1257,-0.0811,-0.0224,-0.0056,0.0,0.0,0.0,0.0,-2.1708,-2.0914,-2.0029,-1.9851,-1.9371,-1.8906,-1.8679,0.0,-1.7462,-1.7205,0.0,-1.4234,-1.4588,0.0,0.0,-0.923,-0.7667,-0.6801,-0.7162,-0.6557,-0.5866,-0.5339,-0.6204,-0.6873,-0.6874,-0.7559,-0.8475,-0.9571,-1.0447,-1.0832,-1.0563,-1.133,-1.1564,-1.1009,-1.0962,-1.0868,-1.064,-1.1149,-1.1316,-1.1096,-1.1282,-1.1289,-1.1035,-1.074,-1.0593,-1.0593,-1.0593,-1.0593,-1.0593,-1.0593,-1.0593,-1.0593,-1.0593,-1.0593,-1.0593,-1.0593,-1.0593,-1.0593,-1.0593,-1.0593,-1.0593,-1.0593,-1.0593,-1.0593,-1.0593,-1.0593,-1.0593,-1.0593,-1.0593,-1.0593,-1.0593,-0.932,-0.7994,-0.7994,-0.6662,-0.5395,-0.5395,-0.5395,-0.5395,-0.5395,-0.5382,-0.532,-0.51,-0.4972,-0.4884,-0.4867,-0.4775,-0.4684,-0.4667,-0.4576,-0.4491,-0.4491,-0.4491,-0.4491,-0.4491,-0.4491,-0.4491,-0.4491,-0.4491,-0.4491,-0.4491,-0.3732,-0.3231,-0.3065,-0.1758,-0.1062,-0.0978,-0.0308,0.0,0.0,0.0,0.0,-2.1592,-2.0588,-1.9466,-1.9749,-1.9384,-1.9058,-1.9287,-1.8867,-1.8287,-1.7871,0.0,0.0,0.0,0.0,0.0,0.0,-1.1522,-1.0482,-0.9906,-0.9189,-0.8524,-0.7837,-0.7644,-0.7323,-0.674,-0.7572,-0.829,-0.8729,-0.9483,-1.0146,-1.0594,-1.0888,-1.1172,-1.151,-1.1336,-1.1182,-1.1062,-1.1476,-1.1623,-1.1538,-1.145,-1.1329,-1.1229,-1.0801,-1.0593,-1.0593,-1.0593,-1.0593,-1.0593,-1.0593,-1.0593,-1.0593,-1.0593,-1.0593,-1.0593,-1.0593,-1.0593,-1.0593,-1.0593,-1.0593,-1.0593,-1.0593,-1.0593,-1.0593,-1.0593,-1.0593,-1.0593,-1.0593,-1.0593,-1.0593,-1.0593,-0.932,-0.7994,-0.7994,-0.6662,-0.5395,-0.5395,-0.5395,-0.5395,-0.5395,-0.5395,-0.5375,-0.5277,-0.5213,-0.5145,-0.5022,-0.4955,-0.4914,-0.4833,-0.4765,-0.4728,-0.4728,-0.465,-0.4624,-0.4624,-0.4542,-0.4491,-0.4491,-0.4491,-0.4491,-0.4491,-0.4181,-0.3566,-0.2676,-0.2063,-0.1312,-0.0448,-0.014,0.0,0.0,0.0,0.0,-2.1035,-2.0133,-1.9214,-1.9902,-1.9797,-1.9587,-1.9812,-1.9396,-1.8883,-1.8535,-1.8146,0.0,0.0,0.0,-1.7587,-1.6399,0.0,-1.4152,-1.3262,-1.2417,-1.1419,-1.0187,-0.9094,-0.7962,-0.6812,-0.7353,-0.7778,-0.7731,-0.8698,-0.9631,-1.034,-1.0723,-1.1213,-1.187,-1.1657,-1.151,-1.1389,-1.1724,-1.1906,-1.1899,-1.1563,-1.1389,-1.1375,-1.0854,-1.0593,-1.0593,-1.0593,-1.0593,-1.0593,-1.0593,-1.0593,-1.0593,-1.0593,-1.0593,-1.0593,-1.0593,-1.0593,-1.0593,-1.0593,-1.0593,-1.0593,-1.0593,-1.0593,-1.0593,-1.0593,-1.0593,-1.0593,-1.0593,-1.0593,-1.053,-1.0301,-0.9128,-0.7929,-0.7697,-0.6502,-0.5395,-0.5395,-0.5395,-0.5395,-0.5395,-0.5395,-0.5395,-0.5395,-0.5358,-0.5274,-0.5206,-0.5093,-0.5019,-0.4955,-0.4914,-0.4887,-0.4887,-0.4819,-0.4755,-0.4755,-0.4641,-0.4535,-0.4494,-0.4491,-0.4491,-0.4491,-0.4491,-0.3873,-0.2565,-0.2313,-0.1563,-0.0308,-0.0112,0.0,0.0,0.0,0.0,-1.9731,-1.9585,-1.9367,-2.0481,-2.0803,-2.0694,-2.0117,-1.9433,-1.9103,-1.9782,-1.8783,-1.8523,-2.0823,-2.0257,0.0,0.0,0.0,0.0,0.0,-1.607,-1.4114,-1.1273,-1.0106,-0.8797,-0.6902,-0.674,-0.6678,-0.6568,-0.8271,-0.9301,-0.9334,-1.1205,-1.2121,-1.1913,-1.1893,-1.1717,-1.1395,-1.1724,-1.1906,-1.1899,-1.1563,-1.1389,-1.1375,-1.0854,-1.0593,-1.0593,-1.0593,-1.0593,-1.0593,-1.0593,-1.0593,-1.0593,-1.0593,-1.0593,-1.0593,-1.0593,-1.0593,-1.0593,-1.0593,-1.0593,-1.0593,-1.0593,-1.0593,-1.0593,-1.0593,-1.0593,-1.0593,-1.0593,-1.0593,-1.0396,-0.9562,-0.8678,-0.78,-0.6948,-0.6042,-0.5395,-0.5395,-0.5395,-0.5395,-0.5395,-0.5395,-0.5395,-0.5395,-0.5237,-0.5186,-0.5365,-0.5111,-0.4941,-0.5073,-0.4972,-0.4887,-0.4887,-0.4884,-0.4881,-0.4881,-0.4772,-0.4648,-0.4498,-0.4491,-0.4491,-0.4491,-0.4491,-0.4153,-0.3372,-0.2593,-0.1813,-0.1062,-0.0336,0.0,0.0,0.0,0.0,-1.9294,-1.8708,-1.8338,-1.989,-1.9687,-1.9369,-2.0311,-1.9678,-1.9097,-1.9804,-1.9529,-1.9818,-2.1823,-2.2176,0.0,0.0,0.0,0.0,0.0,-1.9701,-1.8081,-1.4897,-1.3428,-1.1872,-0.9705,-0.9488,-0.9192,-0.8519,-0.916,-0.9794,-1.0276,-1.1111,-1.174,-1.2164,-1.2151,-1.2104,-1.2004,-1.2104,-1.2094,-1.1899,-1.1563,-1.1323,-1.1129,-1.0767,-1.0593,-1.0593,-1.0593,-1.0593,-1.0593,-1.0593,-1.0593,-1.0593,-1.0593,-1.0593,-1.0593,-1.0593,-1.0593,-1.0593,-1.0593,-1.0593,-1.0593,-1.0593,-1.0593,-1.0593,-1.0593,-1.0593,-1.0593,-1.0593,-1.0593,-1.0396,-0.953,-0.8646,-0.7762,-0.6915,-0.6042,-0.5395,-0.5395,-0.5395,-0.5395,-0.5395,-0.5395,-0.5395,-0.5395,-0.5351,-0.5334,-0.5388,-0.531,-0.5262,-0.5277,-0.5272,-0.5242,-0.5242,-0.5121,-0.5026,-0.5026,-0.4894,-0.4775,-0.4651,-0.4641,-0.4641,-0.4641,-0.4545,-0.3971,-0.2824,-0.2398,-0.1591,-0.0364,-0.0115,0.0,0.0,0.0,0.0,-1.8429,-1.8122,-1.8038,-1.9361,-1.9257,-1.9173,-2.029,-1.9915,-1.9509,-2.0125,-2.0442,-2.1061,-2.2513,-2.3197,-2.3573,0.0,0.0,0.0,0.0,-2.1904,-2.0886,-1.8377,-1.6636,-1.4533,-1.1784,-1.1596,-1.1193,-1.0158,-1.0335,-1.0691,-1.1103,-1.1532,-1.2005,-1.2465,-1.2358,-1.2305,-1.2305,-1.2305,-1.2204,-1.2053,-1.1617,-1.1295,-1.1136,-1.0774,-1.0593,-1.0593,-1.0593,-1.0593,-1.0593,-1.0593,-1.0593,-1.0593,-1.0593,-1.0593,-1.0593,-1.0593,-1.0593,-1.0593,-1.0593,-1.0593,-1.0593,-1.0593,-1.0593,-1.0593,-1.0593,-1.0593,-1.0593,-1.0593,-1.0593,-1.0396,-0.953,-0.8646,-0.7762,-0.6915,-0.6042,-0.5395,-0.5395,-0.5395,-0.5395,-0.5395,-0.5395,-0.5395,-0.5395,-0.5395,-0.5395,-0.5395,-0.5395,-0.5395,-0.5395,-0.5395,-0.5395,-0.5395,-0.5274,-0.5189,-0.5103,-0.5015,-0.4901,-0.4782,-0.4772,-0.4772,-0.4772,-0.4677,-0.3967,-0.2534,-0.2366,-0.1553,0.0,0.0,0.0,0.0,0.0,0.0]},{"header":{"parameterUnit":"m.s-1","parameterCategory":1,"la1":30.6,"la2":29.2853,"lo1":-89.7004,"lo2":-87.6739,"dy":0.0162,"dx":0.0183,"nx":112,"ny":82,"refTime":"2026-03-26T12:00:00:Z","depth":0,"parameterNumber":3,"parameterNumberName":"V-component_of_WINDS"},"data":[0.0,0.0,0.0,0.0,0.0,0.0,0.0,0.0,0.0,0.0,0.0,0.0,0.0,0.0,0.0,0.0,0.0,0.0,0.0,0.0,0.0,0.0,0.0,0.0,0.0,0.0,0.0,0.0,0.0,0.0,0.0,0.0,0.0,0.0,0.0,0.0,0.0,0.0,0.0,0.0,0.0,0.0,0.0,0.0,0.0,0.0,0.0,0.0,0.0,0.0,0.0,0.0,0.0,0.0,0.0,0.0,0.0,0.0,0.0,0.0,0.0,0.0,0.0,0.0,0.0,0.0,0.0,0.0,0.0,0.0,0.0,0.0,0.0,0.0,0.0,0.0,0.0,0.0,0.0,0.0,0.0,0.0,0.0,0.0,0.0,0.0,0.0,0.0,0.0,0.0,1.0438,0.877,0.4529,0.0544,-0.2613,-0.5685,-0.8415,-1.065,0.0,0.0,0.0,0.0,0.0,0.0,0.0,0.0,0.0,0.0,0.0,0.0,0.0,0.0,0.0,0.0,0.0,0.0,0.0,0.0,0.0,0.0,0.0,0.0,0.0,0.0,0.0,0.0,0.0,0.0,0.0,0.0,0.0,0.0,0.0,0.0,0.0,0.0,0.0,0.0,0.0,0.0,0.0,0.0,0.0,0.0,0.0,0.0,0.0,0.0,0.0,0.0,0.0,0.0,0.0,0.0,0.0,0.0,0.0,0.0,0.0,0.0,0.0,0.0,0.0,0.0,0.0,0.0,0.0,0.0,0.0,0.0,0.0,0.0,0.0,0.0,0.0,0.0,0.0,0.0,0.0,0.0,0.0,0.0,0.0,0.0,0.0,0.0,0.0,0.0,0.0,0.0,0.0,0.0,0.0,0.0,0.0,0.0,0.0,0.0,0.0,0.0,0.0,0.0,1.0256,0.5874,0.39,0.1596,-0.1555,-0.4668,-0.7688,-1.061,0.0,0.0,0.0,0.0,0.0,0.0,0.0,0.0,0.0,0.0,0.0,0.0,0.0,0.0,0.0,0.0,0.0,0.0,0.0,0.0,0.0,0.0,0.0,0.0,0.0,0.0,0.0,0.0,0.0,0.0,0.0,0.0,0.0,0.0,0.0,0.0,0.0,0.0,0.0,0.0,0.0,0.0,0.0,0.0,0.0,0.0,0.0,0.0,0.0,0.0,0.0,0.0,0.0,0.0,0.0,0.0,0.0,0.0,0.0,0.0,0.0,0.0,0.0,0.0,0.0,0.0,0.0,0.0,0.0,0.0,0.0,0.0,0.0,0.0,0.0,0.0,0.0,0.0,0.0,0.0,0.0,0.0,0.0,0.0,0.0,0.0,0.0,0.0,0.0,0.0,0.0,0.0,0.0,0.0,0.0,0.0,0.0,0.0,0.0,0.0,0.0,0.0,0.0,1.1812,0.907,0.5107,0.3748,0.1831,-0.1322,-0.3904,-0.6912,-1.0576,-1.2424,0.0,0.0,0.0,0.0,0.0,0.0,0.0,0.0,0.0,0.0,0.0,0.0,0.0,0.0,0.0,0.0,0.0,0.0,0.0,0.0,0.0,0.0,0.0,0.0,0.0,0.0,0.0,0.0,0.0,0.0,0.0,0.0,0.0,0.0,0.0,0.0,0.0,0.0,0.0,0.0,0.0,0.0,0.0,0.0,0.0,0.0,0.0,0.0,0.0,0.0,0.0,0.0,0.0,0.0,0.0,0.0,0.0,0.0,0.0,0.0,0.0,0.0,0.0,0.0,0.0,0.0,0.0,0.0,0.0,0.0,0.0,0.0,0.0,0.0,0.0,0.0,0.0,0.0,0.0,0.0,0.0,0.0,0.0,0.0,0.0,0.0,0.0,0.0,0.0,0.0,0.0,0.0,0.0,0.0,0.0,0.0,0.0,0.0,0.0,0.0,0.0,0.0,1.0625,0.83,0.569,0.4018,0.1908,-0.097,-0.3463,-0.6574,-1.0536,-1.1947,0.0,0.0,0.0,0.0,0.0,0.0,0.0,0.0,0.0,0.0,0.0,0.0,0.0,0.0,0.0,0.0,0.0,0.0,0.0,0.0,0.0,0.0,0.0,0.0,0.0,0.0,0.0,0.0,0.0,0.0,0.0,0.0,0.0,0.0,0.0,0.0,0.0,0.0,0.0,0.0,0.0,0.0,0.0,0.0,0.0,0.0,0.0,0.0,0.0,0.0,0.0,0.0,0.0,0.0,0.0,0.0,0.0,0.0,0.0,0.0,0.0,0.0,0.0,0.0,0.0,0.0,0.0,0.0,0.0,0.0,0.0,0.0,0.0,0.0,0.0,0.0,0.0,0.0,0.0,0.0,0.0,0.0,0.0,0.0,0.0,0.0,0.0,0.0,0.0,0.0,0.0,0.0,0.0,0.0,0.0,0.0,0.0,0.0,0.0,0.0,0.0,0.0,1.1039,0.8841,0.7702,0.4905,0.222,0.0078,-0.3509,-0.7097,-1.0591,-1.2392,0.0,0.0,0.0,0.0,0.0,0.0,0.0,0.0,0.0,0.0,0.0,0.0,0.0,0.0,0.0,0.0,0.0,0.0,0.0,0.0,0.0,0.0,0.0,0.0,0.0,0.0,0.0,0.0,0.0,0.0,0.0,0.0,0.0,0.0,0.0,0.0,0.0,0.0,0.0,0.0,0.0,0.0,0.0,0.0,0.0,0.0,0.0,0.0,0.0,0.0,0.0,0.0,0.0,0.0,0.0,0.0,0.0,0.0,0.0,0.0,0.0,0.0,0.0,0.0,0.0,0.0,0.0,0.0,0.0,0.0,0.0,0.0,0.0,0.0,0.0,0.0,0.0,0.0,0.0,0.0,0.0,0.0,0.0,0.0,0.0,0.0,0.0,0.0,0.0,0.0,0.0,0.0,0.0,0.0,0.0,0.0,0.0,0.0,0.0,0.0,0.0,0.0,1.0936,0.8917,0.7897,0.4982,0.2517,0.1101,-0.2029,-0.5446,-0.889,0.0,0.0,0.0,0.0,0.0,0.0,0.0,0.0,0.0,0.0,0.0,0.0,0.0,0.0,0.0,0.0,0.0,0.0,0.0,0.0,0.0,0.0,0.0,0.0,0.0,0.0,0.0,0.0,0.0,0.0,0.0,0.0,0.0,0.0,0.0,0.0,0.0,0.0,0.0,0.0,0.0,0.0,0.0,0.0,0.0,0.0,0.0,0.0,0.0,0.0,0.0,0.0,0.0,0.0,0.0,0.0,0.0,0.0,0.0,0.0,0.0,0.0,0.0,0.0,0.0,0.0,0.0,0.0,0.0,0.0,0.0,0.0,0.0,0.0,0.0,0.0,0.0,0.0,0.0,0.0,0.0,0.0,0.0,0.0,0.0,0.0,0.0,0.0,0.0,0.0,0.0,0.0,0.0,0.0,0.0,0.0,0.0,0.0,0.0,0.0,0.0,0.0,1.3658,1.149,0.9622,0.8327,0.5607,0.321,0.1631,-0.0882,-0.4015,-0.785,0.0,0.0,0.0,0.0,0.0,0.0,0.0,0.0,0.0,0.0,0.0,0.0,0.0,0.0,0.0,0.0,0.0,0.0,0.0,0.0,0.0,0.0,0.0,0.0,0.0,0.0,0.0,0.0,0.0,0.0,0.0,0.0,0.0,0.0,0.0,0.0,0.0,0.0,0.0,0.0,0.0,0.0,0.0,0.0,0.0,0.0,0.0,0.0,0.0,0.0,0.0,0.0,0.0,0.0,0.0,0.0,0.0,0.0,0.0,0.0,0.0,0.0,0.0,0.0,0.0,0.0,0.0,0.0,0.0,0.0,0.0,0.0,0.0,0.0,0.0,0.0,0.0,0.0,0.0,0.0,0.0,0.0,0.0,0.0,0.0,0.0,0.0,0.0,0.0,0.0,0.0,0.0,0.0,0.0,0.0,0.0,0.0,0.0,0.0,0.0,0.0,0.0,1.4602,1.2914,1.1116,0.928,0.6933,0.4352,0.1584,-0.0281,-0.3219,0.0,0.0,0.0,0.0,0.0,0.0,0.0,0.0,0.0,0.0,0.0,0.0,0.0,0.0,0.0,0.0,0.0,0.0,0.0,0.0,0.0,0.0,0.0,0.0,0.0,0.0,0.0,0.0,0.0,0.0,0.0,0.0,0.0,0.0,0.0,0.0,0.0,0.0,0.0,0.0,0.0,0.0,0.0,0.0,0.0,0.0,0.0,0.0,0.0,0.0,0.0,0.0,0.0,0.0,0.0,0.0,0.0,0.0,0.0,0.0,0.0,0.0,0.0,0.0,0.0,0.0,0.0,0.0,0.0,0.0,0.0,0.0,0.0,0.0,0.0,0.0,0.0,0.0,0.0,0.0,0.0,0.0,0.0,0.0,0.0,0.0,0.0,0.0,0.0,0.0,0.0,0.0,0.0,0.0,0.0,0.0,0.0,0.0,0.0,0.0,0.0,0.0,0.0,1.3892,1.2311,1.0659,0.8933,0.6789,0.49,0.3455,0.1045,-0.1223,-0.317,0.0,0.0,0.0,0.0,0.0,0.0,0.0,0.0,0.0,0.0,0.0,0.0,0.0,0.0,0.0,0.0,0.0,0.0,0.0,0.0,0.0,0.0,0.0,0.0,0.0,0.0,0.0,0.0,0.0,0.0,0.0,0.0,0.0,0.0,0.0,0.0,0.0,0.0,0.0,0.0,0.0,0.0,0.0,0.0,0.0,0.0,0.0,0.0,0.0,0.0,0.0,0.0,0.0,0.0,0.0,0.0,0.0,0.0,0.0,0.0,0.0,0.0,0.0,0.0,0.0,0.0,0.0,0.0,0.0,0.0,0.0,0.0,0.0,0.0,0.0,0.0,0.0,0.0,0.0,0.0,0.0,0.0,0.0,0.0,0.0,0.0,0.0,0.0,0.0,0.0,0.0,0.0,0.0,0.0,0.0,0.0,0.0,0.0,0.0,0.0,0.0,0.0,1.3593,1.2636,1.1323,0.9251,0.75,0.5998,0.473,0.2463,0.0402,-0.1207,0.0,0.0,0.0,0.0,0.0,0.0,0.0,0.0,0.0,0.0,0.0,0.0,0.0,0.0,0.0,0.0,0.0,0.0,0.0,0.0,0.0,0.0,0.0,0.0,0.0,0.0,0.0,0.0,0.0,0.0,0.0,0.0,0.0,0.0,0.0,0.0,0.0,0.0,0.0,0.0,0.0,0.0,0.0,0.0,0.0,0.0,0.0,0.0,0.0,0.0,0.0,0.0,0.0,0.0,0.0,0.0,0.0,0.0,0.0,0.0,0.0,0.0,0.0,0.0,0.0,0.0,0.0,0.0,0.0,0.0,0.0,0.0,0.0,0.0,0.0,0.0,0.0,0.0,0.0,0.0,0.0,0.0,0.0,0.0,0.0,0.0,0.0,0.0,0.0,0.0,0.0,0.0,0.0,0.0,0.0,0.0,0.0,0.0,0.0,0.0,0.0,0.0,1.3708,1.3494,1.2536,0.9997,0.8717,0.7316,0.553,0.3855,0.1802,-0.0759,0.0,0.0,0.0,0.0,0.0,0.0,0.0,0.0,0.0,0.0,0.0,0.0,0.0,0.0,0.0,0.0,0.0,0.0,0.0,0.0,0.0,0.0,0.0,0.0,0.0,0.0,0.0,0.0,0.0,0.0,0.0,0.0,0.0,0.0,0.0,0.0,0.0,0.0,0.0,0.0,0.0,0.0,0.0,0.0,0.0,0.0,0.0,0.0,0.0,0.0,0.0,0.0,0.0,0.0,0.0,0.0,0.0,0.0,0.0,0.0,1.1613,1.026,0.0,0.0,0.0,0.0,0.0,0.0,0.0,0.0,0.0,0.0,0.0,0.0,0.0,0.0,0.0,0.0,0.0,0.0,0.0,0.0,0.0,0.0,0.0,0.0,0.0,0.0,0.0,0.0,0.0,0.0,0.0,0.0,0.0,0.0,0.0,0.0,0.0,0.0,0.0,0.0,1.415,1.3327,1.2082,1.0142,0.8962,0.768,0.6133,0.5028,0.3695,0.195,0.0347,0.0,0.0,0.0,0.0,0.0,0.0,0.0,0.0,0.0,0.0,0.0,0.0,0.0,0.0,0.0,0.0,0.0,0.0,0.0,0.0,0.0,0.0,0.0,0.0,0.0,0.0,0.0,0.0,0.0,0.0,0.0,0.0,0.0,0.0,0.0,0.0,0.0,0.0,0.0,0.0,0.0,0.0,0.0,0.0,0.0,0.0,0.0,0.0,0.0,0.0,0.0,0.0,0.0,0.0,0.0,0.0,0.0,0.0,0.0,1.5279,1.3414,0.0,0.0,0.0,0.0,0.0,0.0,0.0,0.0,0.0,0.0,0.0,0.0,0.0,0.0,0.0,0.0,0.0,0.0,0.0,0.0,0.0,0.0,0.0,0.0,0.0,0.0,0.0,0.0,0.0,0.0,0.0,0.0,0.0,0.0,0.0,0.0,0.0,0.0,0.0,0.0,1.4048,1.3435,1.239,1.0543,0.945,0.831,0.6843,0.5555,0.4326,0.3191,0.1825,0.0,0.0,0.0,0.0,0.0,0.0,0.0,0.0,0.0,0.0,0.0,0.0,0.0,0.0,0.0,0.0,0.0,0.0,0.0,0.0,0.0,0.0,0.0,0.0,0.0,0.0,0.0,0.0,0.0,0.0,0.0,0.0,0.0,0.0,0.0,0.0,0.0,0.0,0.0,0.0,0.0,0.0,0.0,0.0,0.0,0.0,0.0,0.0,0.0,0.0,0.0,0.0,0.0,2.2604,2.2483,2.2992,2.2992,2.2767,2.2235,1.9025,1.6918,1.5693,1.5045,0.0,0.0,0.0,0.0,0.0,0.0,0.0,0.0,0.0,0.0,0.0,0.0,0.0,0.0,0.0,0.0,0.0,0.0,0.0,0.0,0.0,0.0,1.3867,1.3893,1.3814,1.3081,1.0613,0.0,0.0,0.0,0.0,0.0,0.0,0.0,0.0,0.0,0.0,0.0,1.3929,1.3566,1.2753,1.1015,1.0017,0.8915,0.7523,0.6092,0.4848,0.3868,0.3071,0.1958,0.0,0.0,0.0,0.0,0.0,0.0,0.0,0.0,0.0,0.0,0.0,0.0,0.0,0.0,0.0,0.0,0.0,0.0,0.0,0.0,0.0,0.0,0.0,0.0,0.0,0.0,0.0,0.0,0.0,0.0,0.0,0.0,2.0055,1.8608,0.0,0.0,0.0,0.0,0.0,0.0,0.0,0.0,0.0,0.0,0.0,0.0,0.0,2.3114,2.3272,2.315,2.3235,2.3514,2.3356,2.3323,2.3425,2.3425,2.3391,2.3288,2.2791,0.0,1.9014,1.7274,0.0,0.0,0.0,0.0,0.0,0.0,0.0,0.0,0.0,0.0,0.0,0.0,0.0,0.0,0.0,0.0,0.0,0.0,0.0,0.0,0.0,0.0,1.5655,1.5251,1.5165,1.4832,1.3768,1.241,1.1287,1.1077,1.1222,1.1363,0.0,0.0,0.0,0.0,0.0,0.0,1.4673,1.3476,1.2308,1.1494,1.0424,0.922,0.7942,0.7621,0.663,0.4689,0.4426,0.3621,0.1981,0.0668,0.0,0.0,0.0,0.0,0.0,0.0,0.0,0.0,0.0,0.0,0.0,0.0,0.0,0.0,0.0,0.0,0.0,0.0,0.0,0.0,0.0,0.0,0.0,0.0,0.0,0.0,0.0,0.0,0.0,2.3557,2.2906,2.191,2.23,2.2592,0.0,0.0,0.0,0.0,0.0,0.0,0.0,0.0,0.0,2.4755,2.5064,2.5493,2.608,2.6092,2.5937,2.5649,2.5649,2.5493,2.5205,2.5205,2.5205,2.517,2.4588,2.3743,2.2615,2.0962,2.0159,1.9836,0.0,0.0,0.0,0.0,1.664,1.6752,1.7116,1.6671,1.592,1.5804,0.0,0.0,0.0,0.0,0.0,0.0,0.0,1.6477,1.6733,1.6894,1.6958,1.7011,1.6831,1.6546,1.6185,1.5542,1.4599,1.3218,1.2995,1.3156,1.3517,1.4364,0.0,0.0,0.0,1.5258,1.4659,1.4001,1.3071,1.1789,1.0887,0.9818,0.8462,0.8006,0.7214,0.5855,0.5772,0.506,0.3498,0.2824,0.169,0.0,0.0,0.0,0.0,0.0,0.0,0.0,0.0,0.0,0.0,0.0,0.0,0.0,0.0,0.0,0.0,0.0,0.0,0.0,0.0,0.0,0.0,0.0,0.0,0.0,0.0,0.0,0.0,2.5348,2.5551,2.5032,2.5536,2.5617,0.0,0.0,0.0,0.0,0.0,0.0,2.5421,2.5765,2.6181,2.6735,2.71,2.7538,2.8097,2.8109,2.7821,2.7281,2.7281,2.7027,2.6499,2.6499,2.6499,2.6452,2.5699,2.537,2.5264,2.3718,2.2913,2.2529,2.1087,2.0361,2.0003,1.8872,1.8514,1.8665,1.9337,1.9117,1.8576,1.8426,1.7747,1.6809,1.6058,0.0,0.0,0.0,0.0,1.7717,1.8192,1.7947,1.7634,1.7852,1.7656,1.7355,1.7232,1.7198,1.6754,1.5292,1.4869,1.4955,1.5522,1.5656,0.0,1.569,1.577,1.5543,1.4729,1.4419,1.3687,1.2203,1.1458,1.0569,0.9356,0.877,0.8171,0.7448,0.7301,0.6698,0.5411,0.5002,0.3694,0.1291,0.0,0.0,0.0,0.0,0.0,0.0,0.0,0.0,0.0,0.0,0.0,0.0,0.0,0.0,0.0,0.0,0.0,0.0,0.0,0.0,0.0,0.0,0.0,0.0,0.0,0.0,0.0,0.0,0.0,2.6836,2.7789,0.0,0.0,0.0,0.0,2.9589,2.9668,2.9948,3.0593,3.064,3.0249,2.9329,2.935,2.8967,2.8109,2.8109,2.7821,2.7281,2.7281,2.7027,2.6499,2.6499,2.6499,2.6499,2.6465,2.6418,2.6267,2.4302,2.2896,2.2035,2.1945,2.1364,2.0549,2.0483,2.0451,2.0483,2.0515,2.0483,2.0362,1.985,1.9018,1.8134,1.764,1.7512,0.0,0.0,1.7907,1.7717,1.8192,1.7947,1.7494,1.6993,1.6844,1.6699,1.6192,1.6081,1.6358,1.7252,1.6998,1.6689,1.6705,0.0,1.5971,1.5971,1.5601,1.5328,1.5246,1.4421,1.3542,1.2822,1.215,1.1458,1.0762,1.0661,1.0332,0.9603,0.9253,0.8733,0.7939,0.6624,0.5523,0.4662,0.3649,0.0,0.0,0.0,0.0,0.0,0.0,0.0,0.0,0.0,0.0,0.0,0.0,0.0,0.0,0.0,0.0,0.0,0.0,0.0,0.0,0.0,0.0,0.0,0.0,0.0,0.0,0.0,0.0,3.0013,3.0423,0.0,3.0065,3.0064,3.0245,3.0613,3.0646,3.0743,3.0985,3.0999,3.0977,3.0985,3.0964,3.098,3.1016,3.057,3.0089,2.9548,2.9106,2.8612,2.8117,2.8117,2.8117,2.8117,2.8117,2.8117,2.8011,2.6876,2.5569,2.4256,2.3558,2.3075,2.2732,2.2339,2.1865,2.1522,2.2021,2.1609,2.0806,2.0471,1.9872,1.9233,1.9078,1.9018,1.9054,1.9221,1.9136,1.9054,1.9221,1.8895,1.8461,1.8268,1.7942,1.7641,1.746,1.7412,1.7532,1.7894,1.7448,1.7143,1.7615,1.7255,1.6906,1.6906,1.6436,1.5918,1.5544,1.5177,1.4573,1.3558,1.2856,1.2165,1.1491,1.104,1.0678,1.0434,1.0585,1.0363,0.9622,0.8671,0.7633,0.6398,0.5278,0.4351,0.0,0.0,0.0,0.0,0.0,0.0,0.0,0.0,0.0,0.0,0.0,0.0,0.0,0.0,0.0,0.0,0.0,0.0,0.0,0.0,0.0,0.0,0.0,0.0,0.0,3.091,3.1775,3.2182,3.2741,3.2744,3.1921,3.2035,3.2197,3.2197,3.2197,3.2282,3.2511,3.2525,3.253,3.2553,3.2533,3.2444,3.2254,3.1833,3.1227,3.0461,3.0028,2.9518,2.9002,2.9002,2.9002,2.9002,2.9002,2.9002,2.8933,2.8071,2.7112,2.6038,2.4838,2.407,2.3665,2.3246,2.2763,2.2359,2.2703,2.1967,2.0884,2.0754,2.0302,1.9798,1.9798,1.9798,1.9798,1.9798,1.9798,1.9798,1.9798,1.9384,1.8958,1.877,1.8329,1.7877,1.7677,1.7639,1.7639,1.7639,1.7416,1.7361,1.7858,1.7463,1.7087,1.7087,1.676,1.6358,1.5952,1.5732,1.5286,1.4503,1.3831,1.3181,1.2517,1.2076,1.174,1.1509,1.1851,1.1756,1.1078,1.0589,0.9663,0.8224,0.7343,0.6648,0.6151,0.0,0.0,0.0,0.0,0.0,0.0,0.0,0.0,0.0,0.0,0.0,0.0,0.0,0.0,0.0,0.0,0.0,0.0,0.0,0.0,0.0,0.0,0.0,3.091,3.2246,3.3204,3.3196,3.4551,3.4996,3.3679,3.4159,3.4533,3.4533,3.4533,3.4801,3.5474,3.5504,3.5052,3.4061,3.4047,3.3275,3.1709,3.1668,3.106,2.9867,2.9854,2.9569,2.9097,2.9097,2.9097,2.9097,2.9097,2.9083,2.8941,2.7751,2.7252,2.7081,2.5678,2.4305,2.3155,2.3155,2.3155,2.3055,2.2531,2.1652,2.0772,2.0747,2.0329,1.985,1.985,1.985,1.9824,1.9824,1.9837,1.9798,1.9786,1.9397,1.8857,1.8328,1.7798,1.7267,1.6678,1.6552,1.6552,1.6552,1.7027,1.7418,1.7373,1.6886,1.6522,1.6522,1.6531,0.0,1.6552,1.6017,1.5654,1.5632,1.5085,1.4491,1.3886,1.3815,1.3576,1.2992,1.3153,1.301,1.2419,1.2305,1.1652,1.031,0.9891,0.9713,0.9713,0.0,0.0,0.0,0.0,0.0,0.0,0.0,0.0,0.0,0.0,0.0,0.0,0.0,0.0,0.0,0.0,0.0,0.0,0.0,0.0,0.0,3.3737,3.4604,3.2807,3.3463,3.4317,3.4789,3.5222,3.537,3.4996,3.5115,3.522,3.522,3.522,3.531,3.5489,3.5504,3.5359,3.51,3.4611,3.4142,3.3709,3.2754,3.2079,3.1759,3.126,3.0953,3.0807,3.0807,3.0807,3.0807,3.0807,3.0529,3.0045,2.9254,2.8333,2.7272,2.5853,2.51,2.4781,2.4781,2.447,2.3971,2.3434,2.2734,2.2007,2.1563,2.1318,2.1183,2.1183,2.0868,2.0535,2.0535,2.0169,1.971,1.9309,1.9111,1.8864,1.8338,1.8062,1.7848,1.7707,1.7666,1.7666,1.7666,1.778,1.7654,1.6878,1.6918,1.7076,1.7076,1.7415,1.7666,1.7666,1.7175,1.6659,1.6219,1.5686,1.5096,1.4491,1.4445,1.4376,1.4224,1.454,1.464,1.4479,1.3981,1.3193,1.2049,1.1911,1.1838,0.0,0.0,0.0,0.0,0.0,0.0,0.0,0.0,0.0,0.0,0.0,0.0,0.0,0.0,0.0,0.0,0.0,0.0,0.0,0.0,0.0,0.0,3.5679,3.64,3.5277,3.5554,3.5907,3.5961,3.5943,3.5846,3.5537,3.5504,3.5504,3.5504,3.5504,3.5504,3.5504,3.5504,3.537,3.5085,3.4713,3.4234,3.3664,3.2901,3.2348,3.2064,3.169,3.1511,3.1511,3.1511,3.1511,3.1481,3.1197,3.0866,3.0432,2.9549,2.8708,2.781,0.0,0.0,0.0,0.0,2.4818,2.4018,2.3713,2.3009,2.2169,2.1821,2.1697,2.1697,2.1697,2.1448,2.1186,2.1186,2.0904,2.0504,2.0227,1.9767,1.9297,1.8983,1.8494,1.8106,1.8106,1.8106,1.8106,1.8106,1.8106,0.0,1.7271,1.7422,1.7646,1.7646,1.7907,1.8106,1.8106,1.7827,1.749,1.7156,1.6823,1.6314,1.5475,1.5408,0.0,0.0,0.0,1.544,1.544,1.4819,0.0,0.0,0.0,0.0,0.0,1.4732,0.0,0.0,1.3793,1.4029,0.0,0.0,0.0,0.0,0.0,0.0,0.0,0.0,0.0,0.0,0.0,0.0,0.0,0.0,0.0,0.0,3.7077,3.7379,3.7983,3.8064,3.7748,3.6843,3.6737,3.6492,3.5814,3.5765,3.5765,3.5765,3.5765,3.5765,3.5765,3.5608,0.0,0.0,0.0,3.3694,3.2497,3.2437,3.2137,3.1611,3.1539,3.1524,3.1611,3.1539,3.1466,3.1346,3.0776,3.0417,3.0208,2.9071,2.8562,2.8375,2.7112,2.6215,2.5632,2.5562,2.4809,2.3805,2.3749,0.0,0.0,2.1908,2.1908,2.1908,2.1908,2.1875,2.1805,2.1805,2.1758,2.1669,2.1531,2.0747,1.996,1.9821,1.9023,1.8283,1.8283,1.8283,1.8283,1.8283,1.8283,1.8283,1.8283,1.8243,1.8204,1.8204,1.8243,1.8283,1.8283,1.8243,1.8204,1.8204,1.8145,0.0,1.6676,1.6591,1.6164,1.5152,1.5598,1.5884,1.5884,1.5376,1.5084,1.5084,1.6077,1.6591,1.6591,1.7599,1.8106,1.8052,1.5908,1.5499,0.0,0.0,0.0,0.0,0.0,0.0,0.0,0.0,0.0,0.0,0.0,0.0,0.0,0.0,0.0,3.7732,3.8724,3.9511,3.9636,3.9653,3.9146,3.7748,3.7573,3.7515,3.7354,3.7354,3.7354,3.7354,3.7354,3.7354,3.7354,3.6224,3.5507,3.5398,3.3774,3.2766,3.2512,3.1959,3.1932,3.2382,3.1796,0.0,3.2355,3.1768,3.1197,3.0702,3.0567,2.9924,2.8951,2.8697,2.8263,2.7754,2.7493,2.7306,2.7104,2.6573,2.5869,2.5132,2.4578,2.3894,2.3238,2.3238,2.3238,2.3238,2.3238,2.2883,0.0,2.2498,2.2123,2.1476,2.0495,2.0407,2.0299,1.9327,1.9251,1.9387,1.9387,1.9387,1.9387,1.9387,1.9387,1.9387,1.9387,1.9024,1.8746,1.8746,1.9114,1.9387,1.9387,1.9006,1.8746,1.8746,1.8361,1.8013,1.778,1.776,1.7679,1.7464,1.7558,1.7619,1.7619,1.7504,1.7443,1.7443,1.7659,1.776,1.776,1.7993,1.8106,1.8086,1.7619,1.7538,0.0,0.0,0.0,0.0,0.0,0.0,0.0,0.0,0.0,0.0,0.0,3.661,3.7628,0.0,3.902,3.9393,4.0029,4.0417,4.0146,4.0096,3.9662,3.8486,3.8358,3.8206,3.7835,3.7793,3.7793,3.7793,3.7793,3.7633,3.7265,3.6555,3.582,3.5128,3.4088,3.338,3.3039,3.2726,3.2745,3.3093,3.2718,3.2745,3.3077,3.2349,3.182,3.1475,3.0768,3.0088,2.9478,2.9137,2.8805,2.8496,2.8496,2.8125,2.7525,2.6866,2.6183,2.551,2.4829,2.4156,2.3595,2.3595,2.3595,2.3595,2.3595,2.3399,2.3143,2.3143,2.3098,2.279,2.1606,2.1613,2.1553,2.0148,2.0083,2.0294,2.0052,2.0,2.0,2.0,1.9839,1.9708,1.9708,1.9479,1.9299,1.9299,1.953,1.9708,1.9708,1.946,1.9299,1.9299,1.9062,1.8798,1.8516,1.8263,1.821,1.8454,1.844,1.8541,1.8744,1.8763,1.8763,1.8763,1.902,1.9148,1.9148,1.9432,1.9555,1.9555,1.9555,1.9156,0.0,0.0,0.0,0.0,0.0,0.0,0.0,0.0,3.6053,3.7336,3.7502,3.7928,3.957,3.9853,4.0043,4.0647,4.0733,4.0601,4.0171,4.0096,3.9876,3.9193,3.9139,3.8897,3.829,3.8234,3.8234,3.8234,3.8234,3.7926,3.7187,3.6872,3.6141,3.4854,3.4563,3.4132,3.3624,3.3582,3.3659,3.3786,3.3659,3.3595,3.3577,3.2839,3.234,3.2004,3.0751,3.0208,3.016,2.9624,2.9406,2.9406,2.9406,2.881,2.7868,2.7209,2.6517,2.5826,2.5159,2.4477,2.3921,2.3921,2.3921,2.3921,2.3921,2.3921,2.3921,2.3921,2.4128,2.4109,2.3036,2.2829,2.2542,2.1097,2.0869,2.0894,2.0516,2.0433,2.0433,2.0433,2.0158,1.9945,1.9945,1.9945,1.9909,1.9836,1.9818,1.9839,1.9927,1.9945,1.9945,1.9945,1.9945,1.977,1.9328,1.891,1.8806,1.92,1.9221,1.937,1.9697,1.97,1.97,1.97,2.0139,2.0356,2.0356,2.0797,2.0991,2.0991,2.0991,2.04,3.5573,3.5589,3.6127,3.7597,3.7968,3.8515,0.0,0.0,3.9474,4.0261,4.0053,3.9809,4.0018,4.006,4.0094,4.0179,4.0179,4.0171,4.0096,4.0096,4.007,3.9995,3.9969,3.9927,3.985,3.985,3.985,3.985,3.985,3.9531,3.8782,3.7501,3.641,3.5596,3.4364,3.3662,3.3582,3.3582,3.3912,3.4479,3.3887,3.3564,3.3496,3.2812,3.1837,3.0591,2.9847,2.9496,2.9518,2.9438,2.9406,2.9406,2.9406,2.9316,2.9123,2.8459,2.7736,2.6994,2.6336,2.5636,2.5028,2.5028,2.5028,2.5028,2.5028,2.5028,2.5028,2.5028,2.4582,2.3962,2.3245,2.2598,2.1932,2.1148,2.0974,2.0991,2.0926,2.0926,2.0926,2.0926,2.0894,2.0845,2.0845,2.0845,2.0715,2.0297,2.0229,2.0382,2.0797,2.0845,2.0845,2.0845,2.0845,2.0829,2.0764,2.0715,2.0699,2.0749,2.0749,2.0765,2.0814,2.0814,2.0814,2.0814,2.0878,2.091,2.091,2.0975,2.0991,2.0991,2.0991,2.0926,3.7359,3.7912,3.867,0.0,3.9088,3.9995,4.0931,4.0726,4.0429,4.0816,4.0709,4.0577,4.0577,4.0577,4.0577,0.0,4.0577,4.0449,4.0146,4.0096,4.0096,4.0096,4.0096,4.0096,4.0096,4.0096,4.0096,4.0096,3.9706,3.914,3.8396,3.7362,3.643,3.5669,3.5077,3.4752,3.4752,3.4752,3.4894,3.5184,3.4911,3.4512,3.4063,3.3338,3.2232,3.0844,3.0567,3.0456,3.0456,3.0456,3.0456,3.0456,3.0456,3.0456,3.0273,2.8914,2.8207,2.7779,2.6679,2.6086,2.5766,2.533,2.5202,2.5202,2.5202,2.5202,2.5122,2.4684,2.4533,2.4193,2.2817,2.2638,2.2503,2.1295,2.1385,2.1675,2.1415,2.1353,2.1353,2.1353,2.115,2.0991,2.0991,2.0991,2.1007,2.1055,2.0862,2.078,2.0975,2.0991,2.0991,2.0991,2.0991,2.0991,2.0991,2.0991,2.1102,2.1337,2.1353,2.1477,2.1751,2.1751,2.1751,2.1751,2.1903,2.1984,2.1984,2.219,2.2177,2.1984,2.1984,2.1919,3.8925,3.965,0.0,3.9639,4.0319,4.1215,4.1413,4.1348,4.1265,4.1367,4.1133,4.0903,4.0903,4.078,4.0679,4.0679,4.0679,4.0528,4.0146,4.0096,4.0096,4.0096,4.0096,4.0096,4.0096,4.0096,4.0096,4.0096,3.9436,3.8667,3.7939,3.7218,3.6417,3.5616,3.56,3.56,3.56,3.56,3.56,3.56,3.56,3.5092,3.4167,3.322,3.2205,3.119,3.119,3.119,3.119,3.119,3.119,3.1173,3.097,3.1021,3.0993,2.9218,2.8567,2.8416,2.7414,2.6759,2.6336,2.578,2.5617,2.5617,2.5617,2.5617,2.547,2.4717,2.4622,2.4364,2.2802,2.2739,2.2805,2.1638,2.1842,2.2209,2.1869,2.1794,2.1794,2.1794,2.1553,2.1354,2.1354,2.1354,2.1462,2.1749,2.1554,2.1354,2.1354,2.1354,2.1354,2.1354,2.1354,2.1354,2.1354,2.1354,2.1506,2.189,2.1905,2.2093,2.2517,2.2561,2.2561,2.2561,2.2742,2.2848,2.2848,2.3081,2.3081,2.2848,2.2848,2.2725,0.0,0.0,4.0603,4.1858,4.2234,4.2472,4.3243,4.3014,4.2637,4.2635,4.1707,4.0903,4.0903,4.0473,4.0121,4.0121,4.0121,4.0121,4.0096,4.0096,4.0096,4.0096,4.0096,4.0096,4.0096,4.0096,4.0096,4.0096,3.9436,3.8667,3.7939,3.7218,3.6417,3.5616,3.56,3.56,3.56,3.56,3.56,3.56,3.56,3.4839,3.3389,3.1935,3.1241,3.119,3.119,3.119,3.119,3.119,3.119,3.1123,3.0412,3.0581,3.1021,2.9531,2.899,2.899,2.8939,2.7941,2.6691,2.6657,2.6657,2.6657,2.6657,2.6657,2.6505,2.5763,2.5036,2.434,2.3549,2.2854,2.2313,2.2268,2.2282,2.2296,2.2282,2.2282,2.2282,2.2282,2.2268,2.2268,2.2268,2.2268,2.2268,2.2282,2.2268,2.2268,2.2268,2.2268,2.2268,2.2268,2.2268,2.2268,2.2268,2.2268,2.2385,2.2643,2.2669,2.2822,2.3153,2.3165,2.3165,2.3165,2.3177,2.3177,2.3177,2.3189,2.3189,2.3177,2.3177,2.3177,4.0766,0.0,4.2353,4.2567,4.3036,4.3439,4.3474,4.3375,4.3142,4.2769,4.2059,4.138,4.0972,4.0449,4.0096,4.0096,4.0493,4.0646,4.018,4.0942,4.1213,4.0231,4.0536,4.0629,4.0146,4.0096,4.0096,4.0096,3.9436,3.8667,3.7939,3.7218,3.6417,3.5616,3.56,3.56,3.56,3.56,3.56,3.5583,3.4602,3.3897,3.3355,3.1867,3.119,3.119,3.119,3.119,3.119,3.119,3.119,3.1173,3.092,3.097,3.1072,3.0091,2.9414,2.8925,2.8383,2.7858,2.7351,2.686,2.6691,2.6691,2.6691,2.6353,2.5828,2.5083,2.4338,2.3596,2.2868,2.2496,2.2296,2.2296,2.2296,2.2349,2.2541,2.2426,2.2349,2.2541,2.2426,2.2296,2.2296,2.2296,2.2296,2.2296,2.2296,2.2296,2.2296,2.2296,2.2296,2.2296,2.2296,2.2296,2.2296,2.2463,2.2612,2.2695,2.291,2.3081,2.3189,2.32,2.32,2.32,2.3414,2.3533,2.3533,2.3764,2.3753,2.3533,2.3533,2.3414,4.142,4.2375,4.3465,4.345,4.3825,4.4121,4.3758,4.3695,4.3543,4.3087,4.2521,4.1937,4.1335,4.0774,4.0421,4.0477,4.0882,4.1119,4.0925,4.1474,4.1559,4.0595,4.0679,4.0612,4.0146,4.0096,4.0096,4.0096,3.9436,3.8667,3.7939,3.7218,3.6417,3.5616,3.56,3.56,3.56,3.56,3.5464,3.5199,3.3981,3.3271,3.2966,3.1749,3.119,3.119,3.119,3.119,3.119,3.119,3.119,3.1173,3.0903,3.097,3.1038,2.9734,2.9161,2.8891,2.8077,2.7621,2.7317,2.6843,2.6691,2.6691,2.6691,2.637,2.5845,2.5101,2.4543,2.3951,2.2953,2.2768,2.2794,2.2521,2.2531,2.2673,2.2835,2.2742,2.2673,2.2848,2.273,2.2624,2.2624,2.2517,2.2436,2.2436,2.2436,2.2398,2.231,2.2388,2.2415,2.231,2.2494,2.2571,2.245,2.2717,2.2935,2.3057,2.3247,2.3426,2.3555,2.3555,2.3555,2.3555,2.3774,2.3886,2.3886,2.4094,2.4094,2.3886,2.3886,2.3756,4.1995,4.2974,4.3945,4.4487,4.4637,4.4527,4.4117,4.3998,4.3909,4.3597,4.3087,4.2537,0.0,0.0,4.105,4.1223,4.1306,4.1594,4.2202,4.1762,4.1339,0.0,0.0,0.0,0.0,0.0,4.0096,4.0096,3.9445,3.8717,3.7939,3.7229,3.6468,3.5616,3.56,3.56,3.56,3.56,3.5233,3.4489,3.3744,3.3,3.2276,3.1549,3.119,3.119,3.119,3.119,3.119,3.119,3.119,3.1123,3.0429,3.0581,3.092,2.8686,2.8349,2.8891,2.8027,2.73,2.6691,2.6691,2.6691,2.6691,2.6691,2.6691,2.6521,2.5827,2.5623,2.5283,2.389,2.3759,2.3783,2.2994,2.3025,2.3254,2.323,2.32,2.32,2.3212,2.32,2.32,2.32,2.2935,2.2733,2.2733,2.2733,2.2639,2.2363,2.2563,2.2625,2.2377,2.2857,2.3069,2.2759,2.3033,2.3357,2.3682,2.3714,2.3876,2.418,2.419,2.419,2.419,2.419,2.419,2.419,2.419,2.419,2.419,2.4209,2.4209,4.2631,4.3483,4.4298,4.4854,4.4966,4.4884,4.4527,4.4204,4.3986,4.3896,4.3248,4.2655,0.0,0.0,0.0,4.193,4.2821,0.0,4.2417,4.3115,0.0,4.1407,0.0,4.1314,4.0214,4.0096,4.0096,4.0096,3.9926,3.9242,3.7973,3.7719,3.7009,3.5633,3.56,3.56,3.56,3.56,3.5233,3.4489,3.3744,3.3,3.2276,3.1549,3.119,3.119,3.119,3.119,3.119,3.119,3.119,3.1173,3.0987,3.1021,3.0987,2.9313,2.8824,2.8807,2.7452,2.686,2.6691,2.6691,2.6691,2.6691,2.6691,2.6531,2.6285,2.6111,2.5831,2.5507,2.5134,2.5095,2.4966,2.4164,2.4037,2.3999,2.3647,2.338,2.3271,2.3533,2.3369,2.32,2.32,2.3129,2.3081,2.3081,2.3081,2.296,2.2652,2.289,2.3063,2.2982,2.3111,2.3165,2.3081,2.338,2.3599,2.3692,2.3927,2.4103,2.4208,2.419,2.419,2.419,2.419,2.419,2.419,2.419,2.419,2.4199,2.4348,2.4409,4.364,4.4395,4.5065,4.538,4.5428,4.5276,4.476,4.4446,4.418,4.3852,4.3407,0.0,4.275,4.2828,4.2868,0.0,0.0,0.0,4.3383,4.3741,4.347,0.0,4.1762,0.0,4.0214,4.0096,4.0096,4.0096,3.9808,3.9106,3.7973,3.7584,3.6857,3.5633,3.56,3.56,3.56,3.56,3.5059,3.4015,3.3609,3.2848,3.1802,3.1396,3.119,3.119,3.119,3.119,3.119,3.119,3.119,3.119,3.119,3.1004,3.0601,2.9583,2.9006,2.8579,2.7576,2.7225,2.721,2.7019,2.7083,2.7225,2.7225,2.71,2.6962,2.6962,2.6781,2.6535,2.6211,2.6208,2.6024,2.4891,2.4728,2.4678,2.405,2.3774,2.3692,2.3886,2.3774,2.3649,2.3649,2.3522,2.3414,2.3414,2.3414,2.3357,2.3165,2.3294,2.3369,2.323,2.3459,2.3577,2.3426,2.3724,2.3917,2.3917,2.4094,2.419,2.419,2.4284,2.4321,2.4321,2.4428,2.4461,2.4461,2.4461,2.4461,2.4461,2.4575,2.4631,4.45,4.5125,4.5767,4.586,4.5828,4.5553,4.4822,4.453,4.4214,4.349,0.0,4.3142,4.2674,4.2766,4.2986,4.3176,0.0,4.3783,4.4496,4.3995,4.325,4.2388,4.1728,4.1018,4.018,4.0096,4.0062,3.996,3.9259,3.8565,3.7939,3.7218,3.6417,3.5616,3.56,3.56,3.56,3.56,3.4856,3.3406,3.3406,3.2628,3.119,3.119,3.119,3.119,3.119,3.119,3.119,3.119,3.119,3.119,3.119,3.0818,3.0198,2.9678,2.9107,2.848,2.8053,2.794,2.7894,2.75,2.7622,2.7897,2.7897,2.794,2.7968,2.7968,2.7992,2.7873,2.7135,2.711,2.6892,2.5348,2.5181,2.5172,2.4373,2.419,2.419,2.419,2.419,2.419,2.419,2.3966,2.3774,2.3774,2.3774,2.3774,2.3774,2.3774,2.3642,2.3369,2.3847,2.4084,2.3795,2.4026,2.419,2.419,2.4228,2.4247,2.4247,2.4426,2.4545,2.4545,2.4708,2.4804,2.4804,2.4804,2.4804,2.4804,2.4825,2.484,4.3622,4.4249,4.5071,4.5728,4.5641,4.5231,4.459,4.3927,0.0,0.0,4.228,4.2062,4.1979,4.2516,4.3031,4.3176,4.3783,4.4302,4.4563,4.4496,4.3859,0.0,4.2185,4.1576,4.0231,4.0096,3.9859,3.9225,3.8514,3.8041,3.7922,3.7218,3.6417,3.5616,3.56,3.56,3.56,3.56,3.4856,3.3406,3.3406,3.2628,3.119,3.119,3.119,3.119,3.119,3.119,3.119,3.119,3.119,3.119,3.119,3.1123,3.0893,2.9867,2.9419,2.9157,2.8214,2.8075,2.8264,2.7908,2.7855,2.7897,2.7897,2.8088,2.8316,2.8316,2.854,2.8621,2.7842,2.7657,2.7299,2.5688,2.5362,2.5172,2.4373,2.419,2.419,2.419,2.419,2.419,2.419,2.4151,2.4103,2.4103,2.4103,2.4103,2.4103,2.4103,2.4094,2.4026,2.4141,2.417,2.4113,2.417,2.419,2.419,2.4348,2.4444,2.4444,2.4639,2.4753,2.4753,2.4782,2.4804,2.4804,2.4804,2.4804,2.4804,2.4917,2.4968,4.476,4.4885,4.5033,4.5816,4.5122,4.4135,4.3634,0.0,0.0,0.0,4.1612,4.181,4.181,4.2207,0.0,4.2625,4.3012,4.3338,4.3373,4.3724,0.0,4.1914,4.2066,4.1711,4.0248,4.0096,3.9791,3.9056,3.8328,3.7736,3.7347,3.6603,3.6011,3.5616,3.56,3.56,3.56,3.5211,3.4489,3.3406,3.3,3.2256,3.119,3.119,3.119,3.119,3.119,3.1312,3.1507,3.1507,3.1507,3.1507,3.1507,3.1028,3.0258,2.9934,2.9437,2.8882,2.8591,2.857,2.87,2.852,2.8469,2.8469,2.8469,2.8583,2.8707,2.8707,2.8851,2.8803,2.8007,2.7798,2.7394,2.5778,2.5081,2.4677,2.4281,2.419,2.419,2.419,2.419,2.419,2.419,2.419,2.419,2.419,2.419,2.419,2.419,2.419,2.419,2.419,2.419,2.419,2.419,2.419,2.4247,2.4339,2.4462,2.4553,2.4647,2.4828,2.4904,2.4904,2.5006,2.5068,2.5068,2.5068,2.5068,2.5068,2.5124,2.5157,4.5858,4.5664,4.5389,4.5874,4.4591,4.3081,4.2534,4.1958,0.0,0.0,4.0752,4.1233,4.1402,0.0,4.1726,0.0,4.1997,4.2117,4.2269,4.2929,4.2834,0.0,4.1847,0.0,4.0248,3.996,3.9571,3.8819,3.7922,3.7161,3.6552,3.5943,3.56,3.56,3.56,3.56,3.56,3.4861,3.4134,3.3389,3.2666,3.1921,3.119,3.119,3.119,3.121,3.1291,3.1507,3.1825,3.1897,3.1951,3.1951,3.1951,3.1098,2.9931,3.0161,2.9562,2.868,2.8924,2.9005,2.9005,2.9005,2.9005,2.9005,2.9005,2.9005,2.9005,2.9005,2.9005,2.8785,2.7805,2.753,2.7126,2.5521,2.4658,2.419,2.419,2.419,2.419,2.419,2.419,2.419,2.419,2.419,2.419,2.419,2.419,2.419,2.419,2.419,2.419,2.419,2.419,2.419,2.419,2.4247,2.4321,2.4486,2.4575,2.4682,2.4835,2.4987,2.5052,2.5052,2.5219,2.5308,2.5308,2.5308,2.5308,2.5308,2.5308,2.5308,4.5312,4.5644,4.609,4.5748,4.4283,4.2691,4.1742,0.0,0.0,3.9127,3.9159,3.9387,4.0112,0.0,0.0,0.0,0.0,4.1525,0.0,4.2929,4.2834,4.139,0.0,0.0,4.0248,3.9503,3.8802,3.8075,3.6631,3.5769,3.5701,3.5633,3.56,3.56,3.56,3.56,3.56,3.4861,3.4134,3.3389,3.2666,3.1921,3.119,3.119,3.119,3.123,3.1584,3.1771,3.1826,3.2247,3.2434,3.2434,3.2434,3.1904,3.1107,3.0829,3.0214,2.9431,2.9107,2.9005,2.9005,2.9005,2.9005,2.9005,2.9005,2.9005,2.9005,2.9005,2.9005,2.8656,2.7097,2.6722,2.63,2.4685,2.4245,2.419,2.419,2.419,2.419,2.419,2.419,2.419,2.419,2.419,2.419,2.419,2.419,2.419,2.419,2.419,2.419,2.419,2.419,2.419,2.419,2.4366,2.4478,2.4503,2.4783,2.4968,2.4986,2.5163,2.5269,2.5269,2.5279,2.5308,2.5308,2.5308,2.5308,2.5308,2.5308,2.5308,4.5473,4.5531,4.5316,4.4954,4.3172,4.1259,4.0307,0.0,3.8048,3.7679,3.8307,3.8989,3.9315,3.9782,0.0,0.0,0.0,0.0,4.0942,0.0,4.1694,4.0646,4.1187,4.1221,4.0197,3.9411,3.8497,3.7313,3.6231,3.56,3.56,3.56,3.56,3.56,3.56,3.538,3.4945,3.4201,3.3474,3.2733,3.2005,3.1481,3.119,3.119,3.119,3.123,3.164,3.1807,3.1861,3.2598,3.2745,3.2481,3.2277,3.201,3.1581,3.0488,3.003,2.9867,2.9215,2.9005,2.9005,2.9005,2.9005,2.9005,2.9005,2.9005,2.9005,2.9005,2.9005,2.8638,2.7024,2.5878,2.4997,2.4355,2.419,2.419,2.419,2.419,2.419,2.419,2.419,2.419,2.419,2.419,2.419,2.419,2.419,2.419,2.419,2.419,2.4256,2.4366,2.4384,2.4384,2.4384,2.4559,2.4712,2.479,2.4937,2.5046,2.5187,2.5259,2.5308,2.5308,2.5308,2.5308,2.5308,2.5308,2.5308,2.5308,2.5308,2.5308,4.5183,4.5083,4.4457,4.39,4.1829,3.9684,0.0,3.7586,3.6744,3.6458,3.7375,3.837,3.8827,3.9368,3.9741,0.0,0.0,4.0028,3.9808,4.0595,4.0933,4.0197,0.0,4.0916,4.018,3.9225,3.8041,3.6552,3.5926,3.5672,3.5832,3.5689,3.5672,3.5832,3.5452,3.5101,3.4751,3.3626,3.2797,3.2293,3.1669,3.1389,3.1389,3.1389,3.1389,3.1391,3.1807,3.1915,3.188,3.295,3.3105,3.2692,3.2585,3.224,3.1696,3.0541,3.0006,2.9769,2.9207,2.9005,2.9005,2.9005,2.9005,2.9005,2.9005,2.9005,2.895,2.8712,2.829,2.7666,2.6539,2.5236,2.419,2.419,2.419,2.4218,2.4275,2.4247,2.4218,2.4275,2.4247,2.419,2.419,2.419,2.419,2.419,2.419,2.419,2.419,2.4256,2.4339,2.4486,2.458,2.4628,2.4591,2.4756,2.4897,2.4979,2.5065,2.5152,2.5284,2.5308,2.5308,2.5308,2.5308,2.5308,2.5308,2.5308,2.5308,2.5308,2.5308,2.5308,4.4124,4.4157,4.3814,4.2535,4.0311,3.8081,0.0,3.5479,3.4771,3.5545,3.6185,3.7098,3.8619,3.8908,3.8934,3.9007,0.0,0.0,3.9106,4.0273,4.0933,0.0,4.0747,4.0916,4.018,3.8768,3.728,3.5718,3.56,3.5832,3.6354,3.5898,3.5832,3.6374,3.5164,3.4751,3.5292,3.3308,3.231,3.2293,3.1946,3.1789,3.1789,3.1789,3.1789,3.1825,3.2299,3.223,3.1897,3.3237,3.355,3.3229,3.362,3.2816,3.1403,3.1384,3.0393,2.9005,2.9005,2.9005,2.9005,2.9005,2.9005,2.9005,2.9005,2.9005,2.8822,2.8044,2.6678,2.5429,2.5411,2.4805,2.419,2.419,2.419,2.4247,2.4452,2.433,2.4266,2.4452,2.4348,2.419,2.419,2.419,2.419,2.419,2.419,2.419,2.419,2.4375,2.4503,2.4503,2.4797,2.4937,2.4811,2.493,2.5004,2.5004,2.5198,2.5303,2.5308,2.5308,2.5308,2.5308,2.5308,2.5308,2.5308,2.5308,2.5308,2.5308,2.5308,2.5308,4.0985,4.1179,4.0782,3.9179,3.7791,3.6539,3.5502,3.4869,3.4554,3.4813,3.5803,3.6752,3.7247,3.8185,3.8896,3.8937,0.0,0.0,0.0,0.0,0.0,4.013,3.9851,3.9411,3.8667,3.7719,3.6721,3.5667,3.5941,3.6224,3.6374,3.6245,3.6004,3.5654,3.4912,3.4256,3.3731,3.311,3.2651,3.2441,3.2336,3.2282,3.2282,3.2282,3.2092,3.1826,3.2648,3.2384,3.1507,3.3133,3.3357,3.2686,3.2302,3.2173,3.2027,3.0375,2.9787,2.9739,2.9189,2.9005,2.9005,2.9005,2.862,2.8172,2.8172,2.8172,2.8007,2.7218,2.6219,2.5393,2.5393,2.4805,2.419,2.419,2.419,2.4266,2.4452,2.4444,2.4409,2.4486,2.4444,2.4357,2.4218,2.419,2.4256,2.4384,2.441,2.4452,2.4583,2.4662,2.4741,2.4831,2.4943,2.4986,2.4937,2.5107,2.5208,2.5208,2.5264,2.5308,2.5308,2.5308,2.5308,2.5308,2.5308,2.5308,2.5308,2.5308,2.5308,2.5308,2.5308,2.5308,0.0,3.8166,3.7732,3.6041,3.5158,3.4471,3.3587,3.3571,3.3826,3.4086,3.5003,3.5876,3.6167,3.7454,3.84,3.8157,3.9242,0.0,0.0,0.0,0.0,3.9723,3.9276,3.8599,3.7584,3.7083,3.6542,3.5944,3.6224,3.658,3.6943,3.6803,3.6435,3.5874,3.4875,3.4231,3.397,3.3195,3.2704,3.2501,3.2681,3.2761,3.2761,3.2761,3.2598,3.2366,3.2952,3.2632,0.0,3.3207,3.3208,3.2273,3.1974,3.1788,3.15,3.0014,2.9574,2.9684,2.917,2.9005,2.9005,2.9005,2.8466,2.7688,2.7082,2.6898,2.6788,2.6282,2.5576,2.4952,2.4952,2.4585,2.419,2.419,2.419,2.4275,2.4543,2.4543,2.4534,2.4655,2.4643,2.4567,2.4444,2.4436,2.4469,2.4591,2.4607,2.4654,2.4782,2.4842,2.491,2.4998,2.5077,2.5105,2.5105,2.5224,2.5308,2.5308,2.5308,2.5308,2.5308,2.5308,2.5308,2.5308,2.5308,2.5308,2.5308,2.5308,2.5308,2.5308,2.5308,2.5308,0.0,3.5071,3.4662,3.309,3.2481,3.2065,3.1322,3.1837,0.0,3.3305,3.401,3.4726,3.5473,3.674,3.7556,3.6962,3.8623,0.0,0.0,3.9639,3.9842,3.9089,3.8937,3.8345,3.6948,3.6768,3.666,3.6423,3.6478,3.6923,3.7842,3.7488,3.7148,3.6948,3.5151,3.4621,3.5523,3.3526,3.2567,3.2599,3.3029,3.3243,3.3243,3.3243,3.3229,3.3199,3.3229,3.2968,3.2567,3.3447,3.3095,3.204,3.2378,3.1568,3.0191,3.0136,2.9629,2.9005,2.9005,2.9005,2.8987,2.8877,2.8282,2.7339,2.5778,2.5338,2.5393,2.5319,2.4787,2.419,2.419,2.419,2.419,2.419,2.4209,2.4339,2.4716,2.4662,2.4628,2.4949,2.4897,2.4818,2.4804,2.4804,2.4804,2.4818,2.4799,2.4825,2.484,2.4949,2.5022,2.5022,2.5198,2.5308,2.5308,2.5308,2.5308,2.5308,2.5308,2.5308,2.5308,2.5308,2.5308,2.5308,2.5308,2.5308,2.5308,2.5308,2.5308,2.5308,2.5308,2.5327,3.1098,0.0,3.1073,3.0164,3.0379,3.0758,0.0,3.1528,3.2527,0.0,0.0,0.0,3.547,3.633,3.7091,3.7505,3.853,3.9191,3.9005,3.9639,3.9842,3.9089,3.8497,3.7804,3.6897,3.66,3.6456,3.6392,3.7098,3.7649,3.7894,3.779,3.789,3.824,3.6255,3.5014,3.4695,3.3594,3.3181,3.349,3.3606,3.3666,3.3666,3.3666,3.3494,3.3214,3.3522,3.3225,3.2567,3.3447,3.3095,3.1986,3.1756,3.1072,3.0136,2.95,2.9152,2.9005,2.9005,2.9005,2.8803,2.7556,2.6612,2.5778,2.4787,2.4915,2.5264,2.4658,2.4337,2.419,2.419,2.419,2.419,2.419,2.4321,2.4503,2.4746,2.4843,2.4911,2.4973,2.4974,2.493,2.4825,2.4804,2.4828,2.4949,2.4949,2.5011,2.516,2.5203,2.5224,2.5224,2.5269,2.5308,2.5308,2.5308,2.5308,2.5308,2.5308,2.5308,2.5308,2.5308,2.5308,2.5308,2.5308,2.5308,2.5308,2.5308,2.5308,2.5308,2.5308,2.5654,2.9473,3.0109,3.0373,2.9644,3.01,3.0702,3.0702,0.0,0.0,0.0,0.0,0.0,0.0,0.0,0.0,3.7277,3.8279,3.9212,3.9792,3.971,3.9399,3.8926,3.7993,3.7193,3.6664,3.6504,3.6583,3.7041,3.7578,3.8015,3.8249,3.7921,3.7851,3.8138,3.6282,3.5269,3.5263,3.408,3.3578,3.3807,3.3807,3.3807,3.3807,3.3807,3.368,3.3494,3.3707,3.3518,3.3118,3.3606,3.2985,3.1697,3.1486,3.0687,2.9592,2.9152,2.9005,2.9005,2.9005,2.8767,2.8253,2.6987,2.6062,2.5246,2.4428,2.4511,2.4768,2.4318,2.419,2.419,2.419,2.419,2.4218,2.4321,2.4428,2.4575,2.483,2.4943,2.5028,2.5111,2.5146,2.5118,2.5031,2.5037,2.5049,2.513,2.5146,2.5168,2.5298,2.5308,2.5308,2.5308,2.5308,2.5308,2.5308,2.5308,2.5308,2.5308,2.5308,2.5308,2.5308,2.5308,2.5308,2.5308,2.5308,2.5308,2.5308,2.5308,2.5308,2.5308,2.5712,2.6154,2.9258,3.0606,3.1435,3.0159,3.0453,3.1048,3.1048,0.0,0.0,0.0,0.0,0.0,0.0,3.5843,0.0,0.0,3.8185,3.958,4.0845,3.9989,3.9151,3.8868,3.7743,3.6906,3.6547,3.6583,3.6981,3.7842,3.798,3.818,3.8508,3.7878,3.7437,3.7327,3.5811,3.5353,3.6083,3.4578,3.3807,3.3807,3.3807,3.3807,3.3807,3.3807,3.3807,3.3807,3.3807,3.3807,3.3807,3.3807,3.2852,3.1397,3.1397,3.0411,2.9005,2.9005,2.9005,2.9005,2.9005,2.8473,2.7658,2.6869,2.6062,2.5246,2.4428,2.419,2.419,2.419,2.419,2.419,2.419,2.419,2.4256,2.4444,2.4528,2.4628,2.4924,2.5022,2.5094,2.5269,2.5308,2.5308,2.5308,2.5308,2.5308,2.5308,2.5308,2.5308,2.5308,2.5308,2.5308,2.5308,2.5308,2.5308,2.5308,2.5308,2.5308,2.5308,2.5308,2.5308,2.5308,2.5308,2.5308,2.5308,2.5308,2.5308,2.5308,2.5308,2.5308,2.5327,2.6192,2.6678,3.1447,3.3089,3.335,2.9995,2.98,3.0429,3.0429,0.0,0.0,0.0,0.0,0.0,0.0,3.622,3.6986,0.0,3.8835,4.0145,4.1472,4.0922,4.0106,3.9458,3.8599,3.7822,3.7147,3.7451,3.7737,3.7894,3.8316,3.8315,3.7731,3.7566,3.7199,3.6505,3.5518,3.5059,3.5206,3.4284,3.3807,3.3807,3.3807,3.3807,3.3807,3.3807,3.3807,3.3807,3.3807,3.3807,3.3807,3.3807,3.2852,3.1397,3.1397,3.0411,2.9005,2.9005,2.9005,2.9005,2.9005,2.8473,2.7658,2.6869,2.6062,2.5246,2.4428,2.419,2.419,2.419,2.419,2.419,2.419,2.419,2.4256,2.4444,2.4623,2.4799,2.4968,2.5122,2.5264,2.5284,2.5308,2.5308,2.5308,2.5308,2.5308,2.5308,2.5308,2.5308,2.5308,2.5308,2.5308,2.5308,2.5308,2.5308,2.5308,2.5308,2.5308,2.5308,2.5308,2.5308,2.5308,2.5308,2.5308,2.5308,2.5308,2.5308,2.5308,2.5308,2.5308,2.5327,2.6192,2.7005,3.1525,3.28,3.3234,3.1836,3.2359,3.3117,3.2721,0.0,0.0,0.0,0.0,0.0,0.0,0.0,3.7718,3.9185,4.025,4.1053,4.1522,4.0664,3.984,3.9349,3.8355,3.7675,3.7596,3.7772,3.8013,3.83,3.8562,3.834,3.7547,3.7088,3.6468,3.561,3.4784,3.4344,3.4344,3.399,3.3807,3.3807,3.3807,3.3807,3.3807,3.3807,3.3807,3.3807,3.3807,3.3807,3.377,3.333,3.2467,3.136,3.0907,3.0026,2.9005,2.9005,2.9005,2.9005,2.9005,2.8473,2.7732,2.7365,2.6421,2.5319,2.4952,2.4548,2.419,2.419,2.419,2.419,2.419,2.419,2.4256,2.4444,2.4654,2.4835,2.4974,2.5157,2.5308,2.5308,2.5308,2.5308,2.5308,2.5308,2.5308,2.5308,2.5308,2.5308,2.5308,2.5308,2.5308,2.5308,2.5308,2.5308,2.5308,2.5308,2.5308,2.5308,2.5308,2.5308,2.5308,2.5308,2.5308,2.5308,2.5308,2.5308,2.5308,2.5308,2.5308,2.5327,2.6678,2.7525,3.1327,3.2352,3.2992,3.3652,0.0,3.5054,3.4484,3.4095,0.0,0.0,0.0,0.0,0.0,3.7521,3.8674,4.0304,4.122,4.1631,4.136,4.0325,3.9532,3.9315,3.8258,3.7685,3.8048,3.8082,3.8267,3.8658,3.8524,3.8065,3.7254,3.6431,3.5591,3.4747,3.4119,3.3807,3.3807,3.3807,3.3807,3.3807,3.3807,3.3807,3.3807,3.3807,3.3807,3.3788,3.3605,3.3623,3.3715,3.2742,3.1953,3.1323,3.0503,2.9702,2.9005,2.9005,2.9005,2.9005,2.9005,2.8601,2.8044,2.786,2.6843,2.565,2.5448,2.4842,2.419,2.419,2.419,2.419,2.419,2.419,2.4256,2.4444,2.4615,2.4778,2.4962,2.5111,2.5234,2.5284,2.5308,2.5308,2.5308,2.5308,2.5308,2.5308,2.5308,2.5308,2.5308,2.5308,2.5308,2.5308,2.5308,2.5308,2.5308,2.5308,2.5308,2.5308,2.5308,2.5308,2.5308,2.5308,2.5308,2.5308,2.5308,2.5303,2.5312,2.5312,2.5317,2.5374,2.7108,2.7922,3.1781,3.3063,3.3734,3.4292,3.4109,0.0,3.3678,3.4119,0.0,3.4576,0.0,0.0,0.0,3.8357,3.9787,4.0159,4.0923,4.136,4.1144,4.0388,3.9857,3.9834,3.9088,3.8611,3.8643,3.8643,3.8658,3.8692,3.8025,3.7235,3.6431,3.5555,3.4729,3.3917,3.3825,3.3807,3.3807,3.3807,3.3807,3.3807,3.3807,3.3807,3.3807,3.3807,3.3807,3.3752,3.3005,3.3109,3.3678,3.2131,3.1452,3.1323,3.0503,2.9702,2.9005,2.9005,2.9005,2.9005,2.9005,2.8968,2.8785,2.8044,2.7218,2.6374,2.5631,2.4842,2.419,2.419,2.419,2.419,2.419,2.419,2.4256,2.4444,2.4512,2.4604,2.4937,2.5016,2.5082,2.5264,2.5308,2.5308,2.5308,2.5308,2.5308,2.5308,2.5308,2.5308,2.5308,2.5308,2.5308,2.5308,2.5308,2.5308,2.5308,2.5308,2.5308,2.5308,2.5308,2.5308,2.5308,2.5308,2.5308,2.5308,2.5308,2.5326,2.5387,2.5395,2.5379,2.5437,2.7187,2.7961,3.087,3.2401,3.3733,3.4342,3.4655,0.0,0.0,3.4718,3.523,3.523,3.5407,0.0,0.0,3.9047,4.0206,4.0669,4.1009,4.1022,4.0419,4.0084,3.9698,3.9203,3.8891,3.8707,3.8707,3.8707,3.8707,3.8707,3.7936,3.7144,3.634,3.5463,3.4637,3.3825,3.3807,3.3807,3.3807,3.3807,3.3807,3.3807,3.3807,3.3807,3.3807,3.3807,3.3807,3.377,3.3476,3.3238,3.2981,3.1861,3.1121,3.0577,2.9757,2.9262,2.9005,2.9005,2.9005,2.9005,2.9005,2.9005,2.895,2.8638,2.7647,2.6539,2.6245,2.5236,2.419,2.419,2.419,2.419,2.419,2.419,2.4218,2.4294,2.4419,2.4526,2.4655,2.4858,2.5022,2.5099,2.5214,2.5308,2.5308,2.5308,2.5308,2.5308,2.5308,2.5308,2.5308,2.5308,2.5308,2.5308,2.5308,2.5308,2.5308,2.5308,2.5308,2.5308,2.5308,2.5308,2.5308,2.5308,2.5308,2.5308,2.5344,2.5364,2.5406,2.5447,2.5447,2.5429,2.7199,2.7966,3.0842,3.2145,3.3396,3.429,0.0,0.0,3.487,3.5309,3.5898,3.6075,3.6285,3.6828,3.8012,3.9317,4.0221,4.0333,4.0545,4.0451,3.9625,3.9515,3.9313,3.8781,3.8707,3.8707,3.8707,3.8469,3.8322,3.8322,3.7312,3.6468,3.5917,3.5078,3.4362,3.3825,3.3807,3.3807,3.3807,3.3807,3.3807,3.3807,3.3807,3.3807,3.3807,3.3807,3.366,3.3421,3.3421,3.2963,3.2173,3.1347,3.0558,2.9757,2.9225,2.9005,2.9005,2.9005,2.9005,2.9005,2.9005,2.9005,2.8968,2.8693,2.7703,2.6547,2.63,2.5273,2.419,2.419,2.4373,2.453,2.4263,2.419,2.419,2.419,2.4312,2.4409,2.4486,2.4678,2.4865,2.4917,2.5071,2.5208,2.5208,2.5259,2.5308,2.5308,2.5308,2.5308,2.5308,2.5308,2.5308,2.5308,2.5308,2.5308,2.5308,2.5308,2.5308,2.5308,2.5308,2.5308,2.5308,2.5308,2.5308,2.5308,2.5367,2.5417,2.5434,2.551,2.5508,2.5473,2.6934,2.7576,3.1949,3.2479,3.2834,0.0,0.0,0.0,3.5312,3.5899,3.656,3.7078,3.7773,3.8209,3.7951,3.9157,3.9859,3.8868,3.9368,3.9606,3.8799,3.8689,3.8689,3.8689,3.8689,3.8689,3.8689,3.797,3.7492,3.7492,3.5954,3.5004,3.5004,3.4247,3.3807,3.3807,3.3807,3.3807,3.3807,3.3807,3.3807,3.3807,3.3807,3.3807,3.3807,3.3807,3.3366,3.2601,3.2601,3.2137,3.1342,3.0522,2.9721,2.9005,2.9005,2.9005,2.9005,2.9005,2.9005,2.9005,2.9005,2.8987,2.8858,2.8062,2.7255,2.6447,2.5631,2.4842,2.4208,2.419,2.4768,2.5209,2.442,2.419,2.419,2.419,2.419,2.4247,2.4452,2.4503,2.4569,2.476,2.491,2.501,2.501,2.5163,2.5308,2.5308,2.5308,2.5308,2.5308,2.5308,2.5308,2.5308,2.5308,2.5308,2.5308,2.5308,2.5308,2.5308,2.5308,2.5308,2.5308,2.5308,2.5308,2.5308,2.5367,2.5428,2.5491,2.5564,2.5563,2.551,2.6395,2.6733,3.0783,3.1875,0.0,3.4046,0.0,0.0,0.0,3.7033,0.0,0.0,3.7648,3.7989,3.7895,3.8581,3.9047,3.875,3.8909,3.8762,3.797,3.786,3.7658,3.7074,3.7019,3.7019,3.7019,3.6798,3.6666,3.6666,3.5628,3.5004,3.5004,3.4247,3.3807,3.3807,3.3807,3.3807,3.3807,3.3807,3.3807,3.3807,3.3807,3.3807,3.3807,3.3807,3.3366,3.2601,3.2601,3.1825,3.0485,2.9684,2.9225,2.9005,2.9005,2.9005,2.9005,2.9005,2.9005,2.9005,2.9005,2.862,2.8117,2.789,2.7255,2.6447,2.5631,2.5227,2.4934,2.4355,2.4373,2.4511,2.4263,2.419,2.419,2.419,2.419,2.4218,2.4275,2.4401,2.4569,2.476,2.491,2.504,2.5198,2.5264,2.5308,2.5308,2.5308,2.5308,2.5308,2.5308,2.5308,2.5308,2.5308,2.5308,2.5308,2.5308,2.5308,2.5308,2.5308,2.5308,2.5308,2.5308,2.5308,2.5308,2.5401,2.549,2.5491,2.5607,2.5635,2.5585,2.6456,2.6824,3.1702,3.2769,0.0,3.5119,3.5826,3.6594,3.7917,0.0,0.0,0.0,3.8015,3.8216,3.8216,3.8481,3.8597,3.8267,3.8212,3.7936,3.7144,3.7015,3.685,3.6358,3.6303,3.6303,3.6303,3.5991,3.5789,3.5789,3.5004,3.4509,3.4509,3.4064,3.3807,3.3807,3.3807,3.3807,3.3807,3.3807,3.3807,3.3807,3.3807,3.3807,3.3807,3.3807,3.3183,3.21,3.1445,3.0803,3.0136,2.9335,2.9005,2.9005,2.9005,2.9005,2.9005,2.9005,2.9005,2.9005,2.9005,2.8675,2.8227,2.7897,2.7255,2.6447,2.5631,2.5172,2.4824,2.4337,2.4428,2.4603,2.4281,2.4438,2.4603,2.4281,2.419,2.419,2.419,2.4294,2.4435,2.4639,2.4802,2.4981,2.5146,2.5253,2.5308,2.5308,2.5308,2.5308,2.5308,2.5308,2.5308,2.5308,2.5308,2.5308,2.5308,2.5308,2.5308,2.5308,2.5308,2.5313,2.5344,2.5348,2.5344,2.5339,2.5479,2.5545,2.5545,2.5657,2.5661,2.5602,2.6146,2.6355,3.3779,3.4442,0.0,3.677,3.7058,0.0,3.8447,3.8707,3.8707,3.8707,3.8707,3.8689,3.8597,3.8597,3.8322,3.7529,3.7382,3.7107,3.6303,3.6174,3.6156,3.6083,3.6064,3.6064,3.6064,3.5353,3.4894,3.4894,3.4211,3.3807,3.3807,3.3807,3.3807,3.3807,3.3807,3.3807,3.3807,3.3807,3.3807,3.3807,3.3807,3.3807,3.3807,3.3807,3.2908,3.1323,2.9702,2.9409,3.0026,2.9299,2.9005,2.9005,2.9005,2.9005,2.9005,2.9005,2.9005,2.9005,2.9005,2.895,2.8767,2.8044,2.7255,2.6447,2.5631,2.4897,2.4281,2.4226,2.4732,2.5117,2.4392,2.475,2.5099,2.4373,2.419,2.419,2.419,2.4209,2.4284,2.4486,2.4693,2.4869,2.4998,2.5173,2.5308,2.5308,2.5308,2.5308,2.5308,2.5308,2.5308,2.5308,2.5308,2.5308,2.5308,2.5308,2.5308,2.5308,2.5308,2.5326,2.5406,2.539,2.539,2.5413,2.5539,2.5602,2.5602,2.5661,2.5662,2.5605,2.5605,2.5588,3.3459,3.4138,0.0,0.0,3.7586,3.8361,3.8637,3.8707,3.8707,3.8707,3.8707,3.8505,3.7878,3.7768,3.7492,3.6703,3.656,3.6266,3.5389,3.5279,3.5041,3.4412,3.4339,3.4339,3.4339,3.4174,3.4064,3.4064,3.3899,3.3807,3.3807,3.3807,3.3807,3.3807,3.3807,3.3807,3.3807,3.3807,3.3807,3.3807,3.3807,3.3807,3.3807,3.3807,3.2908,3.1323,2.9702,2.9097,2.9244,2.9078,2.9005,2.9005,2.9005,2.9005,2.9005,2.9005,2.9005,2.9005,2.9005,2.8583,2.8026,2.7871,2.7255,2.6447,2.5631,2.5283,2.5007,2.4373,2.4318,2.442,2.4245,2.4318,2.441,2.4245,2.419,2.419,2.419,2.4312,2.4495,2.47,2.4857,2.5024,2.5203,2.5269,2.5308,2.5308,2.5308,2.5308,2.5308,2.5308,2.5308,2.5308,2.5308,2.5308,2.5308,2.5308,2.5308,2.5308,2.5308,2.5326,2.5398,2.5402,2.5418,2.5485,2.5558,2.5602,2.5602,2.5661,2.5683,2.5683,2.5683,2.5662,3.3335,0.0,0.0,3.7314,0.0,3.8707,3.8707,3.8707,3.8597,3.8193,3.812,3.7881,3.707,3.6942,3.6652,3.5807,3.5665,3.5371,3.4527,3.4417,3.427,3.3844,3.3807,3.3807,3.3807,3.3807,3.3807,3.3807,3.3807,3.3807,3.3807,3.3807,3.3807,3.3807,3.3807,3.3807,3.3807,3.3807,3.3807,3.3807,3.3807,3.3807,3.3788,3.3403,3.2559,3.1342,3.0118,2.9354,2.9005,2.9005,2.9005,2.9005,2.9005,2.9005,2.9005,2.9005,2.9005,2.9005,2.9005,2.873,2.8374,2.8374,2.7842,2.7016,2.6209,2.5705,2.5227,2.4438,2.419,2.419,2.419,2.419,2.419,2.419,2.419,2.419,2.419,2.4357,2.4569,2.476,2.491,2.5052,2.5264,2.5308,2.5308,2.5308,2.5308,2.5308,2.5308,2.5308,2.5308,2.5308,2.5308,2.5308,2.5308,2.5308,2.5308,2.5308,2.5308,2.5321,2.5395,2.5425,2.5488,2.5551,2.5607,2.5658,2.5658,2.5658,2.5658,2.5658,2.5629,2.561,3.3264,0.0,3.6652,3.8138,3.8487,0.0,3.867,3.8707,3.8432,3.7492,3.7401,3.7217,3.6248,3.6083,3.5789,3.4931,3.4784,3.4564,3.3899,3.3807,3.3807,3.3807,3.3807,3.3807,3.3807,3.3807,3.3807,3.3807,3.3807,3.3807,3.3807,3.3807,3.3807,3.3807,3.3807,3.3807,3.3807,3.3807,3.3807,3.3807,3.3807,3.3807,3.377,3.2981,3.2173,3.136,3.0558,2.9739,2.9005,2.9005,2.9005,2.9005,2.9005,2.9005,2.9005,2.9005,2.9005,2.9005,2.9005,2.9005,2.9005,2.9005,2.8466,2.7677,2.7016,2.6153,2.5283,2.4759,2.4502,2.442,2.442,2.442,2.4373,2.4226,2.419,2.419,2.419,2.4384,2.4599,2.4768,2.4936,2.5099,2.5269,2.5308,2.5308,2.5308,2.5308,2.5308,2.5308,2.5308,2.5308,2.5308,2.5308,2.5308,2.5308,2.5308,2.5308,2.5308,2.5308,2.5326,2.5398,2.5451,2.5539,2.5601,2.5661,2.5703,2.5703,2.5634,2.5602,2.5601,2.5537,2.5541,0.0,0.0,3.6523,0.0,3.7658,3.7841,0.0,0.0,3.8267,3.6762,3.7015,3.7033,3.5463,3.5169,3.4912,3.41,3.3972,3.3917,3.3825,3.3807,3.3807,3.3807,3.3807,3.3807,3.3807,3.3807,3.3807,3.3807,3.3807,3.3807,3.3807,3.3807,3.3807,3.3807,3.3807,3.3807,3.3807,3.3807,3.3807,3.3807,3.3807,3.3807,3.377,3.2981,3.2173,3.136,3.0558,2.9739,2.9005,2.9005,2.9005,2.9005,2.9005,2.9005,2.9005,2.9005,2.9005,2.9005,2.9005,2.9005,2.9005,2.9005,2.8466,2.778,2.7658,2.6586,2.5521,2.6117,2.5768,2.5246,2.5246,2.5246,2.5062,2.4373,2.419,2.419,2.419,2.4495,2.4768,2.4797,2.5043,2.5269,2.5303,2.5308,2.5308,2.5308,2.5308,2.5308,2.5308,2.5308,2.5308,2.5308,2.5308,2.5308,2.5308,2.5308,2.5308,2.5308,2.5308,2.5326,2.5406,2.5454,2.5539,2.5601,2.5661,2.5703,2.5703,2.5634,2.5602,2.5601,2.5537,2.5541,3.2651,3.4051,3.5079,0.0,3.7492,3.7713,3.8524,3.8707,3.829,3.6833,3.6818,3.6541,3.4857,3.4423,3.4265,3.4067,3.3902,3.3807,3.3807,3.3807,3.3807,3.3807,3.3807,3.3807,3.3807,3.3807,3.3807,3.3807,3.3807,3.3807,3.3807,3.3807,3.3807,3.3807,3.3807,3.3807,3.3807,3.3807,3.3807,3.3807,3.3807,3.3568,3.3128,3.2748,3.2173,3.136,3.0558,2.9739,2.9005,2.9005,2.9005,2.9005,2.9005,2.9005,2.9005,2.9005,2.9005,2.9005,2.9005,2.9005,2.9005,2.9005,2.8767,2.8393,2.7934,2.7321,2.6715,2.6631,2.6355,2.6062,2.6062,2.5742,2.5301,2.4952,2.453,2.419,2.419,2.452,2.4861,2.5031,2.5206,2.5308,2.5308,2.5308,2.5308,2.5308,2.5308,2.5308,2.5308,2.5308,2.5308,2.5308,2.5308,2.5308,2.5308,2.5308,2.5308,2.5308,2.5308,2.5313,2.5333,2.5401,2.5465,2.5498,2.5633,2.5683,2.5637,2.5588,2.5511,2.5493,2.5459,2.5488,0.0,0.0,3.3388,3.5835,3.6828,3.7419,0.0,3.856,3.836,3.7155,3.6792,3.6286,3.489,3.4314,3.4062,3.4183,3.4031,3.3876,3.3802,3.3807,3.3807,3.3807,3.3807,3.3807,3.3807,3.3807,3.3807,3.3807,3.3807,3.3807,3.3807,3.3807,3.3807,3.3807,3.3807,3.3807,3.3807,3.3807,3.3807,3.3807,3.3807,3.3495,3.2894,3.2485,3.1971,3.136,3.0558,2.9739,2.9005,2.9005,2.9005,2.9005,2.9005,2.9005,2.9005,2.9005,2.9005,2.9005,2.9005,2.9005,2.9005,2.9005,2.9005,2.8895,2.8282,2.7952,2.7714,2.7317,2.706,2.6906,2.6906,2.6447,2.5962,2.576,2.5099,2.4448,2.4312,2.4543,2.4876,2.5171,2.5264,2.5308,2.5308,2.5308,2.5308,2.5308,2.5308,2.5308,2.5308,2.5308,2.5308,2.5308,2.5308,2.5308,2.5308,2.5308,2.5308,2.5308,2.5308,2.5308,2.5308,2.5352,2.539,2.5409,2.5561,2.5611,2.5569,2.5517,2.5462,2.5437,2.5409,2.5444,0.0,3.0243,0.0,3.3156,3.4951,3.656,3.7382,3.8138,3.845,3.7632,3.7059,3.6516,3.5918,3.5181,3.4551,3.4246,3.4188,3.4086,3.3842,3.3807,3.3807,3.3807,3.3807,3.3807,3.3807,3.3807,3.3807,3.3807,3.3807,3.3807,3.3807,3.3807,3.3807,3.3807,3.3807,3.3807,3.3807,3.3807,3.3807,3.3807,3.3807,3.377,3.3697,3.2155,3.1452,3.136,3.0558,2.9739,2.9005,2.9005,2.9005,2.9005,2.9005,2.9005,2.9005,2.9005,2.9005,2.9005,2.9005,2.9005,2.9005,2.9005,2.9005,2.8987,2.895,2.8411,2.7952,2.8675,2.8338,2.7732,2.7732,2.7714,2.7475,2.6722,2.5915,2.5186,2.4602,2.4647,2.4842,2.4986,2.5168,2.5308,2.5308,2.5308,2.5308,2.5308,2.5308,2.5308,2.5308,2.5308,2.5308,2.5308,2.5308,2.5308,2.5308,2.5308,2.5308,2.5308,2.5308,2.5308,2.5308,2.5352,2.5406,2.5398,2.546,2.552,2.5515,2.5444,2.5441,2.5484,2.5425,2.5474,0.0,0.0,0.0,3.2264,3.3987,3.5597,3.7359,3.8368,3.8845,3.8416,3.7745,3.704,3.6502,3.5467,3.4714,3.4774,3.4449,3.4171,3.408,3.3915,3.3807,3.3807,3.3807,3.3807,3.3807,3.3807,3.3807,3.3807,3.3807,3.3807,3.3807,3.3807,3.3807,3.3807,3.3807,3.3807,3.3807,3.3807,3.3807,3.3807,3.3807,3.3532,3.2986,3.1898,3.1109,3.0577,2.9776,2.9262,2.9005,2.9005,2.9005,2.9005,2.9005,2.9005,2.9005,2.9005,2.9005,2.9005,2.9005,2.9005,2.9005,2.9005,2.9005,2.9005,2.9005,2.8803,2.862,2.8932,2.8785,2.8565,2.8565,2.8278,2.7826,2.7203,2.6407,2.5731,2.5512,2.5187,2.4987,2.5152,2.5259,2.5308,2.5308,2.5308,2.5308,2.5308,2.5308,2.5308,2.5308,2.5308,2.5308,2.5308,2.5308,2.5308,2.5308,2.5308,2.5308,2.5308,2.5308,2.5308,2.5308,2.5312,2.5339,2.5335,2.5359,2.5408,2.5491,2.5488,2.5488,2.5491,2.5526,2.5554,2.5507,0.0,0.0,0.0,3.2376,3.4015,3.6219,3.7538,3.8328,3.8466,3.7965,3.7382,3.7025,3.5864,3.499,3.5088,3.4756,3.4459,3.4379,3.4117,3.3923,3.3923,3.385,3.3807,3.3807,3.3807,3.3807,3.3807,3.3807,3.3807,3.3807,3.3807,3.3807,3.3807,3.3807,3.3807,3.3807,3.3807,3.3807,3.3807,3.3807,3.3385,3.2564,3.177,3.0962,3.0173,2.9354,2.9005,2.9005,2.9005,2.9005,2.9005,2.9005,2.9005,2.9005,2.9005,2.9005,2.9005,2.9005,2.9005,2.9005,2.9005,2.9005,2.9005,2.9005,2.9005,2.9005,2.9005,2.9005,2.9005,2.9005,2.8767,2.839,2.7829,2.7309,2.6873,2.6588,2.5729,2.5034,2.5168,2.5259,2.5308,2.5308,2.5308,2.5308,2.5308,2.5308,2.5308,2.5308,2.5308,2.5308,2.5308,2.5308,2.5308,2.5308,2.5308,2.5308,2.5308,2.5308,2.5308,2.5308,2.5308,2.5308,2.533,2.533,2.5402,2.552,2.5498,2.5498,2.5522,2.557,2.5606,0.0,0.0,0.0,0.0,3.0037,3.1782,3.3877,3.5533,3.6851,3.7722,3.7651,3.7441,3.746,3.6415,3.5444,3.5166,3.5105,3.5008,3.4744,3.4423,3.4211,3.4211,3.3974,3.3802,3.3802,3.3802,3.3807,3.3807,3.3807,3.3807,3.3807,3.3807,3.3807,3.3807,3.3807,3.3807,3.3807,3.3807,3.3807,3.3807,3.3807,3.3385,3.2564,3.177,3.0962,3.0173,2.9354,2.9005,2.9005,2.9005,2.9005,2.9005,2.9005,2.9005,2.9005,2.9005,2.9005,2.9005,2.9005,2.9005,2.9005,2.9005,2.9005,2.9005,2.9005,2.9005,2.9005,2.9005,2.9005,2.9005,2.9017,2.9203,2.9268,2.8678,2.867,2.8597,2.7771,2.6263,2.5055,2.5055,2.5182,2.5308,2.5308,2.5308,2.5308,2.5308,2.5308,2.5308,2.5308,2.5308,2.5308,2.5308,2.5308,2.5308,2.5308,2.5308,2.5308,2.5308,2.5308,2.5308,2.5308,2.5288,2.533,2.5398,2.5402,2.5471,2.5602,2.5474,2.5477,2.5603,2.5603,2.5636,2.2826,0.0,0.0,0.0,0.0,0.0,3.279,3.4136,3.5356,3.7284,3.6799,3.622,3.6823,3.6618,3.6159,3.5506,3.5223,3.5079,3.4999,3.4735,3.4561,3.4561,3.4277,3.4086,3.4086,3.3897,3.3807,3.3807,3.3807,3.3807,3.3807,3.3807,3.3807,3.3807,3.3807,3.3807,3.3807,3.3807,3.3807,3.3807,3.3807,3.3385,3.2564,3.177,3.0962,3.0173,2.9354,2.9005,2.9005,2.9005,2.9005,2.9005,2.9005,2.9005,2.9005,2.9005,2.9005,2.9005,2.9005,2.9005,2.9005,2.9005,2.9005,2.9005,2.9005,2.9005,2.9005,2.9005,2.9005,2.9033,2.9235,2.9455,2.9613,2.96,2.9301,2.8795,2.7988,2.6932,2.6165,2.6165,2.5686,2.5308,2.5308,2.5308,2.5308,2.5308,2.5308,2.5308,2.5308,2.5308,2.5308,2.5308,2.5308,2.5308,2.5308,2.5308,2.5308,2.5308,2.5308,2.5308,2.5308,2.5361,2.5376,2.5398,2.545,2.5503,2.5602,2.5559,2.5595,2.5662,2.5662,2.5683,0.0,0.0,0.0,0.0,0.0,0.0,3.1337,3.273,3.4094,3.6415,3.6339,3.6002,3.6582,3.6423,3.6154,3.6019,3.558,3.5273,3.5273,3.5044,3.487,3.487,3.4603,3.4357,3.4211,3.4068,3.3928,3.382,3.3807,3.3642,3.333,3.2981,3.2797,3.2797,3.2797,3.2963,3.3311,3.3311,3.3476,3.3807,3.3458,3.2889,3.2063,3.1274,3.0467,2.9666,2.9207,2.9005,2.9005,2.9005,2.9005,2.9005,2.9005,2.9005,2.9005,2.9005,2.9005,2.9005,2.9005,2.9005,2.9005,2.9005,2.9005,2.9005,2.9005,2.9005,2.9005,2.9005,2.9005,2.9055,2.933,2.9542,2.9746,2.9954,2.9826,2.9506,2.9044,2.8255,2.7332,2.625,2.5654,2.5308,2.5308,2.5308,2.5308,2.5308,2.5308,2.5308,2.5308,2.5308,2.5308,2.5308,2.5308,2.5308,2.5308,2.5308,2.5308,2.5308,2.5308,2.5308,2.5308,2.5352,2.5408,2.5441,2.5515,2.5569,2.5636,2.5607,2.5634,2.5703,2.5703,2.5703,2.1544,2.2193,0.0,0.0,2.5468,0.0,2.9489,3.1067,3.2539,3.4843,3.5495,3.5742,3.6082,3.5777,3.5633,3.6173,3.6001,3.5797,3.5776,3.5412,3.5215,3.5405,3.5107,3.4756,3.4457,3.4377,3.421,3.3868,3.3815,3.3458,3.2638,3.1916,3.1488,3.1397,3.1397,3.1733,3.2454,3.2564,3.2913,3.3532,3.2894,3.2137,3.125,3.0522,2.9769,2.9005,2.9005,2.9005,2.9005,2.9005,2.9005,2.9005,2.9005,2.9005,2.9005,2.9005,2.9005,2.9005,2.9005,2.9005,2.9005,2.9005,2.9005,2.9005,2.9005,2.9005,2.9005,2.9005,2.9005,2.9044,2.9289,2.9542,2.9756,2.9924,3.0189,3.0365,3.0288,2.964,2.8396,2.6058,2.5519,2.5442,2.5442,2.5442,2.5404,2.5308,2.5385,2.5404,2.5308,2.5308,2.5308,2.5308,2.5308,2.5308,2.5308,2.5308,2.5308,2.5308,2.5308,2.5308,2.5308,2.5352,2.5434,2.551,2.5567,2.5636,2.5703,2.5636,2.5636,2.5703,2.5703,2.5703,2.1544,2.2193,2.2904,2.3766,2.4317,0.0,2.7236,2.7856,2.8695,3.1209,3.1637,3.1785,3.2541,3.4051,3.4803,3.3673,3.5847,3.7647,3.7529,3.6318,3.5931,3.7275,3.6583,3.5959,3.5894,3.549,3.4926,3.4179,3.391,3.3458,3.2638,3.2454,3.2063,3.1415,3.1397,3.1488,3.1623,3.2271,3.2357,3.1874,3.2375,3.183,3.043,3.0265,2.9769,2.9005,2.9005,2.9005,2.9005,2.9005,2.9005,2.9005,2.9005,2.9005,2.9005,2.9005,2.9005,2.9005,2.9005,2.9005,2.9005,2.9005,2.9005,2.9005,2.9005,2.9005,2.9005,2.9005,2.9005,2.9017,2.9055,2.9377,2.9713,2.9756,3.0099,3.0212,2.9506,2.9223,2.8761,2.7601,2.6832,2.6351,2.6351,2.6351,2.6115,2.5404,2.5904,2.6096,2.5385,2.5308,2.5308,2.5308,2.5308,2.5308,2.5308,2.5308,2.5308,2.5308,2.5308,2.5308,2.5308,2.5352,2.5434,2.551,2.5629,2.5683,2.5703,2.5683,2.5683,2.5703,2.5703,2.5703,2.1462,2.2193,2.283,2.3443,2.3991,0.0,0.0,2.6778,2.7583,2.9833,3.0232,3.0479,3.1512,3.2635,3.3513,3.383,3.5149,3.6566,3.7868,3.7359,3.7135,3.7906,3.711,3.6624,3.6924,3.6311,3.5609,3.4899,3.3832,3.3036,3.2619,3.183,3.1219,3.0815,3.0411,3.0393,3.0797,3.1604,3.2008,3.2008,3.2008,3.1586,3.076,2.9971,2.9372,2.9005,2.9005,2.9005,2.9005,2.9005,2.9005,2.9005,2.9005,2.9005,2.9005,2.9005,2.9005,2.9005,2.9005,2.9005,2.9005,2.9005,2.9005,2.9005,2.9005,2.9005,2.9005,2.9005,2.9005,2.9005,2.9005,2.9336,2.9705,2.9705,3.0052,3.0288,2.9833,2.9756,2.964,2.9236,2.8448,2.7717,2.7313,2.7255,2.6948,2.6077,2.6327,2.6288,2.5404,2.5308,2.5308,2.5308,2.5308,2.5308,2.5308,2.5308,2.5308,2.5308,2.5308,2.5308,2.5308,2.5352,2.5453,2.5551,2.5628,2.5661,2.5703,2.5703,2.5703,2.5703,2.5703,2.5937,2.1379,2.2085,2.2685,2.3413,2.3836,2.4399,0.0,0.0,0.0,2.8665,2.9211,2.9672,3.0534,3.1017,3.185,3.3625,3.3891,3.4681,3.6921,3.7593,3.791,3.802,3.7529,3.7333,3.7651,3.6846,3.6103,3.5607,3.3926,3.2832,3.2685,3.1403,3.0522,3.021,2.9574,2.9464,2.9971,3.0907,3.1641,3.2124,3.1641,3.1323,3.1109,2.9647,2.9005,2.9005,2.9005,2.9005,2.9005,2.9005,2.9005,2.9005,2.9005,2.9005,2.9005,2.9005,2.9005,2.9005,2.9005,2.9005,2.9005,2.9005,2.9005,2.9005,2.9005,2.9005,2.9005,2.9005,2.9005,2.9005,2.9005,2.9336,2.9705,2.9705,3.0052,3.0404,3.0404,3.0404,3.0404,3.0404,2.9833,2.9088,2.828,2.8011,2.7659,2.6967,2.6717,2.6351,2.5635,2.5404,2.5308,2.5308,2.5308,2.5308,2.5308,2.5308,2.5308,2.5308,2.5308,2.5308,2.5308,2.5352,2.5459,2.5559,2.5594,2.5632,2.5683,2.5683,2.5703,2.5703,2.5703,2.6172,2.1379,2.1752,2.2098,2.3294,2.3239,2.3192,2.4343,0.0,2.5467,2.5689,0.0,2.749,2.7149,0.0,0.0,2.961,3.1784,3.3616,3.406,3.5592,3.7038,3.7986,3.8626,3.8731,3.8016,3.6949,3.6169,3.5874,3.4712,3.3713,3.2999,3.2558,3.1665,3.0246,3.0118,2.9757,2.9133,3.0632,3.1091,3.0485,3.1103,3.1017,3.032,2.9409,2.9005,2.9005,2.9005,2.9005,2.9005,2.9005,2.9005,2.9005,2.9005,2.9005,2.9005,2.9005,2.9005,2.9005,2.9005,2.9005,2.9005,2.9005,2.9005,2.9005,2.9005,2.9005,2.9005,2.9005,2.9005,2.9005,2.9005,2.9336,2.9705,2.9705,3.0052,3.0404,3.0404,3.0404,3.0404,3.0404,3.0327,2.9981,2.9107,2.8376,2.7876,2.778,2.7082,2.6563,2.6467,2.5788,2.5308,2.5308,2.5308,2.5308,2.5308,2.5308,2.5308,2.5308,2.5308,2.5308,2.5308,2.5352,2.5401,2.5421,2.5545,2.5603,2.5606,2.5662,2.5703,2.5703,2.5703,2.6172,2.1498,2.1981,2.2492,2.3381,2.3152,2.2915,2.3764,2.3825,2.3832,2.4096,0.0,0.0,0.0,0.0,0.0,0.0,2.888,3.0123,3.1179,3.2718,3.4671,3.7271,3.757,3.7674,3.7981,3.7425,3.7013,3.6891,3.5392,3.4252,3.3727,3.314,3.2447,3.1623,3.1146,3.0723,3.0393,3.1531,3.1935,3.1592,3.1458,3.1231,3.0852,2.9574,2.9005,2.9005,2.9005,2.9005,2.9005,2.9005,2.9005,2.9005,2.9005,2.9005,2.9005,2.9005,2.9005,2.9005,2.9005,2.9005,2.9005,2.9005,2.9005,2.9005,2.9005,2.9005,2.9005,2.9005,2.9005,2.9005,2.9005,2.9336,2.9705,2.9705,3.0052,3.0404,3.0404,3.0404,3.0404,3.0404,3.0404,3.0288,2.9929,2.9563,2.9179,2.8665,2.828,2.7871,2.7409,2.7024,2.6813,2.6813,2.637,2.6058,2.6058,2.5596,2.5308,2.5308,2.5308,2.5308,2.5308,2.5321,2.5376,2.5465,2.5503,2.5572,2.566,2.5683,2.5703,2.5703,2.5703,2.6445,2.1499,2.1924,2.2348,2.3148,2.2774,2.2335,2.2942,2.2861,2.2705,2.2889,2.3174,0.0,0.0,0.0,2.4713,2.5679,0.0,2.6828,2.8361,2.9611,3.1697,3.5237,3.6139,3.6865,3.7908,3.7827,3.7602,3.7373,3.5714,3.4582,3.4357,3.3625,3.3032,3.2614,3.2027,3.1623,3.1397,3.221,3.2601,3.2583,3.177,3.1397,3.136,2.9721,2.9005,2.9005,2.9005,2.9005,2.9005,2.9005,2.9005,2.9005,2.9005,2.9005,2.9005,2.9005,2.9005,2.9005,2.9005,2.9005,2.9005,2.9005,2.9005,2.9005,2.9005,2.9005,2.9005,2.9005,2.9005,2.9028,2.9089,2.9397,2.9722,2.9763,3.0107,3.0404,3.0404,3.0404,3.0404,3.0404,3.0404,3.0404,3.0404,3.0192,2.991,2.9525,2.9069,2.8646,2.828,2.8049,2.7895,2.7895,2.7332,2.6967,2.6967,2.6154,2.5558,2.5327,2.5308,2.5308,2.5308,2.5308,2.535,2.5477,2.5481,2.5558,2.5662,2.5683,2.582,2.6055,2.6055,2.6855,2.1391,2.1233,2.1089,2.24,2.1778,2.1013,2.162,2.2159,2.2367,2.1874,2.2585,2.2925,2.1705,2.2497,0.0,0.0,0.0,0.0,0.0,2.6482,2.8231,3.1397,3.4813,3.7176,3.7932,3.7981,3.7635,3.6781,3.5474,3.4713,3.4684,3.4105,3.3416,3.2619,3.2564,3.2192,3.1415,3.221,3.2601,3.2583,3.177,3.1397,3.136,2.9721,2.9005,2.9005,2.9005,2.9005,2.9005,2.9005,2.9005,2.9005,2.9005,2.9005,2.9005,2.9005,2.9005,2.9005,2.9005,2.9005,2.9005,2.9005,2.9005,2.9005,2.9005,2.9005,2.9005,2.9005,2.9005,2.9055,2.932,2.9533,2.9756,2.9947,3.0202,3.0404,3.0404,3.0404,3.0404,3.0404,3.0404,3.0404,3.0404,2.9698,2.941,3.0231,2.8986,2.8203,2.8953,2.8376,2.7895,2.7895,2.7876,2.7857,2.7857,2.7063,2.6192,2.5346,2.5308,2.5308,2.5308,2.5308,2.5326,2.5402,2.5474,2.5522,2.5603,2.5662,2.6133,2.6953,2.6953,2.7441,2.0918,2.0869,2.091,2.1802,2.1112,2.0366,2.1032,2.0691,2.03,2.0463,2.0805,2.0747,1.9779,2.032,0.0,0.0,0.0,0.0,0.0,2.4006,2.5584,2.787,3.1538,3.4478,3.6061,3.6199,3.6195,3.6178,3.5739,3.5166,3.4416,3.471,3.4461,3.3421,3.3385,3.3256,3.2981,3.3256,3.3115,3.2583,3.177,3.1109,3.0577,2.9482,2.9005,2.9005,2.9005,2.9005,2.9005,2.9005,2.9005,2.9005,2.9005,2.9005,2.9005,2.9005,2.9005,2.9005,2.9005,2.9005,2.9005,2.9005,2.9005,2.9005,2.9005,2.9005,2.9005,2.9005,2.9005,2.9055,2.933,2.9542,2.9746,2.9954,3.0202,3.0404,3.0404,3.0404,3.0404,3.0404,3.0404,3.0404,3.0404,3.0154,3.0058,3.0365,2.9923,2.9654,2.9929,2.9712,2.9538,2.9538,2.9044,2.8684,2.8684,2.7934,2.7082,2.6212,2.6154,2.6154,2.6154,2.5615,2.5612,2.6314,2.5787,2.5556,2.5661,2.6269,2.6719,2.7031,2.8184,2.8887,2.0648,2.0528,2.0524,2.1175,2.0605,1.9985,2.0423,1.9915,1.9382,1.9562,1.9741,1.9426,1.8069,1.8869,1.9519,0.0,0.0,0.0,0.0,2.2096,2.3298,2.5178,2.896,3.2076,3.3744,3.416,3.4705,3.557,3.5315,3.5107,3.5082,3.5231,3.499,3.4247,3.3954,3.3807,3.3807,3.3807,3.3532,3.3005,3.1916,3.114,3.0595,2.95,2.9005,2.9005,2.9005,2.9005,2.9005,2.9005,2.9005,2.9005,2.9005,2.9005,2.9005,2.9005,2.9005,2.9005,2.9005,2.9005,2.9005,2.9005,2.9005,2.9005,2.9005,2.9005,2.9005,2.9005,2.9005,2.9055,2.933,2.9542,2.9746,2.9954,3.0202,3.0404,3.0404,3.0404,3.0404,3.0404,3.0404,3.0404,3.0404,3.0404,3.0404,3.0404,3.0404,3.0404,3.0404,3.0404,3.0404,3.0404,2.991,2.9429,2.9127,2.8626,2.7972,2.7121,2.7063,2.7063,2.7063,2.6524,2.6541,2.7246,2.6712,2.6341,2.6152,2.6738,2.6992,2.7031,2.8476,2.9297]}]]